<?xml version="1.0" encoding="UTF-8" standalone="no" ?>
<gpx xmlns="http://www.topografix.com/GPX/1/1" xmlns:xsi="http://www.w3.org/2001/XMLSchema-instance" xsi:schemaLocation="http://www.topografix.com/GPX/1/1 http://www.topografix.com/GPX/1/1/gpx.xsd" version="1.1" creator="VisuGPX - https://www.visugpx.com">
  <metadata>
    <name>Circuits des lavoirs à travers les forêts briardes</name>
    <desc><![CDATA[Randonnée de 23 km en boucle à partir de Boissy-Saint-Léger]]></desc>
  </metadata>
  <trk>
    <name><![CDATA[Circuit des lavoirs_R]]></name>
    <trkseg>
      <trkpt lat="48.75304" lon="2.50568">
        <ele>48.28</ele>
        <time>2019-04-07T07:20:15Z</time>
      </trkpt>
      <trkpt lat="48.75304" lon="2.50566">
        <ele>48.28</ele>
        <time>2019-04-07T07:20:16Z</time>
      </trkpt>
      <trkpt lat="48.75306" lon="2.50553">
        <ele>48.34</ele>
        <time>2019-04-07T07:20:34Z</time>
      </trkpt>
      <trkpt lat="48.75308" lon="2.50553">
        <ele>47.87</ele>
        <time>2019-04-07T07:20:58Z</time>
      </trkpt>
      <trkpt lat="48.75307" lon="2.50555">
        <ele>48.09</ele>
        <time>2019-04-07T07:21:15Z</time>
      </trkpt>
      <trkpt lat="48.75308" lon="2.50554">
        <ele>47.73</ele>
        <time>2019-04-07T07:21:37Z</time>
      </trkpt>
      <trkpt lat="48.75308" lon="2.50554">
        <ele>48.15</ele>
        <time>2019-04-07T07:21:48Z</time>
      </trkpt>
      <trkpt lat="48.75306" lon="2.50555">
        <ele>47.16</ele>
        <time>2019-04-07T07:22:09Z</time>
      </trkpt>
      <trkpt lat="48.75307" lon="2.50556">
        <ele>47.94</ele>
        <time>2019-04-07T07:22:37Z</time>
      </trkpt>
      <trkpt lat="48.75306" lon="2.50555">
        <ele>47.53</ele>
        <time>2019-04-07T07:22:55Z</time>
      </trkpt>
      <trkpt lat="48.75306" lon="2.50556">
        <ele>47.36</ele>
        <time>2019-04-07T07:23:16Z</time>
      </trkpt>
      <trkpt lat="48.75308" lon="2.50553">
        <ele>47.16</ele>
        <time>2019-04-07T07:23:45Z</time>
      </trkpt>
      <trkpt lat="48.75307" lon="2.50554">
        <ele>47.03</ele>
        <time>2019-04-07T07:24:11Z</time>
      </trkpt>
      <trkpt lat="48.75306" lon="2.50555">
        <ele>47.52</ele>
        <time>2019-04-07T07:24:31Z</time>
      </trkpt>
      <trkpt lat="48.75308" lon="2.50552">
        <ele>47.42</ele>
        <time>2019-04-07T07:24:50Z</time>
      </trkpt>
      <trkpt lat="48.75307" lon="2.50551">
        <ele>47.11</ele>
        <time>2019-04-07T07:25:12Z</time>
      </trkpt>
      <trkpt lat="48.75307" lon="2.50549">
        <ele>46.56</ele>
        <time>2019-04-07T07:25:37Z</time>
      </trkpt>
      <trkpt lat="48.75307" lon="2.50549">
        <ele>46.91</ele>
        <time>2019-04-07T07:26:03Z</time>
      </trkpt>
      <trkpt lat="48.75306" lon="2.50547">
        <ele>46.44</ele>
        <time>2019-04-07T07:26:29Z</time>
      </trkpt>
      <trkpt lat="48.75306" lon="2.50545">
        <ele>46.32</ele>
        <time>2019-04-07T07:26:55Z</time>
      </trkpt>
      <trkpt lat="48.75308" lon="2.50543">
        <ele>46.53</ele>
        <time>2019-04-07T07:27:20Z</time>
      </trkpt>
      <trkpt lat="48.75308" lon="2.50543">
        <ele>46.21</ele>
        <time>2019-04-07T07:27:43Z</time>
      </trkpt>
      <trkpt lat="48.75306" lon="2.50546">
        <ele>46.53</ele>
        <time>2019-04-07T07:28:01Z</time>
      </trkpt>
      <trkpt lat="48.75293" lon="2.50543">
        <ele>46.58</ele>
        <time>2019-04-07T07:28:20Z</time>
      </trkpt>
      <trkpt lat="48.75277" lon="2.50546">
        <ele>45.75</ele>
        <time>2019-04-07T07:28:35Z</time>
      </trkpt>
      <trkpt lat="48.75257" lon="2.50546">
        <ele>44.41</ele>
        <time>2019-04-07T07:28:52Z</time>
      </trkpt>
      <trkpt lat="48.75245" lon="2.50541">
        <ele>44.73</ele>
        <time>2019-04-07T07:29:05Z</time>
      </trkpt>
      <trkpt lat="48.75231" lon="2.50556">
        <ele>44.62</ele>
        <time>2019-04-07T07:29:19Z</time>
      </trkpt>
      <trkpt lat="48.7523" lon="2.50557">
        <ele>44.61</ele>
        <time>2019-04-07T07:29:21Z</time>
      </trkpt>
      <trkpt lat="48.75222" lon="2.50565">
        <ele>43.99</ele>
        <time>2019-04-07T07:29:33Z</time>
      </trkpt>
      <trkpt lat="48.75215" lon="2.50575">
        <ele>44.36</ele>
        <time>2019-04-07T07:29:42Z</time>
      </trkpt>
      <trkpt lat="48.75213" lon="2.50582">
        <ele>44.71</ele>
        <time>2019-04-07T07:29:48Z</time>
      </trkpt>
      <trkpt lat="48.75203" lon="2.50601">
        <ele>45.49</ele>
        <time>2019-04-07T07:30:04Z</time>
      </trkpt>
      <trkpt lat="48.75195" lon="2.50622">
        <ele>47.19</ele>
        <time>2019-04-07T07:30:21Z</time>
      </trkpt>
      <trkpt lat="48.75179" lon="2.50646">
        <ele>48.64</ele>
        <time>2019-04-07T07:30:37Z</time>
      </trkpt>
      <trkpt lat="48.75173" lon="2.50654">
        <ele>49.21</ele>
        <time>2019-04-07T07:30:43Z</time>
      </trkpt>
      <trkpt lat="48.75168" lon="2.50662">
        <ele>49.44</ele>
        <time>2019-04-07T07:30:49Z</time>
      </trkpt>
      <trkpt lat="48.75159" lon="2.5067">
        <ele>50.01</ele>
        <time>2019-04-07T07:31:00Z</time>
      </trkpt>
      <trkpt lat="48.75144" lon="2.5068">
        <ele>50.36</ele>
        <time>2019-04-07T07:31:16Z</time>
      </trkpt>
      <trkpt lat="48.7513" lon="2.50689">
        <ele>51.22</ele>
        <time>2019-04-07T07:31:32Z</time>
      </trkpt>
      <trkpt lat="48.75118" lon="2.50698">
        <ele>52.16</ele>
        <time>2019-04-07T07:31:48Z</time>
      </trkpt>
      <trkpt lat="48.75112" lon="2.50702">
        <ele>52.42</ele>
        <time>2019-04-07T07:31:57Z</time>
      </trkpt>
      <trkpt lat="48.75107" lon="2.50703">
        <ele>52.74</ele>
        <time>2019-04-07T07:32:01Z</time>
      </trkpt>
      <trkpt lat="48.75103" lon="2.50705">
        <ele>53.64</ele>
        <time>2019-04-07T07:32:06Z</time>
      </trkpt>
      <trkpt lat="48.7508" lon="2.50728">
        <ele>53.62</ele>
        <time>2019-04-07T07:32:22Z</time>
      </trkpt>
      <trkpt lat="48.75063" lon="2.50742">
        <ele>55.04</ele>
        <time>2019-04-07T07:32:38Z</time>
      </trkpt>
      <trkpt lat="48.75054" lon="2.50749">
        <ele>55.13</ele>
        <time>2019-04-07T07:32:47Z</time>
      </trkpt>
      <trkpt lat="48.75051" lon="2.50749">
        <ele>55.8</ele>
        <time>2019-04-07T07:32:51Z</time>
      </trkpt>
      <trkpt lat="48.75043" lon="2.50756">
        <ele>55.78</ele>
        <time>2019-04-07T07:32:57Z</time>
      </trkpt>
      <trkpt lat="48.75028" lon="2.50766">
        <ele>56.75</ele>
        <time>2019-04-07T07:33:09Z</time>
      </trkpt>
      <trkpt lat="48.75015" lon="2.50773">
        <ele>57.37</ele>
        <time>2019-04-07T07:33:21Z</time>
      </trkpt>
      <trkpt lat="48.75003" lon="2.50779">
        <ele>57.01</ele>
        <time>2019-04-07T07:33:33Z</time>
      </trkpt>
      <trkpt lat="48.7499" lon="2.50789">
        <ele>58.22</ele>
        <time>2019-04-07T07:33:47Z</time>
      </trkpt>
      <trkpt lat="48.74982" lon="2.50797">
        <ele>58.77</ele>
        <time>2019-04-07T07:33:58Z</time>
      </trkpt>
      <trkpt lat="48.74979" lon="2.50799">
        <ele>58.36</ele>
        <time>2019-04-07T07:34:00Z</time>
      </trkpt>
      <trkpt lat="48.74962" lon="2.50811">
        <ele>59.34</ele>
        <time>2019-04-07T07:34:14Z</time>
      </trkpt>
      <trkpt lat="48.7495" lon="2.5082">
        <ele>60.47</ele>
        <time>2019-04-07T07:34:27Z</time>
      </trkpt>
      <trkpt lat="48.74938" lon="2.5082">
        <ele>59.85</ele>
        <time>2019-04-07T07:34:47Z</time>
      </trkpt>
      <trkpt lat="48.74925" lon="2.50834">
        <ele>61.02</ele>
        <time>2019-04-07T07:35:03Z</time>
      </trkpt>
      <trkpt lat="48.74916" lon="2.50843">
        <ele>61.75</ele>
        <time>2019-04-07T07:35:17Z</time>
      </trkpt>
      <trkpt lat="48.74909" lon="2.50848">
        <ele>61.68</ele>
        <time>2019-04-07T07:35:24Z</time>
      </trkpt>
      <trkpt lat="48.74904" lon="2.5085">
        <ele>62.19</ele>
        <time>2019-04-07T07:35:29Z</time>
      </trkpt>
      <trkpt lat="48.74888" lon="2.50862">
        <ele>63.72</ele>
        <time>2019-04-07T07:35:46Z</time>
      </trkpt>
      <trkpt lat="48.74874" lon="2.50871">
        <ele>64.21</ele>
        <time>2019-04-07T07:35:59Z</time>
      </trkpt>
      <trkpt lat="48.74859" lon="2.50881">
        <ele>64.12</ele>
        <time>2019-04-07T07:36:12Z</time>
      </trkpt>
      <trkpt lat="48.74845" lon="2.50888">
        <ele>64.59</ele>
        <time>2019-04-07T07:36:29Z</time>
      </trkpt>
      <trkpt lat="48.74842" lon="2.5089">
        <ele>64.55</ele>
        <time>2019-04-07T07:36:32Z</time>
      </trkpt>
      <trkpt lat="48.74834" lon="2.50896">
        <ele>65.37</ele>
        <time>2019-04-07T07:36:39Z</time>
      </trkpt>
      <trkpt lat="48.7483" lon="2.509">
        <ele>65.68</ele>
        <time>2019-04-07T07:36:43Z</time>
      </trkpt>
      <trkpt lat="48.74812" lon="2.50908">
        <ele>66.3</ele>
        <time>2019-04-07T07:37:00Z</time>
      </trkpt>
      <trkpt lat="48.7481" lon="2.50912">
        <ele>65.96</ele>
        <time>2019-04-07T07:37:08Z</time>
      </trkpt>
      <trkpt lat="48.74803" lon="2.50922">
        <ele>66.49</ele>
        <time>2019-04-07T07:37:22Z</time>
      </trkpt>
      <trkpt lat="48.74796" lon="2.50927">
        <ele>67.24</ele>
        <time>2019-04-07T07:37:30Z</time>
      </trkpt>
      <trkpt lat="48.7479" lon="2.50931">
        <ele>67.01</ele>
        <time>2019-04-07T07:37:37Z</time>
      </trkpt>
      <trkpt lat="48.74782" lon="2.50939">
        <ele>67.5</ele>
        <time>2019-04-07T07:37:45Z</time>
      </trkpt>
      <trkpt lat="48.74775" lon="2.50943">
        <ele>67.55</ele>
        <time>2019-04-07T07:37:51Z</time>
      </trkpt>
      <trkpt lat="48.74763" lon="2.50951">
        <ele>68.34</ele>
        <time>2019-04-07T07:38:03Z</time>
      </trkpt>
      <trkpt lat="48.74759" lon="2.50953">
        <ele>68.29</ele>
        <time>2019-04-07T07:38:07Z</time>
      </trkpt>
      <trkpt lat="48.74744" lon="2.50964">
        <ele>68.94</ele>
        <time>2019-04-07T07:38:21Z</time>
      </trkpt>
      <trkpt lat="48.74729" lon="2.50974">
        <ele>69.93</ele>
        <time>2019-04-07T07:38:34Z</time>
      </trkpt>
      <trkpt lat="48.74728" lon="2.50975">
        <ele>69.63</ele>
        <time>2019-04-07T07:38:35Z</time>
      </trkpt>
      <trkpt lat="48.74713" lon="2.50982">
        <ele>70.8</ele>
        <time>2019-04-07T07:38:50Z</time>
      </trkpt>
      <trkpt lat="48.74697" lon="2.50986">
        <ele>71.65</ele>
        <time>2019-04-07T07:39:09Z</time>
      </trkpt>
      <trkpt lat="48.74694" lon="2.50985">
        <ele>72.01</ele>
        <time>2019-04-07T07:39:12Z</time>
      </trkpt>
      <trkpt lat="48.74679" lon="2.50992">
        <ele>71.79</ele>
        <time>2019-04-07T07:39:26Z</time>
      </trkpt>
      <trkpt lat="48.74678" lon="2.50995">
        <ele>71.38</ele>
        <time>2019-04-07T07:39:44Z</time>
      </trkpt>
      <trkpt lat="48.74677" lon="2.50996">
        <ele>71.61</ele>
        <time>2019-04-07T07:39:45Z</time>
      </trkpt>
      <trkpt lat="48.74675" lon="2.51">
        <ele>70.85</ele>
        <time>2019-04-07T07:39:48Z</time>
      </trkpt>
      <trkpt lat="48.74674" lon="2.51004">
        <ele>71.34</ele>
        <time>2019-04-07T07:39:51Z</time>
      </trkpt>
      <trkpt lat="48.7467" lon="2.51014">
        <ele>71.48</ele>
        <time>2019-04-07T07:40:00Z</time>
      </trkpt>
      <trkpt lat="48.74656" lon="2.51024">
        <ele>72.68</ele>
        <time>2019-04-07T07:40:15Z</time>
      </trkpt>
      <trkpt lat="48.74642" lon="2.51037">
        <ele>73.12</ele>
        <time>2019-04-07T07:40:30Z</time>
      </trkpt>
      <trkpt lat="48.74625" lon="2.51047">
        <ele>73.88</ele>
        <time>2019-04-07T07:40:45Z</time>
      </trkpt>
      <trkpt lat="48.74609" lon="2.51058">
        <ele>74.37</ele>
        <time>2019-04-07T07:40:59Z</time>
      </trkpt>
      <trkpt lat="48.74599" lon="2.51066">
        <ele>74.43</ele>
        <time>2019-04-07T07:41:10Z</time>
      </trkpt>
      <trkpt lat="48.74598" lon="2.51067">
        <ele>74.96</ele>
        <time>2019-04-07T07:41:11Z</time>
      </trkpt>
      <trkpt lat="48.74584" lon="2.51077">
        <ele>75.33</ele>
        <time>2019-04-07T07:41:27Z</time>
      </trkpt>
      <trkpt lat="48.74577" lon="2.51081">
        <ele>75.48</ele>
        <time>2019-04-07T07:41:37Z</time>
      </trkpt>
      <trkpt lat="48.74553" lon="2.51094">
        <ele>76.67</ele>
        <time>2019-04-07T07:41:53Z</time>
      </trkpt>
      <trkpt lat="48.74535" lon="2.51106">
        <ele>76.38</ele>
        <time>2019-04-07T07:42:08Z</time>
      </trkpt>
      <trkpt lat="48.7452" lon="2.51119">
        <ele>76.56</ele>
        <time>2019-04-07T07:42:24Z</time>
      </trkpt>
      <trkpt lat="48.74502" lon="2.51127">
        <ele>76.83</ele>
        <time>2019-04-07T07:42:39Z</time>
      </trkpt>
      <trkpt lat="48.74491" lon="2.51127">
        <ele>77.18</ele>
        <time>2019-04-07T07:42:52Z</time>
      </trkpt>
      <trkpt lat="48.74473" lon="2.51126">
        <ele>76.88</ele>
        <time>2019-04-07T07:43:10Z</time>
      </trkpt>
      <trkpt lat="48.74456" lon="2.5112">
        <ele>77.66</ele>
        <time>2019-04-07T07:43:24Z</time>
      </trkpt>
      <trkpt lat="48.74443" lon="2.51114">
        <ele>78.14</ele>
        <time>2019-04-07T07:43:36Z</time>
      </trkpt>
      <trkpt lat="48.7443" lon="2.511">
        <ele>77.59</ele>
        <time>2019-04-07T07:43:50Z</time>
      </trkpt>
      <trkpt lat="48.74427" lon="2.51105">
        <ele>76.85</ele>
        <time>2019-04-07T07:44:10Z</time>
      </trkpt>
      <trkpt lat="48.74424" lon="2.51108">
        <ele>77.42</ele>
        <time>2019-04-07T07:44:14Z</time>
      </trkpt>
      <trkpt lat="48.7441" lon="2.5112">
        <ele>76.89</ele>
        <time>2019-04-07T07:44:30Z</time>
      </trkpt>
      <trkpt lat="48.74399" lon="2.51116">
        <ele>77.22</ele>
        <time>2019-04-07T07:44:42Z</time>
      </trkpt>
      <trkpt lat="48.74395" lon="2.51112">
        <ele>77.31</ele>
        <time>2019-04-07T07:44:55Z</time>
      </trkpt>
      <trkpt lat="48.74395" lon="2.51112">
        <ele>77.09</ele>
        <time>2019-04-07T07:44:58Z</time>
      </trkpt>
      <trkpt lat="48.74393" lon="2.51107">
        <ele>77.5</ele>
        <time>2019-04-07T07:45:11Z</time>
      </trkpt>
      <trkpt lat="48.74392" lon="2.51111">
        <ele>77.63</ele>
        <time>2019-04-07T07:45:14Z</time>
      </trkpt>
      <trkpt lat="48.74388" lon="2.51115">
        <ele>77.62</ele>
        <time>2019-04-07T07:45:19Z</time>
      </trkpt>
      <trkpt lat="48.74372" lon="2.51111">
        <ele>77.66</ele>
        <time>2019-04-07T07:45:35Z</time>
      </trkpt>
      <trkpt lat="48.74359" lon="2.5111">
        <ele>77.43</ele>
        <time>2019-04-07T07:45:49Z</time>
      </trkpt>
      <trkpt lat="48.74349" lon="2.5111">
        <ele>77.18</ele>
        <time>2019-04-07T07:45:59Z</time>
      </trkpt>
      <trkpt lat="48.74332" lon="2.51108">
        <ele>77.65</ele>
        <time>2019-04-07T07:46:14Z</time>
      </trkpt>
      <trkpt lat="48.74313" lon="2.51107">
        <ele>77.64</ele>
        <time>2019-04-07T07:46:32Z</time>
      </trkpt>
      <trkpt lat="48.74297" lon="2.511">
        <ele>78.07</ele>
        <time>2019-04-07T07:46:46Z</time>
      </trkpt>
      <trkpt lat="48.74292" lon="2.51101">
        <ele>77.89</ele>
        <time>2019-04-07T07:46:51Z</time>
      </trkpt>
      <trkpt lat="48.74276" lon="2.51098">
        <ele>78.01</ele>
        <time>2019-04-07T07:47:05Z</time>
      </trkpt>
      <trkpt lat="48.74259" lon="2.51088">
        <ele>77.82</ele>
        <time>2019-04-07T07:47:19Z</time>
      </trkpt>
      <trkpt lat="48.74255" lon="2.51088">
        <ele>77.41</ele>
        <time>2019-04-07T07:47:35Z</time>
      </trkpt>
      <trkpt lat="48.74236" lon="2.51086">
        <ele>77.35</ele>
        <time>2019-04-07T07:47:53Z</time>
      </trkpt>
      <trkpt lat="48.74212" lon="2.5108">
        <ele>76.64</ele>
        <time>2019-04-07T07:48:14Z</time>
      </trkpt>
      <trkpt lat="48.74202" lon="2.51077">
        <ele>76.88</ele>
        <time>2019-04-07T07:48:22Z</time>
      </trkpt>
      <trkpt lat="48.74192" lon="2.51075">
        <ele>76.44</ele>
        <time>2019-04-07T07:48:32Z</time>
      </trkpt>
      <trkpt lat="48.74179" lon="2.51067">
        <ele>76.78</ele>
        <time>2019-04-07T07:48:46Z</time>
      </trkpt>
      <trkpt lat="48.74168" lon="2.51067">
        <ele>76.36</ele>
        <time>2019-04-07T07:48:55Z</time>
      </trkpt>
      <trkpt lat="48.74145" lon="2.51065">
        <ele>76.74</ele>
        <time>2019-04-07T07:49:13Z</time>
      </trkpt>
      <trkpt lat="48.74138" lon="2.51063">
        <ele>76.14</ele>
        <time>2019-04-07T07:49:29Z</time>
      </trkpt>
      <trkpt lat="48.74128" lon="2.51058">
        <ele>75.99</ele>
        <time>2019-04-07T07:49:47Z</time>
      </trkpt>
      <trkpt lat="48.74121" lon="2.51063">
        <ele>75.87</ele>
        <time>2019-04-07T07:49:56Z</time>
      </trkpt>
      <trkpt lat="48.741" lon="2.51057">
        <ele>75.38</ele>
        <time>2019-04-07T07:50:17Z</time>
      </trkpt>
      <trkpt lat="48.74082" lon="2.51047">
        <ele>75.13</ele>
        <time>2019-04-07T07:50:33Z</time>
      </trkpt>
      <trkpt lat="48.74062" lon="2.51039">
        <ele>75.01</ele>
        <time>2019-04-07T07:50:51Z</time>
      </trkpt>
      <trkpt lat="48.7406" lon="2.51038">
        <ele>74.73</ele>
        <time>2019-04-07T07:50:53Z</time>
      </trkpt>
      <trkpt lat="48.74035" lon="2.51026">
        <ele>75.05</ele>
        <time>2019-04-07T07:51:11Z</time>
      </trkpt>
      <trkpt lat="48.74023" lon="2.5102">
        <ele>74.45</ele>
        <time>2019-04-07T07:51:26Z</time>
      </trkpt>
      <trkpt lat="48.74002" lon="2.51011">
        <ele>75.17</ele>
        <time>2019-04-07T07:51:45Z</time>
      </trkpt>
      <trkpt lat="48.73981" lon="2.51">
        <ele>74.87</ele>
        <time>2019-04-07T07:52:01Z</time>
      </trkpt>
      <trkpt lat="48.7398" lon="2.51">
        <ele>74.7</ele>
        <time>2019-04-07T07:52:02Z</time>
      </trkpt>
      <trkpt lat="48.73964" lon="2.50988">
        <ele>74.29</ele>
        <time>2019-04-07T07:52:18Z</time>
      </trkpt>
      <trkpt lat="48.7394" lon="2.50973">
        <ele>74.44</ele>
        <time>2019-04-07T07:52:37Z</time>
      </trkpt>
      <trkpt lat="48.73917" lon="2.50959">
        <ele>75.15</ele>
        <time>2019-04-07T07:52:56Z</time>
      </trkpt>
      <trkpt lat="48.73898" lon="2.50951">
        <ele>74.15</ele>
        <time>2019-04-07T07:53:14Z</time>
      </trkpt>
      <trkpt lat="48.73884" lon="2.50944">
        <ele>74.11</ele>
        <time>2019-04-07T07:53:27Z</time>
      </trkpt>
      <trkpt lat="48.73863" lon="2.50935">
        <ele>74.76</ele>
        <time>2019-04-07T07:53:45Z</time>
      </trkpt>
      <trkpt lat="48.73862" lon="2.50935">
        <ele>74.5</ele>
        <time>2019-04-07T07:53:46Z</time>
      </trkpt>
      <trkpt lat="48.73845" lon="2.50926">
        <ele>74.33</ele>
        <time>2019-04-07T07:54:01Z</time>
      </trkpt>
      <trkpt lat="48.73831" lon="2.5092">
        <ele>74.88</ele>
        <time>2019-04-07T07:54:15Z</time>
      </trkpt>
      <trkpt lat="48.73812" lon="2.50913">
        <ele>74.7</ele>
        <time>2019-04-07T07:54:31Z</time>
      </trkpt>
      <trkpt lat="48.73802" lon="2.50907">
        <ele>74.37</ele>
        <time>2019-04-07T07:54:48Z</time>
      </trkpt>
      <trkpt lat="48.73794" lon="2.50905">
        <ele>74.51</ele>
        <time>2019-04-07T07:54:56Z</time>
      </trkpt>
      <trkpt lat="48.73779" lon="2.50897">
        <ele>75.11</ele>
        <time>2019-04-07T07:55:12Z</time>
      </trkpt>
      <trkpt lat="48.73767" lon="2.5089">
        <ele>74.73</ele>
        <time>2019-04-07T07:55:34Z</time>
      </trkpt>
      <trkpt lat="48.73748" lon="2.50879">
        <ele>75.54</ele>
        <time>2019-04-07T07:55:51Z</time>
      </trkpt>
      <trkpt lat="48.73728" lon="2.50871">
        <ele>75.67</ele>
        <time>2019-04-07T07:56:09Z</time>
      </trkpt>
      <trkpt lat="48.7371" lon="2.50866">
        <ele>75.74</ele>
        <time>2019-04-07T07:56:23Z</time>
      </trkpt>
      <trkpt lat="48.73705" lon="2.50864">
        <ele>75.54</ele>
        <time>2019-04-07T07:56:27Z</time>
      </trkpt>
      <trkpt lat="48.73697" lon="2.50857">
        <ele>76.17</ele>
        <time>2019-04-07T07:56:44Z</time>
      </trkpt>
      <trkpt lat="48.73697" lon="2.5086">
        <ele>76.74</ele>
        <time>2019-04-07T07:57:08Z</time>
      </trkpt>
      <trkpt lat="48.73695" lon="2.50861">
        <ele>76.52</ele>
        <time>2019-04-07T07:57:32Z</time>
      </trkpt>
      <trkpt lat="48.73697" lon="2.50861">
        <ele>76.64</ele>
        <time>2019-04-07T07:57:58Z</time>
      </trkpt>
      <trkpt lat="48.73697" lon="2.5086">
        <ele>77.1</ele>
        <time>2019-04-07T07:58:19Z</time>
      </trkpt>
      <trkpt lat="48.73696" lon="2.50859">
        <ele>77.15</ele>
        <time>2019-04-07T07:58:41Z</time>
      </trkpt>
      <trkpt lat="48.73694" lon="2.50862">
        <ele>77.27</ele>
        <time>2019-04-07T07:59:10Z</time>
      </trkpt>
      <trkpt lat="48.73695" lon="2.50863">
        <ele>77.89</ele>
        <time>2019-04-07T07:59:41Z</time>
      </trkpt>
      <trkpt lat="48.73697" lon="2.5086">
        <ele>78.28</ele>
        <time>2019-04-07T08:00:16Z</time>
      </trkpt>
      <trkpt lat="48.73695" lon="2.50862">
        <ele>78.59</ele>
        <time>2019-04-07T08:00:39Z</time>
      </trkpt>
      <trkpt lat="48.73696" lon="2.50865">
        <ele>78.68</ele>
        <time>2019-04-07T08:01:03Z</time>
      </trkpt>
      <trkpt lat="48.73695" lon="2.50869">
        <ele>78.82</ele>
        <time>2019-04-07T08:01:29Z</time>
      </trkpt>
      <trkpt lat="48.73697" lon="2.50872">
        <ele>78.96</ele>
        <time>2019-04-07T08:01:57Z</time>
      </trkpt>
      <trkpt lat="48.73695" lon="2.50871">
        <ele>79.4</ele>
        <time>2019-04-07T08:02:22Z</time>
      </trkpt>
      <trkpt lat="48.73693" lon="2.50874">
        <ele>79.37</ele>
        <time>2019-04-07T08:02:46Z</time>
      </trkpt>
      <trkpt lat="48.73684" lon="2.50868">
        <ele>79.21</ele>
        <time>2019-04-07T08:03:01Z</time>
      </trkpt>
      <trkpt lat="48.73674" lon="2.50864">
        <ele>80.4</ele>
        <time>2019-04-07T08:03:15Z</time>
      </trkpt>
      <trkpt lat="48.7366" lon="2.5086">
        <ele>81.17</ele>
        <time>2019-04-07T08:03:34Z</time>
      </trkpt>
      <trkpt lat="48.7364" lon="2.50854">
        <ele>81.51</ele>
        <time>2019-04-07T08:03:55Z</time>
      </trkpt>
      <trkpt lat="48.73621" lon="2.50858">
        <ele>81.56</ele>
        <time>2019-04-07T08:04:14Z</time>
      </trkpt>
      <trkpt lat="48.73602" lon="2.50863">
        <ele>81.47</ele>
        <time>2019-04-07T08:04:34Z</time>
      </trkpt>
      <trkpt lat="48.7359" lon="2.50873">
        <ele>82.39</ele>
        <time>2019-04-07T08:04:47Z</time>
      </trkpt>
      <trkpt lat="48.73572" lon="2.50893">
        <ele>81.8</ele>
        <time>2019-04-07T08:05:03Z</time>
      </trkpt>
      <trkpt lat="48.73554" lon="2.50906">
        <ele>82.49</ele>
        <time>2019-04-07T08:05:21Z</time>
      </trkpt>
      <trkpt lat="48.73534" lon="2.50925">
        <ele>82</ele>
        <time>2019-04-07T08:05:41Z</time>
      </trkpt>
      <trkpt lat="48.73519" lon="2.50932">
        <ele>82.53</ele>
        <time>2019-04-07T08:05:56Z</time>
      </trkpt>
      <trkpt lat="48.73505" lon="2.50951">
        <ele>81.13</ele>
        <time>2019-04-07T08:06:11Z</time>
      </trkpt>
      <trkpt lat="48.73498" lon="2.50958">
        <ele>80.82</ele>
        <time>2019-04-07T08:06:17Z</time>
      </trkpt>
      <trkpt lat="48.73481" lon="2.50973">
        <ele>81.1</ele>
        <time>2019-04-07T08:06:33Z</time>
      </trkpt>
      <trkpt lat="48.73471" lon="2.50991">
        <ele>80.98</ele>
        <time>2019-04-07T08:06:46Z</time>
      </trkpt>
      <trkpt lat="48.73464" lon="2.50999">
        <ele>80.84</ele>
        <time>2019-04-07T08:06:53Z</time>
      </trkpt>
      <trkpt lat="48.73446" lon="2.51015">
        <ele>79.92</ele>
        <time>2019-04-07T08:07:11Z</time>
      </trkpt>
      <trkpt lat="48.73442" lon="2.51019">
        <ele>80.2</ele>
        <time>2019-04-07T08:07:15Z</time>
      </trkpt>
      <trkpt lat="48.73426" lon="2.51035">
        <ele>79.53</ele>
        <time>2019-04-07T08:07:32Z</time>
      </trkpt>
      <trkpt lat="48.73422" lon="2.5104">
        <ele>79.55</ele>
        <time>2019-04-07T08:07:36Z</time>
      </trkpt>
      <trkpt lat="48.73415" lon="2.51048">
        <ele>79.44</ele>
        <time>2019-04-07T08:07:45Z</time>
      </trkpt>
      <trkpt lat="48.73409" lon="2.51053">
        <ele>79.77</ele>
        <time>2019-04-07T08:07:50Z</time>
      </trkpt>
      <trkpt lat="48.7339" lon="2.5107">
        <ele>80.01</ele>
        <time>2019-04-07T08:08:08Z</time>
      </trkpt>
      <trkpt lat="48.73378" lon="2.5108">
        <ele>79.53</ele>
        <time>2019-04-07T08:08:20Z</time>
      </trkpt>
      <trkpt lat="48.73364" lon="2.51097">
        <ele>79.61</ele>
        <time>2019-04-07T08:08:36Z</time>
      </trkpt>
      <trkpt lat="48.73356" lon="2.51114">
        <ele>79.59</ele>
        <time>2019-04-07T08:08:50Z</time>
      </trkpt>
      <trkpt lat="48.73345" lon="2.51131">
        <ele>79.52</ele>
        <time>2019-04-07T08:09:09Z</time>
      </trkpt>
      <trkpt lat="48.7334" lon="2.51138">
        <ele>79.73</ele>
        <time>2019-04-07T08:09:17Z</time>
      </trkpt>
      <trkpt lat="48.73324" lon="2.51155">
        <ele>80.52</ele>
        <time>2019-04-07T08:09:32Z</time>
      </trkpt>
      <trkpt lat="48.73318" lon="2.5118">
        <ele>80.02</ele>
        <time>2019-04-07T08:09:47Z</time>
      </trkpt>
      <trkpt lat="48.73315" lon="2.51202">
        <ele>80</ele>
        <time>2019-04-07T08:10:02Z</time>
      </trkpt>
      <trkpt lat="48.7331" lon="2.51228">
        <ele>80.28</ele>
        <time>2019-04-07T08:10:17Z</time>
      </trkpt>
      <trkpt lat="48.73307" lon="2.51245">
        <ele>79.45</ele>
        <time>2019-04-07T08:10:26Z</time>
      </trkpt>
      <trkpt lat="48.73305" lon="2.51265">
        <ele>79.65</ele>
        <time>2019-04-07T08:10:36Z</time>
      </trkpt>
      <trkpt lat="48.73298" lon="2.51295">
        <ele>79.61</ele>
        <time>2019-04-07T08:10:52Z</time>
      </trkpt>
      <trkpt lat="48.73298" lon="2.51297">
        <ele>80.42</ele>
        <time>2019-04-07T08:10:53Z</time>
      </trkpt>
      <trkpt lat="48.73293" lon="2.51307">
        <ele>80.82</ele>
        <time>2019-04-07T08:11:00Z</time>
      </trkpt>
      <trkpt lat="48.73287" lon="2.51309">
        <ele>80.64</ele>
        <time>2019-04-07T08:11:14Z</time>
      </trkpt>
      <trkpt lat="48.73285" lon="2.51314">
        <ele>80.53</ele>
        <time>2019-04-07T08:11:34Z</time>
      </trkpt>
      <trkpt lat="48.73285" lon="2.51315">
        <ele>80.75</ele>
        <time>2019-04-07T08:11:35Z</time>
      </trkpt>
      <trkpt lat="48.73279" lon="2.51317">
        <ele>80.3</ele>
        <time>2019-04-07T08:11:44Z</time>
      </trkpt>
      <trkpt lat="48.73273" lon="2.51319">
        <ele>80.69</ele>
        <time>2019-04-07T08:11:58Z</time>
      </trkpt>
      <trkpt lat="48.73272" lon="2.51321">
        <ele>80.08</ele>
        <time>2019-04-07T08:12:22Z</time>
      </trkpt>
      <trkpt lat="48.73273" lon="2.51318">
        <ele>80.72</ele>
        <time>2019-04-07T08:12:49Z</time>
      </trkpt>
      <trkpt lat="48.73273" lon="2.51323">
        <ele>81.14</ele>
        <time>2019-04-07T08:12:57Z</time>
      </trkpt>
      <trkpt lat="48.73271" lon="2.51328">
        <ele>81.03</ele>
        <time>2019-04-07T08:13:00Z</time>
      </trkpt>
      <trkpt lat="48.73273" lon="2.51335">
        <ele>81.24</ele>
        <time>2019-04-07T08:13:04Z</time>
      </trkpt>
      <trkpt lat="48.73264" lon="2.5135">
        <ele>80.99</ele>
        <time>2019-04-07T08:13:17Z</time>
      </trkpt>
      <trkpt lat="48.73257" lon="2.5137">
        <ele>81.35</ele>
        <time>2019-04-07T08:13:33Z</time>
      </trkpt>
      <trkpt lat="48.7325" lon="2.51398">
        <ele>80.71</ele>
        <time>2019-04-07T08:13:50Z</time>
      </trkpt>
      <trkpt lat="48.73248" lon="2.51406">
        <ele>80.97</ele>
        <time>2019-04-07T08:13:56Z</time>
      </trkpt>
      <trkpt lat="48.73247" lon="2.51413">
        <ele>80.64</ele>
        <time>2019-04-07T08:14:01Z</time>
      </trkpt>
      <trkpt lat="48.73239" lon="2.51437">
        <ele>80.61</ele>
        <time>2019-04-07T08:14:17Z</time>
      </trkpt>
      <trkpt lat="48.73234" lon="2.51452">
        <ele>81.13</ele>
        <time>2019-04-07T08:14:27Z</time>
      </trkpt>
      <trkpt lat="48.73224" lon="2.51485">
        <ele>81.39</ele>
        <time>2019-04-07T08:14:47Z</time>
      </trkpt>
      <trkpt lat="48.73217" lon="2.51511">
        <ele>80.81</ele>
        <time>2019-04-07T08:15:03Z</time>
      </trkpt>
      <trkpt lat="48.73211" lon="2.5153">
        <ele>80.92</ele>
        <time>2019-04-07T08:15:17Z</time>
      </trkpt>
      <trkpt lat="48.73201" lon="2.51555">
        <ele>80.43</ele>
        <time>2019-04-07T08:15:36Z</time>
      </trkpt>
      <trkpt lat="48.73194" lon="2.5158">
        <ele>80.82</ele>
        <time>2019-04-07T08:15:51Z</time>
      </trkpt>
      <trkpt lat="48.73183" lon="2.51607">
        <ele>80.68</ele>
        <time>2019-04-07T08:16:08Z</time>
      </trkpt>
      <trkpt lat="48.7318" lon="2.51612">
        <ele>80.85</ele>
        <time>2019-04-07T08:16:12Z</time>
      </trkpt>
      <trkpt lat="48.73173" lon="2.51632">
        <ele>80.93</ele>
        <time>2019-04-07T08:16:24Z</time>
      </trkpt>
      <trkpt lat="48.73173" lon="2.51637">
        <ele>80.98</ele>
        <time>2019-04-07T08:16:27Z</time>
      </trkpt>
      <trkpt lat="48.73168" lon="2.51645">
        <ele>80.49</ele>
        <time>2019-04-07T08:16:33Z</time>
      </trkpt>
      <trkpt lat="48.73165" lon="2.51652">
        <ele>80.5</ele>
        <time>2019-04-07T08:16:37Z</time>
      </trkpt>
      <trkpt lat="48.7316" lon="2.51666">
        <ele>80.57</ele>
        <time>2019-04-07T08:16:46Z</time>
      </trkpt>
      <trkpt lat="48.7315" lon="2.51689">
        <ele>80.41</ele>
        <time>2019-04-07T08:17:02Z</time>
      </trkpt>
      <trkpt lat="48.73143" lon="2.51706">
        <ele>80.41</ele>
        <time>2019-04-07T08:17:13Z</time>
      </trkpt>
      <trkpt lat="48.73136" lon="2.51724">
        <ele>79.88</ele>
        <time>2019-04-07T08:17:25Z</time>
      </trkpt>
      <trkpt lat="48.73129" lon="2.51743">
        <ele>80.69</ele>
        <time>2019-04-07T08:17:39Z</time>
      </trkpt>
      <trkpt lat="48.73121" lon="2.51763">
        <ele>79.65</ele>
        <time>2019-04-07T08:17:53Z</time>
      </trkpt>
      <trkpt lat="48.73109" lon="2.51787">
        <ele>79.44</ele>
        <time>2019-04-07T08:18:10Z</time>
      </trkpt>
      <trkpt lat="48.73095" lon="2.5182">
        <ele>79.76</ele>
        <time>2019-04-07T08:18:29Z</time>
      </trkpt>
      <trkpt lat="48.73086" lon="2.51842">
        <ele>79.88</ele>
        <time>2019-04-07T08:18:45Z</time>
      </trkpt>
      <trkpt lat="48.73074" lon="2.51861">
        <ele>79.39</ele>
        <time>2019-04-07T08:19:01Z</time>
      </trkpt>
      <trkpt lat="48.7307" lon="2.51875">
        <ele>79.5</ele>
        <time>2019-04-07T08:19:10Z</time>
      </trkpt>
      <trkpt lat="48.73069" lon="2.51878">
        <ele>79.42</ele>
        <time>2019-04-07T08:19:13Z</time>
      </trkpt>
      <trkpt lat="48.7306" lon="2.51894">
        <ele>79.48</ele>
        <time>2019-04-07T08:19:26Z</time>
      </trkpt>
      <trkpt lat="48.7305" lon="2.51919">
        <ele>79.23</ele>
        <time>2019-04-07T08:19:42Z</time>
      </trkpt>
      <trkpt lat="48.73039" lon="2.51949">
        <ele>79.62</ele>
        <time>2019-04-07T08:20:02Z</time>
      </trkpt>
      <trkpt lat="48.73024" lon="2.51978">
        <ele>79.92</ele>
        <time>2019-04-07T08:20:20Z</time>
      </trkpt>
      <trkpt lat="48.73014" lon="2.52006">
        <ele>80.12</ele>
        <time>2019-04-07T08:20:37Z</time>
      </trkpt>
      <trkpt lat="48.73002" lon="2.52033">
        <ele>80.61</ele>
        <time>2019-04-07T08:20:54Z</time>
      </trkpt>
      <trkpt lat="48.72993" lon="2.5205">
        <ele>80.5</ele>
        <time>2019-04-07T08:21:06Z</time>
      </trkpt>
      <trkpt lat="48.72983" lon="2.52063">
        <ele>79.96</ele>
        <time>2019-04-07T08:21:19Z</time>
      </trkpt>
      <trkpt lat="48.72975" lon="2.52057">
        <ele>80.37</ele>
        <time>2019-04-07T08:21:36Z</time>
      </trkpt>
      <trkpt lat="48.72962" lon="2.52042">
        <ele>81.52</ele>
        <time>2019-04-07T08:21:56Z</time>
      </trkpt>
      <trkpt lat="48.72961" lon="2.52041">
        <ele>81.09</ele>
        <time>2019-04-07T08:21:57Z</time>
      </trkpt>
      <trkpt lat="48.72959" lon="2.52032">
        <ele>81.63</ele>
        <time>2019-04-07T08:22:25Z</time>
      </trkpt>
      <trkpt lat="48.72956" lon="2.52032">
        <ele>81.98</ele>
        <time>2019-04-07T08:22:53Z</time>
      </trkpt>
      <trkpt lat="48.7296" lon="2.52024">
        <ele>81.96</ele>
        <time>2019-04-07T08:23:10Z</time>
      </trkpt>
      <trkpt lat="48.72964" lon="2.52021">
        <ele>81.57</ele>
        <time>2019-04-07T08:23:33Z</time>
      </trkpt>
      <trkpt lat="48.72967" lon="2.52027">
        <ele>82.29</ele>
        <time>2019-04-07T08:24:05Z</time>
      </trkpt>
      <trkpt lat="48.72968" lon="2.52028">
        <ele>81.93</ele>
        <time>2019-04-07T08:24:20Z</time>
      </trkpt>
      <trkpt lat="48.72968" lon="2.5203">
        <ele>82.09</ele>
        <time>2019-04-07T08:24:54Z</time>
      </trkpt>
      <trkpt lat="48.72968" lon="2.52029">
        <ele>82.18</ele>
        <time>2019-04-07T08:25:24Z</time>
      </trkpt>
      <trkpt lat="48.72966" lon="2.52027">
        <ele>82.23</ele>
        <time>2019-04-07T08:25:50Z</time>
      </trkpt>
      <trkpt lat="48.72963" lon="2.52021">
        <ele>82.7</ele>
        <time>2019-04-07T08:26:21Z</time>
      </trkpt>
      <trkpt lat="48.72964" lon="2.52025">
        <ele>82.75</ele>
        <time>2019-04-07T08:26:50Z</time>
      </trkpt>
      <trkpt lat="48.72966" lon="2.52016">
        <ele>82.83</ele>
        <time>2019-04-07T08:27:12Z</time>
      </trkpt>
      <trkpt lat="48.72969" lon="2.52013">
        <ele>83.15</ele>
        <time>2019-04-07T08:27:18Z</time>
      </trkpt>
      <trkpt lat="48.72978" lon="2.52007">
        <ele>83.26</ele>
        <time>2019-04-07T08:27:42Z</time>
      </trkpt>
      <trkpt lat="48.72971" lon="2.51999">
        <ele>84.03</ele>
        <time>2019-04-07T08:28:04Z</time>
      </trkpt>
      <trkpt lat="48.72956" lon="2.51985">
        <ele>83.79</ele>
        <time>2019-04-07T08:28:20Z</time>
      </trkpt>
      <trkpt lat="48.72942" lon="2.51966">
        <ele>84.11</ele>
        <time>2019-04-07T08:28:38Z</time>
      </trkpt>
      <trkpt lat="48.72931" lon="2.51947">
        <ele>85.33</ele>
        <time>2019-04-07T08:28:52Z</time>
      </trkpt>
      <trkpt lat="48.72914" lon="2.51928">
        <ele>85.03</ele>
        <time>2019-04-07T08:29:08Z</time>
      </trkpt>
      <trkpt lat="48.72901" lon="2.51907">
        <ele>85.98</ele>
        <time>2019-04-07T08:29:22Z</time>
      </trkpt>
      <trkpt lat="48.72887" lon="2.51895">
        <ele>86.62</ele>
        <time>2019-04-07T08:29:44Z</time>
      </trkpt>
      <trkpt lat="48.72878" lon="2.51885">
        <ele>86.53</ele>
        <time>2019-04-07T08:29:55Z</time>
      </trkpt>
      <trkpt lat="48.72868" lon="2.51871">
        <ele>87.47</ele>
        <time>2019-04-07T08:30:10Z</time>
      </trkpt>
      <trkpt lat="48.72848" lon="2.51849">
        <ele>88.5</ele>
        <time>2019-04-07T08:30:32Z</time>
      </trkpt>
      <trkpt lat="48.72832" lon="2.51828">
        <ele>89.66</ele>
        <time>2019-04-07T08:30:52Z</time>
      </trkpt>
      <trkpt lat="48.72817" lon="2.51808">
        <ele>90.98</ele>
        <time>2019-04-07T08:31:08Z</time>
      </trkpt>
      <trkpt lat="48.72809" lon="2.51799">
        <ele>91.67</ele>
        <time>2019-04-07T08:31:17Z</time>
      </trkpt>
      <trkpt lat="48.72802" lon="2.5179">
        <ele>91.62</ele>
        <time>2019-04-07T08:31:24Z</time>
      </trkpt>
      <trkpt lat="48.72793" lon="2.51779">
        <ele>92.58</ele>
        <time>2019-04-07T08:31:38Z</time>
      </trkpt>
      <trkpt lat="48.72776" lon="2.51756">
        <ele>94.34</ele>
        <time>2019-04-07T08:31:58Z</time>
      </trkpt>
      <trkpt lat="48.72759" lon="2.51731">
        <ele>94.82</ele>
        <time>2019-04-07T08:32:15Z</time>
      </trkpt>
      <trkpt lat="48.72744" lon="2.51711">
        <ele>95.42</ele>
        <time>2019-04-07T08:32:33Z</time>
      </trkpt>
      <trkpt lat="48.72727" lon="2.51691">
        <ele>95.8</ele>
        <time>2019-04-07T08:32:51Z</time>
      </trkpt>
      <trkpt lat="48.72709" lon="2.5167">
        <ele>96.44</ele>
        <time>2019-04-07T08:33:08Z</time>
      </trkpt>
      <trkpt lat="48.7269" lon="2.51643">
        <ele>96.84</ele>
        <time>2019-04-07T08:33:29Z</time>
      </trkpt>
      <trkpt lat="48.72683" lon="2.51649">
        <ele>97.13</ele>
        <time>2019-04-07T08:33:45Z</time>
      </trkpt>
      <trkpt lat="48.72684" lon="2.51653">
        <ele>96.8</ele>
        <time>2019-04-07T08:34:13Z</time>
      </trkpt>
      <trkpt lat="48.72686" lon="2.51649">
        <ele>97.21</ele>
        <time>2019-04-07T08:34:51Z</time>
      </trkpt>
      <trkpt lat="48.72679" lon="2.51657">
        <ele>97.09</ele>
        <time>2019-04-07T08:35:10Z</time>
      </trkpt>
      <trkpt lat="48.7266" lon="2.51673">
        <ele>98.18</ele>
        <time>2019-04-07T08:35:29Z</time>
      </trkpt>
      <trkpt lat="48.72642" lon="2.51681">
        <ele>98.6</ele>
        <time>2019-04-07T08:35:51Z</time>
      </trkpt>
      <trkpt lat="48.72621" lon="2.51672">
        <ele>98.91</ele>
        <time>2019-04-07T08:36:12Z</time>
      </trkpt>
      <trkpt lat="48.72607" lon="2.51656">
        <ele>98.89</ele>
        <time>2019-04-07T08:36:30Z</time>
      </trkpt>
      <trkpt lat="48.72605" lon="2.51648">
        <ele>98.31</ele>
        <time>2019-04-07T08:36:35Z</time>
      </trkpt>
      <trkpt lat="48.726" lon="2.51624">
        <ele>98.54</ele>
        <time>2019-04-07T08:36:45Z</time>
      </trkpt>
      <trkpt lat="48.72588" lon="2.51615">
        <ele>97.72</ele>
        <time>2019-04-07T08:37:01Z</time>
      </trkpt>
      <trkpt lat="48.72584" lon="2.51615">
        <ele>98.2</ele>
        <time>2019-04-07T08:37:04Z</time>
      </trkpt>
      <trkpt lat="48.72575" lon="2.51615">
        <ele>98.06</ele>
        <time>2019-04-07T08:37:12Z</time>
      </trkpt>
      <trkpt lat="48.72556" lon="2.51614">
        <ele>98.1</ele>
        <time>2019-04-07T08:37:29Z</time>
      </trkpt>
      <trkpt lat="48.72538" lon="2.51618">
        <ele>98.82</ele>
        <time>2019-04-07T08:37:43Z</time>
      </trkpt>
      <trkpt lat="48.72522" lon="2.51619">
        <ele>98.08</ele>
        <time>2019-04-07T08:37:59Z</time>
      </trkpt>
      <trkpt lat="48.72499" lon="2.51624">
        <ele>97.67</ele>
        <time>2019-04-07T08:38:20Z</time>
      </trkpt>
      <trkpt lat="48.72479" lon="2.51629">
        <ele>97.09</ele>
        <time>2019-04-07T08:38:37Z</time>
      </trkpt>
      <trkpt lat="48.72464" lon="2.51632">
        <ele>97.14</ele>
        <time>2019-04-07T08:38:52Z</time>
      </trkpt>
      <trkpt lat="48.72443" lon="2.51635">
        <ele>95.49</ele>
        <time>2019-04-07T08:39:12Z</time>
      </trkpt>
      <trkpt lat="48.72417" lon="2.51642">
        <ele>93.72</ele>
        <time>2019-04-07T08:39:36Z</time>
      </trkpt>
      <trkpt lat="48.72393" lon="2.51646">
        <ele>91.59</ele>
        <time>2019-04-07T08:39:56Z</time>
      </trkpt>
      <trkpt lat="48.72384" lon="2.51647">
        <ele>90.93</ele>
        <time>2019-04-07T08:40:03Z</time>
      </trkpt>
      <trkpt lat="48.72374" lon="2.51648">
        <ele>90.4</ele>
        <time>2019-04-07T08:40:11Z</time>
      </trkpt>
      <trkpt lat="48.72353" lon="2.51649">
        <ele>88.46</ele>
        <time>2019-04-07T08:40:29Z</time>
      </trkpt>
      <trkpt lat="48.72338" lon="2.51651">
        <ele>88.08</ele>
        <time>2019-04-07T08:40:49Z</time>
      </trkpt>
      <trkpt lat="48.72312" lon="2.51651">
        <ele>86.87</ele>
        <time>2019-04-07T08:41:10Z</time>
      </trkpt>
      <trkpt lat="48.72287" lon="2.51657">
        <ele>86.14</ele>
        <time>2019-04-07T08:41:32Z</time>
      </trkpt>
      <trkpt lat="48.72266" lon="2.51662">
        <ele>84.56</ele>
        <time>2019-04-07T08:41:49Z</time>
      </trkpt>
      <trkpt lat="48.7226" lon="2.5166">
        <ele>84.97</ele>
        <time>2019-04-07T08:41:54Z</time>
      </trkpt>
      <trkpt lat="48.72246" lon="2.51664">
        <ele>84.11</ele>
        <time>2019-04-07T08:42:09Z</time>
      </trkpt>
      <trkpt lat="48.72222" lon="2.51669">
        <ele>83.26</ele>
        <time>2019-04-07T08:42:28Z</time>
      </trkpt>
      <trkpt lat="48.72204" lon="2.5167">
        <ele>82.22</ele>
        <time>2019-04-07T08:42:48Z</time>
      </trkpt>
      <trkpt lat="48.72185" lon="2.51675">
        <ele>81.72</ele>
        <time>2019-04-07T08:43:04Z</time>
      </trkpt>
      <trkpt lat="48.7217" lon="2.51677">
        <ele>80.44</ele>
        <time>2019-04-07T08:43:20Z</time>
      </trkpt>
      <trkpt lat="48.72155" lon="2.51681">
        <ele>79.66</ele>
        <time>2019-04-07T08:43:36Z</time>
      </trkpt>
      <trkpt lat="48.72136" lon="2.51686">
        <ele>78.73</ele>
        <time>2019-04-07T08:43:54Z</time>
      </trkpt>
      <trkpt lat="48.72117" lon="2.51689">
        <ele>78.46</ele>
        <time>2019-04-07T08:44:09Z</time>
      </trkpt>
      <trkpt lat="48.72099" lon="2.51689">
        <ele>77.95</ele>
        <time>2019-04-07T08:44:23Z</time>
      </trkpt>
      <trkpt lat="48.72074" lon="2.51693">
        <ele>77.29</ele>
        <time>2019-04-07T08:44:41Z</time>
      </trkpt>
      <trkpt lat="48.72054" lon="2.51699">
        <ele>76.54</ele>
        <time>2019-04-07T08:44:57Z</time>
      </trkpt>
      <trkpt lat="48.72046" lon="2.517">
        <ele>77.11</ele>
        <time>2019-04-07T08:45:04Z</time>
      </trkpt>
      <trkpt lat="48.7203" lon="2.51703">
        <ele>76.53</ele>
        <time>2019-04-07T08:45:17Z</time>
      </trkpt>
      <trkpt lat="48.72013" lon="2.51705">
        <ele>76.46</ele>
        <time>2019-04-07T08:45:30Z</time>
      </trkpt>
      <trkpt lat="48.72004" lon="2.51706">
        <ele>76.47</ele>
        <time>2019-04-07T08:45:38Z</time>
      </trkpt>
      <trkpt lat="48.71995" lon="2.51712">
        <ele>76.12</ele>
        <time>2019-04-07T08:45:48Z</time>
      </trkpt>
      <trkpt lat="48.71974" lon="2.51715">
        <ele>75.59</ele>
        <time>2019-04-07T08:46:06Z</time>
      </trkpt>
      <trkpt lat="48.71963" lon="2.51718">
        <ele>75.53</ele>
        <time>2019-04-07T08:46:16Z</time>
      </trkpt>
      <trkpt lat="48.71956" lon="2.5172">
        <ele>75.73</ele>
        <time>2019-04-07T08:46:22Z</time>
      </trkpt>
      <trkpt lat="48.71939" lon="2.51723">
        <ele>74.72</ele>
        <time>2019-04-07T08:46:37Z</time>
      </trkpt>
      <trkpt lat="48.71925" lon="2.51726">
        <ele>75.03</ele>
        <time>2019-04-07T08:46:49Z</time>
      </trkpt>
      <trkpt lat="48.7192" lon="2.51725">
        <ele>75.15</ele>
        <time>2019-04-07T08:46:53Z</time>
      </trkpt>
      <trkpt lat="48.71908" lon="2.51727">
        <ele>74.48</ele>
        <time>2019-04-07T08:47:04Z</time>
      </trkpt>
      <trkpt lat="48.71903" lon="2.51727">
        <ele>73.61</ele>
        <time>2019-04-07T08:47:08Z</time>
      </trkpt>
      <trkpt lat="48.71898" lon="2.51728">
        <ele>74.3</ele>
        <time>2019-04-07T08:47:12Z</time>
      </trkpt>
      <trkpt lat="48.71882" lon="2.51733">
        <ele>74.11</ele>
        <time>2019-04-07T08:47:26Z</time>
      </trkpt>
      <trkpt lat="48.71861" lon="2.51731">
        <ele>73.93</ele>
        <time>2019-04-07T08:47:48Z</time>
      </trkpt>
      <trkpt lat="48.71856" lon="2.51735">
        <ele>73.59</ele>
        <time>2019-04-07T08:48:17Z</time>
      </trkpt>
      <trkpt lat="48.71851" lon="2.51734">
        <ele>73.71</ele>
        <time>2019-04-07T08:48:27Z</time>
      </trkpt>
      <trkpt lat="48.71842" lon="2.51741">
        <ele>73.02</ele>
        <time>2019-04-07T08:48:43Z</time>
      </trkpt>
      <trkpt lat="48.71832" lon="2.51741">
        <ele>73.49</ele>
        <time>2019-04-07T08:48:53Z</time>
      </trkpt>
      <trkpt lat="48.71816" lon="2.51743">
        <ele>72.68</ele>
        <time>2019-04-07T08:49:10Z</time>
      </trkpt>
      <trkpt lat="48.71794" lon="2.51744">
        <ele>71.87</ele>
        <time>2019-04-07T08:49:29Z</time>
      </trkpt>
      <trkpt lat="48.7178" lon="2.51748">
        <ele>71.84</ele>
        <time>2019-04-07T08:49:43Z</time>
      </trkpt>
      <trkpt lat="48.71762" lon="2.5175">
        <ele>71.14</ele>
        <time>2019-04-07T08:50:01Z</time>
      </trkpt>
      <trkpt lat="48.71759" lon="2.51751">
        <ele>70.63</ele>
        <time>2019-04-07T08:50:03Z</time>
      </trkpt>
      <trkpt lat="48.7174" lon="2.51753">
        <ele>69.74</ele>
        <time>2019-04-07T08:50:20Z</time>
      </trkpt>
      <trkpt lat="48.7172" lon="2.51757">
        <ele>69.61</ele>
        <time>2019-04-07T08:50:40Z</time>
      </trkpt>
      <trkpt lat="48.71706" lon="2.51776">
        <ele>68.74</ele>
        <time>2019-04-07T08:50:59Z</time>
      </trkpt>
      <trkpt lat="48.71704" lon="2.51795">
        <ele>68.16</ele>
        <time>2019-04-07T08:51:20Z</time>
      </trkpt>
      <trkpt lat="48.71712" lon="2.51828">
        <ele>69.37</ele>
        <time>2019-04-07T08:51:41Z</time>
      </trkpt>
      <trkpt lat="48.71717" lon="2.51849">
        <ele>69.24</ele>
        <time>2019-04-07T08:51:55Z</time>
      </trkpt>
      <trkpt lat="48.71722" lon="2.51873">
        <ele>69.69</ele>
        <time>2019-04-07T08:52:12Z</time>
      </trkpt>
      <trkpt lat="48.71732" lon="2.51896">
        <ele>70.47</ele>
        <time>2019-04-07T08:52:30Z</time>
      </trkpt>
      <trkpt lat="48.71739" lon="2.51933">
        <ele>70.67</ele>
        <time>2019-04-07T08:52:49Z</time>
      </trkpt>
      <trkpt lat="48.71744" lon="2.51965">
        <ele>69.76</ele>
        <time>2019-04-07T08:53:09Z</time>
      </trkpt>
      <trkpt lat="48.71749" lon="2.52003">
        <ele>69.76</ele>
        <time>2019-04-07T08:53:31Z</time>
      </trkpt>
      <trkpt lat="48.71757" lon="2.52032">
        <ele>69.76</ele>
        <time>2019-04-07T08:53:53Z</time>
      </trkpt>
      <trkpt lat="48.71758" lon="2.52068">
        <ele>68.29</ele>
        <time>2019-04-07T08:54:12Z</time>
      </trkpt>
      <trkpt lat="48.71753" lon="2.52076">
        <ele>67.09</ele>
        <time>2019-04-07T08:54:19Z</time>
      </trkpt>
      <trkpt lat="48.71751" lon="2.52078">
        <ele>67.96</ele>
        <time>2019-04-07T08:54:38Z</time>
      </trkpt>
      <trkpt lat="48.71751" lon="2.52079">
        <ele>67.34</ele>
        <time>2019-04-07T08:55:02Z</time>
      </trkpt>
      <trkpt lat="48.71749" lon="2.52082">
        <ele>67.29</ele>
        <time>2019-04-07T08:55:28Z</time>
      </trkpt>
      <trkpt lat="48.71749" lon="2.5208">
        <ele>67.92</ele>
        <time>2019-04-07T08:55:54Z</time>
      </trkpt>
      <trkpt lat="48.71749" lon="2.52081">
        <ele>67.43</ele>
        <time>2019-04-07T08:56:20Z</time>
      </trkpt>
      <trkpt lat="48.71748" lon="2.52083">
        <ele>67.76</ele>
        <time>2019-04-07T08:56:47Z</time>
      </trkpt>
      <trkpt lat="48.71747" lon="2.52084">
        <ele>67.88</ele>
        <time>2019-04-07T08:57:09Z</time>
      </trkpt>
      <trkpt lat="48.71746" lon="2.52084">
        <ele>68.07</ele>
        <time>2019-04-07T08:57:36Z</time>
      </trkpt>
      <trkpt lat="48.71741" lon="2.52088">
        <ele>67.33</ele>
        <time>2019-04-07T08:57:54Z</time>
      </trkpt>
      <trkpt lat="48.71728" lon="2.52099">
        <ele>67.15</ele>
        <time>2019-04-07T08:58:17Z</time>
      </trkpt>
      <trkpt lat="48.7171" lon="2.52109">
        <ele>66.38</ele>
        <time>2019-04-07T08:58:39Z</time>
      </trkpt>
      <trkpt lat="48.71684" lon="2.52113">
        <ele>64.55</ele>
        <time>2019-04-07T08:59:01Z</time>
      </trkpt>
      <trkpt lat="48.71662" lon="2.5212">
        <ele>62.7</ele>
        <time>2019-04-07T08:59:19Z</time>
      </trkpt>
      <trkpt lat="48.71646" lon="2.52118">
        <ele>60.23</ele>
        <time>2019-04-07T08:59:41Z</time>
      </trkpt>
      <trkpt lat="48.71629" lon="2.52124">
        <ele>57.35</ele>
        <time>2019-04-07T09:00:02Z</time>
      </trkpt>
      <trkpt lat="48.71611" lon="2.52129">
        <ele>54.4</ele>
        <time>2019-04-07T09:00:22Z</time>
      </trkpt>
      <trkpt lat="48.71589" lon="2.52137">
        <ele>51.86</ele>
        <time>2019-04-07T09:00:45Z</time>
      </trkpt>
      <trkpt lat="48.71573" lon="2.52146">
        <ele>49.01</ele>
        <time>2019-04-07T09:01:06Z</time>
      </trkpt>
      <trkpt lat="48.71555" lon="2.52145">
        <ele>47.34</ele>
        <time>2019-04-07T09:01:24Z</time>
      </trkpt>
      <trkpt lat="48.71532" lon="2.52146">
        <ele>43.76</ele>
        <time>2019-04-07T09:01:47Z</time>
      </trkpt>
      <trkpt lat="48.71516" lon="2.52148">
        <ele>41.26</ele>
        <time>2019-04-07T09:02:06Z</time>
      </trkpt>
      <trkpt lat="48.71498" lon="2.52144">
        <ele>39.09</ele>
        <time>2019-04-07T09:02:26Z</time>
      </trkpt>
      <trkpt lat="48.7149" lon="2.52141">
        <ele>38.39</ele>
        <time>2019-04-07T09:02:46Z</time>
      </trkpt>
      <trkpt lat="48.71476" lon="2.52141">
        <ele>36.49</ele>
        <time>2019-04-07T09:03:07Z</time>
      </trkpt>
      <trkpt lat="48.71461" lon="2.52147">
        <ele>34.07</ele>
        <time>2019-04-07T09:03:30Z</time>
      </trkpt>
      <trkpt lat="48.71455" lon="2.52146">
        <ele>34.94</ele>
        <time>2019-04-07T09:03:58Z</time>
      </trkpt>
      <trkpt lat="48.71452" lon="2.52143">
        <ele>34.41</ele>
        <time>2019-04-07T09:04:24Z</time>
      </trkpt>
      <trkpt lat="48.71444" lon="2.52145">
        <ele>33.83</ele>
        <time>2019-04-07T09:04:43Z</time>
      </trkpt>
      <trkpt lat="48.71434" lon="2.52148">
        <ele>34.07</ele>
        <time>2019-04-07T09:05:01Z</time>
      </trkpt>
      <trkpt lat="48.71433" lon="2.52155">
        <ele>33.79</ele>
        <time>2019-04-07T09:05:22Z</time>
      </trkpt>
      <trkpt lat="48.71432" lon="2.5216">
        <ele>34.22</ele>
        <time>2019-04-07T09:05:39Z</time>
      </trkpt>
      <trkpt lat="48.7143" lon="2.52161">
        <ele>34.04</ele>
        <time>2019-04-07T09:06:03Z</time>
      </trkpt>
      <trkpt lat="48.71429" lon="2.52167">
        <ele>34.25</ele>
        <time>2019-04-07T09:06:25Z</time>
      </trkpt>
      <trkpt lat="48.71432" lon="2.52163">
        <ele>34.37</ele>
        <time>2019-04-07T09:06:43Z</time>
      </trkpt>
      <trkpt lat="48.71434" lon="2.52168">
        <ele>34.03</ele>
        <time>2019-04-07T09:06:55Z</time>
      </trkpt>
      <trkpt lat="48.71427" lon="2.52189">
        <ele>34.54</ele>
        <time>2019-04-07T09:07:12Z</time>
      </trkpt>
      <trkpt lat="48.71422" lon="2.52198">
        <ele>34.28</ele>
        <time>2019-04-07T09:07:30Z</time>
      </trkpt>
      <trkpt lat="48.71413" lon="2.52214">
        <ele>34.79</ele>
        <time>2019-04-07T09:07:45Z</time>
      </trkpt>
      <trkpt lat="48.71409" lon="2.52232">
        <ele>34.67</ele>
        <time>2019-04-07T09:08:02Z</time>
      </trkpt>
      <trkpt lat="48.71403" lon="2.52251">
        <ele>34.98</ele>
        <time>2019-04-07T09:08:14Z</time>
      </trkpt>
      <trkpt lat="48.71401" lon="2.52255">
        <ele>34.14</ele>
        <time>2019-04-07T09:08:17Z</time>
      </trkpt>
      <trkpt lat="48.71398" lon="2.52262">
        <ele>34.64</ele>
        <time>2019-04-07T09:08:21Z</time>
      </trkpt>
      <trkpt lat="48.71393" lon="2.52272">
        <ele>34.39</ele>
        <time>2019-04-07T09:08:27Z</time>
      </trkpt>
      <trkpt lat="48.7139" lon="2.52281">
        <ele>34.99</ele>
        <time>2019-04-07T09:08:44Z</time>
      </trkpt>
      <trkpt lat="48.71386" lon="2.523">
        <ele>34.64</ele>
        <time>2019-04-07T09:08:58Z</time>
      </trkpt>
      <trkpt lat="48.71385" lon="2.52304">
        <ele>35.08</ele>
        <time>2019-04-07T09:09:01Z</time>
      </trkpt>
      <trkpt lat="48.71382" lon="2.52309">
        <ele>35.1</ele>
        <time>2019-04-07T09:09:05Z</time>
      </trkpt>
      <trkpt lat="48.7138" lon="2.52318">
        <ele>34.52</ele>
        <time>2019-04-07T09:09:11Z</time>
      </trkpt>
      <trkpt lat="48.71379" lon="2.52322">
        <ele>35.03</ele>
        <time>2019-04-07T09:09:13Z</time>
      </trkpt>
      <trkpt lat="48.71369" lon="2.52349">
        <ele>35.43</ele>
        <time>2019-04-07T09:09:30Z</time>
      </trkpt>
      <trkpt lat="48.7136" lon="2.52368">
        <ele>35.27</ele>
        <time>2019-04-07T09:09:41Z</time>
      </trkpt>
      <trkpt lat="48.71358" lon="2.52372">
        <ele>35.48</ele>
        <time>2019-04-07T09:09:43Z</time>
      </trkpt>
      <trkpt lat="48.71357" lon="2.52375">
        <ele>35.61</ele>
        <time>2019-04-07T09:09:45Z</time>
      </trkpt>
      <trkpt lat="48.71352" lon="2.52382">
        <ele>34.87</ele>
        <time>2019-04-07T09:09:50Z</time>
      </trkpt>
      <trkpt lat="48.71348" lon="2.52388">
        <ele>35.31</ele>
        <time>2019-04-07T09:09:55Z</time>
      </trkpt>
      <trkpt lat="48.71346" lon="2.52395">
        <ele>35.49</ele>
        <time>2019-04-07T09:09:59Z</time>
      </trkpt>
      <trkpt lat="48.71341" lon="2.52406">
        <ele>35.36</ele>
        <time>2019-04-07T09:10:12Z</time>
      </trkpt>
      <trkpt lat="48.71339" lon="2.5241">
        <ele>35.59</ele>
        <time>2019-04-07T09:10:15Z</time>
      </trkpt>
      <trkpt lat="48.71337" lon="2.52417">
        <ele>36.04</ele>
        <time>2019-04-07T09:10:19Z</time>
      </trkpt>
      <trkpt lat="48.71334" lon="2.52431">
        <ele>36.28</ele>
        <time>2019-04-07T09:10:29Z</time>
      </trkpt>
      <trkpt lat="48.71334" lon="2.52448">
        <ele>35.73</ele>
        <time>2019-04-07T09:10:40Z</time>
      </trkpt>
      <trkpt lat="48.71339" lon="2.52476">
        <ele>35.85</ele>
        <time>2019-04-07T09:10:56Z</time>
      </trkpt>
      <trkpt lat="48.71344" lon="2.52504">
        <ele>36.21</ele>
        <time>2019-04-07T09:11:13Z</time>
      </trkpt>
      <trkpt lat="48.71346" lon="2.52513">
        <ele>36.06</ele>
        <time>2019-04-07T09:11:17Z</time>
      </trkpt>
      <trkpt lat="48.71348" lon="2.52522">
        <ele>36.79</ele>
        <time>2019-04-07T09:11:23Z</time>
      </trkpt>
      <trkpt lat="48.71356" lon="2.5254">
        <ele>36.25</ele>
        <time>2019-04-07T09:11:35Z</time>
      </trkpt>
      <trkpt lat="48.71362" lon="2.5255">
        <ele>36.34</ele>
        <time>2019-04-07T09:11:43Z</time>
      </trkpt>
      <trkpt lat="48.71363" lon="2.52553">
        <ele>36.84</ele>
        <time>2019-04-07T09:11:45Z</time>
      </trkpt>
      <trkpt lat="48.71375" lon="2.52577">
        <ele>36.29</ele>
        <time>2019-04-07T09:12:01Z</time>
      </trkpt>
      <trkpt lat="48.71382" lon="2.52587">
        <ele>36.96</ele>
        <time>2019-04-07T09:12:09Z</time>
      </trkpt>
      <trkpt lat="48.71396" lon="2.52606">
        <ele>36.95</ele>
        <time>2019-04-07T09:12:25Z</time>
      </trkpt>
      <trkpt lat="48.71407" lon="2.5262">
        <ele>37.07</ele>
        <time>2019-04-07T09:12:38Z</time>
      </trkpt>
      <trkpt lat="48.71414" lon="2.52631">
        <ele>37.87</ele>
        <time>2019-04-07T09:12:55Z</time>
      </trkpt>
      <trkpt lat="48.71417" lon="2.52642">
        <ele>37.45</ele>
        <time>2019-04-07T09:13:08Z</time>
      </trkpt>
      <trkpt lat="48.71421" lon="2.52653">
        <ele>37.88</ele>
        <time>2019-04-07T09:13:16Z</time>
      </trkpt>
      <trkpt lat="48.71421" lon="2.52693">
        <ele>39.31</ele>
        <time>2019-04-07T09:13:37Z</time>
      </trkpt>
      <trkpt lat="48.71424" lon="2.52716">
        <ele>40.71</ele>
        <time>2019-04-07T09:13:55Z</time>
      </trkpt>
      <trkpt lat="48.71422" lon="2.52721">
        <ele>40.26</ele>
        <time>2019-04-07T09:14:12Z</time>
      </trkpt>
      <trkpt lat="48.71422" lon="2.52719">
        <ele>40.39</ele>
        <time>2019-04-07T09:14:40Z</time>
      </trkpt>
      <trkpt lat="48.71421" lon="2.52727">
        <ele>40.72</ele>
        <time>2019-04-07T09:14:58Z</time>
      </trkpt>
      <trkpt lat="48.71414" lon="2.52734">
        <ele>40.75</ele>
        <time>2019-04-07T09:15:09Z</time>
      </trkpt>
      <trkpt lat="48.71399" lon="2.52742">
        <ele>41.23</ele>
        <time>2019-04-07T09:15:25Z</time>
      </trkpt>
      <trkpt lat="48.71399" lon="2.52746">
        <ele>40.72</ele>
        <time>2019-04-07T09:15:29Z</time>
      </trkpt>
      <trkpt lat="48.71397" lon="2.52772">
        <ele>41</ele>
        <time>2019-04-07T09:15:46Z</time>
      </trkpt>
      <trkpt lat="48.71395" lon="2.52798">
        <ele>40.85</ele>
        <time>2019-04-07T09:16:01Z</time>
      </trkpt>
      <trkpt lat="48.71399" lon="2.52825">
        <ele>38.98</ele>
        <time>2019-04-07T09:16:17Z</time>
      </trkpt>
      <trkpt lat="48.71406" lon="2.52846">
        <ele>38.95</ele>
        <time>2019-04-07T09:16:32Z</time>
      </trkpt>
      <trkpt lat="48.7141" lon="2.52862">
        <ele>38.88</ele>
        <time>2019-04-07T09:16:44Z</time>
      </trkpt>
      <trkpt lat="48.71418" lon="2.52895">
        <ele>39.15</ele>
        <time>2019-04-07T09:17:02Z</time>
      </trkpt>
      <trkpt lat="48.7142" lon="2.52902">
        <ele>38.94</ele>
        <time>2019-04-07T09:17:05Z</time>
      </trkpt>
      <trkpt lat="48.71428" lon="2.52926">
        <ele>38.18</ele>
        <time>2019-04-07T09:17:18Z</time>
      </trkpt>
      <trkpt lat="48.71435" lon="2.52946">
        <ele>38.9</ele>
        <time>2019-04-07T09:17:29Z</time>
      </trkpt>
      <trkpt lat="48.71453" lon="2.52979">
        <ele>38.57</ele>
        <time>2019-04-07T09:17:53Z</time>
      </trkpt>
      <trkpt lat="48.71466" lon="2.53012">
        <ele>39</ele>
        <time>2019-04-07T09:18:14Z</time>
      </trkpt>
      <trkpt lat="48.71478" lon="2.53037">
        <ele>38.93</ele>
        <time>2019-04-07T09:18:31Z</time>
      </trkpt>
      <trkpt lat="48.71487" lon="2.5306">
        <ele>39.99</ele>
        <time>2019-04-07T09:18:47Z</time>
      </trkpt>
      <trkpt lat="48.71497" lon="2.53076">
        <ele>39.87</ele>
        <time>2019-04-07T09:19:02Z</time>
      </trkpt>
      <trkpt lat="48.71501" lon="2.53082">
        <ele>39.8</ele>
        <time>2019-04-07T09:19:06Z</time>
      </trkpt>
      <trkpt lat="48.71514" lon="2.53096">
        <ele>39.73</ele>
        <time>2019-04-07T09:19:21Z</time>
      </trkpt>
      <trkpt lat="48.71525" lon="2.53114">
        <ele>39.74</ele>
        <time>2019-04-07T09:19:35Z</time>
      </trkpt>
      <trkpt lat="48.71532" lon="2.53126">
        <ele>39.57</ele>
        <time>2019-04-07T09:19:44Z</time>
      </trkpt>
      <trkpt lat="48.71537" lon="2.53136">
        <ele>39.43</ele>
        <time>2019-04-07T09:19:51Z</time>
      </trkpt>
      <trkpt lat="48.71542" lon="2.53155">
        <ele>40.07</ele>
        <time>2019-04-07T09:20:03Z</time>
      </trkpt>
      <trkpt lat="48.71546" lon="2.53172">
        <ele>39.38</ele>
        <time>2019-04-07T09:20:13Z</time>
      </trkpt>
      <trkpt lat="48.71547" lon="2.53182">
        <ele>39.57</ele>
        <time>2019-04-07T09:20:17Z</time>
      </trkpt>
      <trkpt lat="48.71553" lon="2.53204">
        <ele>39.55</ele>
        <time>2019-04-07T09:20:31Z</time>
      </trkpt>
      <trkpt lat="48.7156" lon="2.53228">
        <ele>40.21</ele>
        <time>2019-04-07T09:20:48Z</time>
      </trkpt>
      <trkpt lat="48.7157" lon="2.53249">
        <ele>39.37</ele>
        <time>2019-04-07T09:21:04Z</time>
      </trkpt>
      <trkpt lat="48.7158" lon="2.53283">
        <ele>39.88</ele>
        <time>2019-04-07T09:21:23Z</time>
      </trkpt>
      <trkpt lat="48.71585" lon="2.53298">
        <ele>39.3</ele>
        <time>2019-04-07T09:21:32Z</time>
      </trkpt>
      <trkpt lat="48.71593" lon="2.53317">
        <ele>39.05</ele>
        <time>2019-04-07T09:21:45Z</time>
      </trkpt>
      <trkpt lat="48.716" lon="2.53329">
        <ele>39.13</ele>
        <time>2019-04-07T09:21:58Z</time>
      </trkpt>
      <trkpt lat="48.71602" lon="2.53332">
        <ele>39.06</ele>
        <time>2019-04-07T09:22:00Z</time>
      </trkpt>
      <trkpt lat="48.71603" lon="2.53335">
        <ele>39.14</ele>
        <time>2019-04-07T09:22:02Z</time>
      </trkpt>
      <trkpt lat="48.71608" lon="2.53345">
        <ele>39.95</ele>
        <time>2019-04-07T09:22:10Z</time>
      </trkpt>
      <trkpt lat="48.71613" lon="2.53351">
        <ele>39.51</ele>
        <time>2019-04-07T09:22:15Z</time>
      </trkpt>
      <trkpt lat="48.71625" lon="2.53368">
        <ele>39.19</ele>
        <time>2019-04-07T09:22:29Z</time>
      </trkpt>
      <trkpt lat="48.71631" lon="2.53395">
        <ele>39.14</ele>
        <time>2019-04-07T09:22:42Z</time>
      </trkpt>
      <trkpt lat="48.7164" lon="2.5342">
        <ele>39.17</ele>
        <time>2019-04-07T09:22:59Z</time>
      </trkpt>
      <trkpt lat="48.71644" lon="2.53427">
        <ele>38.62</ele>
        <time>2019-04-07T09:23:04Z</time>
      </trkpt>
      <trkpt lat="48.71654" lon="2.53455">
        <ele>39.33</ele>
        <time>2019-04-07T09:23:21Z</time>
      </trkpt>
      <trkpt lat="48.71657" lon="2.53462">
        <ele>39.36</ele>
        <time>2019-04-07T09:23:26Z</time>
      </trkpt>
      <trkpt lat="48.71664" lon="2.53484">
        <ele>39.02</ele>
        <time>2019-04-07T09:23:41Z</time>
      </trkpt>
      <trkpt lat="48.71668" lon="2.53502">
        <ele>39.52</ele>
        <time>2019-04-07T09:23:55Z</time>
      </trkpt>
      <trkpt lat="48.71669" lon="2.5352">
        <ele>39.33</ele>
        <time>2019-04-07T09:24:06Z</time>
      </trkpt>
      <trkpt lat="48.71671" lon="2.53542">
        <ele>38.99</ele>
        <time>2019-04-07T09:24:19Z</time>
      </trkpt>
      <trkpt lat="48.71672" lon="2.53544">
        <ele>39.34</ele>
        <time>2019-04-07T09:24:20Z</time>
      </trkpt>
      <trkpt lat="48.71673" lon="2.5356">
        <ele>38.98</ele>
        <time>2019-04-07T09:24:30Z</time>
      </trkpt>
      <trkpt lat="48.71672" lon="2.53582">
        <ele>39.32</ele>
        <time>2019-04-07T09:24:42Z</time>
      </trkpt>
      <trkpt lat="48.71672" lon="2.53589">
        <ele>39.25</ele>
        <time>2019-04-07T09:24:48Z</time>
      </trkpt>
      <trkpt lat="48.71671" lon="2.53592">
        <ele>39.25</ele>
        <time>2019-04-07T09:24:50Z</time>
      </trkpt>
      <trkpt lat="48.71668" lon="2.53605">
        <ele>39.85</ele>
        <time>2019-04-07T09:25:00Z</time>
      </trkpt>
      <trkpt lat="48.71662" lon="2.53628">
        <ele>41.06</ele>
        <time>2019-04-07T09:25:17Z</time>
      </trkpt>
      <trkpt lat="48.71661" lon="2.53637">
        <ele>41.71</ele>
        <time>2019-04-07T09:25:22Z</time>
      </trkpt>
      <trkpt lat="48.71672" lon="2.53665">
        <ele>41.67</ele>
        <time>2019-04-07T09:25:40Z</time>
      </trkpt>
      <trkpt lat="48.71674" lon="2.53668">
        <ele>41.68</ele>
        <time>2019-04-07T09:25:42Z</time>
      </trkpt>
      <trkpt lat="48.71679" lon="2.53681">
        <ele>42.59</ele>
        <time>2019-04-07T09:25:51Z</time>
      </trkpt>
      <trkpt lat="48.71677" lon="2.53694">
        <ele>43.88</ele>
        <time>2019-04-07T09:26:07Z</time>
      </trkpt>
      <trkpt lat="48.71679" lon="2.53705">
        <ele>43.47</ele>
        <time>2019-04-07T09:26:26Z</time>
      </trkpt>
      <trkpt lat="48.71682" lon="2.53708">
        <ele>43.76</ele>
        <time>2019-04-07T09:26:45Z</time>
      </trkpt>
      <trkpt lat="48.71683" lon="2.53708">
        <ele>43.94</ele>
        <time>2019-04-07T09:27:13Z</time>
      </trkpt>
      <trkpt lat="48.71684" lon="2.53711">
        <ele>43.88</ele>
        <time>2019-04-07T09:27:37Z</time>
      </trkpt>
      <trkpt lat="48.71688" lon="2.53735">
        <ele>41.84</ele>
        <time>2019-04-07T09:27:53Z</time>
      </trkpt>
      <trkpt lat="48.71691" lon="2.53757">
        <ele>41.51</ele>
        <time>2019-04-07T09:28:08Z</time>
      </trkpt>
      <trkpt lat="48.71693" lon="2.53761">
        <ele>41.56</ele>
        <time>2019-04-07T09:28:11Z</time>
      </trkpt>
      <trkpt lat="48.71701" lon="2.53786">
        <ele>41.15</ele>
        <time>2019-04-07T09:28:25Z</time>
      </trkpt>
      <trkpt lat="48.71706" lon="2.53801">
        <ele>41.02</ele>
        <time>2019-04-07T09:28:38Z</time>
      </trkpt>
      <trkpt lat="48.71715" lon="2.53819">
        <ele>41.1</ele>
        <time>2019-04-07T09:28:54Z</time>
      </trkpt>
      <trkpt lat="48.71728" lon="2.53838">
        <ele>41.06</ele>
        <time>2019-04-07T09:29:09Z</time>
      </trkpt>
      <trkpt lat="48.71742" lon="2.53857">
        <ele>41.2</ele>
        <time>2019-04-07T09:29:25Z</time>
      </trkpt>
      <trkpt lat="48.71755" lon="2.53876">
        <ele>41.07</ele>
        <time>2019-04-07T09:29:40Z</time>
      </trkpt>
      <trkpt lat="48.71768" lon="2.53897">
        <ele>41.92</ele>
        <time>2019-04-07T09:29:57Z</time>
      </trkpt>
      <trkpt lat="48.71776" lon="2.5391">
        <ele>42.17</ele>
        <time>2019-04-07T09:30:05Z</time>
      </trkpt>
      <trkpt lat="48.7179" lon="2.53931">
        <ele>41.67</ele>
        <time>2019-04-07T09:30:22Z</time>
      </trkpt>
      <trkpt lat="48.71804" lon="2.5395">
        <ele>41.64</ele>
        <time>2019-04-07T09:30:38Z</time>
      </trkpt>
      <trkpt lat="48.71817" lon="2.53966">
        <ele>42.44</ele>
        <time>2019-04-07T09:30:53Z</time>
      </trkpt>
      <trkpt lat="48.71829" lon="2.53983">
        <ele>42.42</ele>
        <time>2019-04-07T09:31:10Z</time>
      </trkpt>
      <trkpt lat="48.71834" lon="2.5399">
        <ele>42.39</ele>
        <time>2019-04-07T09:31:20Z</time>
      </trkpt>
      <trkpt lat="48.71835" lon="2.53997">
        <ele>42.49</ele>
        <time>2019-04-07T09:31:23Z</time>
      </trkpt>
      <trkpt lat="48.71832" lon="2.53994">
        <ele>42.35</ele>
        <time>2019-04-07T09:31:39Z</time>
      </trkpt>
      <trkpt lat="48.71829" lon="2.53994">
        <ele>42.54</ele>
        <time>2019-04-07T09:32:03Z</time>
      </trkpt>
      <trkpt lat="48.71827" lon="2.53995">
        <ele>42.56</ele>
        <time>2019-04-07T09:32:26Z</time>
      </trkpt>
      <trkpt lat="48.71829" lon="2.54002">
        <ele>42.66</ele>
        <time>2019-04-07T09:32:49Z</time>
      </trkpt>
      <trkpt lat="48.71832" lon="2.54006">
        <ele>42.56</ele>
        <time>2019-04-07T09:32:58Z</time>
      </trkpt>
      <trkpt lat="48.71842" lon="2.54021">
        <ele>42.02</ele>
        <time>2019-04-07T09:33:13Z</time>
      </trkpt>
      <trkpt lat="48.71844" lon="2.54022">
        <ele>42.2</ele>
        <time>2019-04-07T09:33:15Z</time>
      </trkpt>
      <trkpt lat="48.71857" lon="2.54034">
        <ele>42.75</ele>
        <time>2019-04-07T09:33:28Z</time>
      </trkpt>
      <trkpt lat="48.71872" lon="2.5405">
        <ele>42.55</ele>
        <time>2019-04-07T09:33:43Z</time>
      </trkpt>
      <trkpt lat="48.71881" lon="2.54064">
        <ele>42.72</ele>
        <time>2019-04-07T09:33:55Z</time>
      </trkpt>
      <trkpt lat="48.71883" lon="2.54066">
        <ele>42.96</ele>
        <time>2019-04-07T09:33:57Z</time>
      </trkpt>
      <trkpt lat="48.71891" lon="2.54083">
        <ele>42.92</ele>
        <time>2019-04-07T09:34:11Z</time>
      </trkpt>
      <trkpt lat="48.71899" lon="2.54113">
        <ele>42.6</ele>
        <time>2019-04-07T09:34:28Z</time>
      </trkpt>
      <trkpt lat="48.719" lon="2.54115">
        <ele>42.59</ele>
        <time>2019-04-07T09:34:29Z</time>
      </trkpt>
      <trkpt lat="48.71907" lon="2.54137">
        <ele>42.43</ele>
        <time>2019-04-07T09:34:44Z</time>
      </trkpt>
      <trkpt lat="48.7191" lon="2.54145">
        <ele>42.75</ele>
        <time>2019-04-07T09:34:49Z</time>
      </trkpt>
      <trkpt lat="48.71919" lon="2.54166">
        <ele>43.27</ele>
        <time>2019-04-07T09:35:05Z</time>
      </trkpt>
      <trkpt lat="48.71927" lon="2.54191">
        <ele>43.06</ele>
        <time>2019-04-07T09:35:26Z</time>
      </trkpt>
      <trkpt lat="48.71939" lon="2.54217">
        <ele>43.63</ele>
        <time>2019-04-07T09:35:44Z</time>
      </trkpt>
      <trkpt lat="48.71952" lon="2.54246">
        <ele>44.07</ele>
        <time>2019-04-07T09:36:03Z</time>
      </trkpt>
      <trkpt lat="48.71959" lon="2.54265">
        <ele>43.54</ele>
        <time>2019-04-07T09:36:20Z</time>
      </trkpt>
      <trkpt lat="48.71965" lon="2.54283">
        <ele>43.48</ele>
        <time>2019-04-07T09:36:35Z</time>
      </trkpt>
      <trkpt lat="48.71968" lon="2.54288">
        <ele>43.67</ele>
        <time>2019-04-07T09:36:55Z</time>
      </trkpt>
      <trkpt lat="48.71969" lon="2.54291">
        <ele>43.56</ele>
        <time>2019-04-07T09:37:18Z</time>
      </trkpt>
      <trkpt lat="48.71974" lon="2.54292">
        <ele>43.59</ele>
        <time>2019-04-07T09:37:42Z</time>
      </trkpt>
      <trkpt lat="48.71975" lon="2.5429">
        <ele>43.98</ele>
        <time>2019-04-07T09:38:04Z</time>
      </trkpt>
      <trkpt lat="48.71973" lon="2.54289">
        <ele>44.1</ele>
        <time>2019-04-07T09:38:29Z</time>
      </trkpt>
      <trkpt lat="48.71971" lon="2.54292">
        <ele>44.11</ele>
        <time>2019-04-07T09:38:56Z</time>
      </trkpt>
      <trkpt lat="48.71977" lon="2.54293">
        <ele>44.12</ele>
        <time>2019-04-07T09:39:11Z</time>
      </trkpt>
      <trkpt lat="48.71987" lon="2.54293">
        <ele>44.68</ele>
        <time>2019-04-07T09:39:20Z</time>
      </trkpt>
      <trkpt lat="48.72012" lon="2.5432">
        <ele>44.12</ele>
        <time>2019-04-07T09:39:44Z</time>
      </trkpt>
      <trkpt lat="48.7203" lon="2.54333">
        <ele>45.4</ele>
        <time>2019-04-07T09:40:03Z</time>
      </trkpt>
      <trkpt lat="48.72033" lon="2.54334">
        <ele>45.66</ele>
        <time>2019-04-07T09:40:19Z</time>
      </trkpt>
      <trkpt lat="48.72037" lon="2.54336">
        <ele>45.26</ele>
        <time>2019-04-07T09:40:25Z</time>
      </trkpt>
      <trkpt lat="48.72042" lon="2.54337">
        <ele>45.87</ele>
        <time>2019-04-07T09:40:29Z</time>
      </trkpt>
      <trkpt lat="48.72044" lon="2.54333">
        <ele>45.2</ele>
        <time>2019-04-07T09:40:33Z</time>
      </trkpt>
      <trkpt lat="48.72047" lon="2.54327">
        <ele>45.22</ele>
        <time>2019-04-07T09:40:37Z</time>
      </trkpt>
      <trkpt lat="48.72048" lon="2.54318">
        <ele>45.94</ele>
        <time>2019-04-07T09:40:47Z</time>
      </trkpt>
      <trkpt lat="48.72049" lon="2.54317">
        <ele>45.84</ele>
        <time>2019-04-07T09:40:49Z</time>
      </trkpt>
      <trkpt lat="48.72055" lon="2.543">
        <ele>46.79</ele>
        <time>2019-04-07T09:41:02Z</time>
      </trkpt>
      <trkpt lat="48.72062" lon="2.54289">
        <ele>47.05</ele>
        <time>2019-04-07T09:41:18Z</time>
      </trkpt>
      <trkpt lat="48.72068" lon="2.54289">
        <ele>45.85</ele>
        <time>2019-04-07T09:41:35Z</time>
      </trkpt>
      <trkpt lat="48.72083" lon="2.54288">
        <ele>45.56</ele>
        <time>2019-04-07T09:41:54Z</time>
      </trkpt>
      <trkpt lat="48.72103" lon="2.54294">
        <ele>45.71</ele>
        <time>2019-04-07T09:42:12Z</time>
      </trkpt>
      <trkpt lat="48.72126" lon="2.54304">
        <ele>45.15</ele>
        <time>2019-04-07T09:42:33Z</time>
      </trkpt>
      <trkpt lat="48.72146" lon="2.5431">
        <ele>45.02</ele>
        <time>2019-04-07T09:42:50Z</time>
      </trkpt>
      <trkpt lat="48.72168" lon="2.54315">
        <ele>44.81</ele>
        <time>2019-04-07T09:43:06Z</time>
      </trkpt>
      <trkpt lat="48.72185" lon="2.54321">
        <ele>44.73</ele>
        <time>2019-04-07T09:43:21Z</time>
      </trkpt>
      <trkpt lat="48.72198" lon="2.54329">
        <ele>44.14</ele>
        <time>2019-04-07T09:43:36Z</time>
      </trkpt>
      <trkpt lat="48.72205" lon="2.54333">
        <ele>43.7</ele>
        <time>2019-04-07T09:43:44Z</time>
      </trkpt>
      <trkpt lat="48.72223" lon="2.54338">
        <ele>44.13</ele>
        <time>2019-04-07T09:44:00Z</time>
      </trkpt>
      <trkpt lat="48.72227" lon="2.5434">
        <ele>44.14</ele>
        <time>2019-04-07T09:44:03Z</time>
      </trkpt>
      <trkpt lat="48.72236" lon="2.54342">
        <ele>44.54</ele>
        <time>2019-04-07T09:44:21Z</time>
      </trkpt>
      <trkpt lat="48.72238" lon="2.54345">
        <ele>44.19</ele>
        <time>2019-04-07T09:44:35Z</time>
      </trkpt>
      <trkpt lat="48.7224" lon="2.54349">
        <ele>44.31</ele>
        <time>2019-04-07T09:44:54Z</time>
      </trkpt>
      <trkpt lat="48.72239" lon="2.5437">
        <ele>45.24</ele>
        <time>2019-04-07T09:45:16Z</time>
      </trkpt>
      <trkpt lat="48.72243" lon="2.54396">
        <ele>44.45</ele>
        <time>2019-04-07T09:45:36Z</time>
      </trkpt>
      <trkpt lat="48.72243" lon="2.54422">
        <ele>44.43</ele>
        <time>2019-04-07T09:45:54Z</time>
      </trkpt>
      <trkpt lat="48.7224" lon="2.54459">
        <ele>43.83</ele>
        <time>2019-04-07T09:46:15Z</time>
      </trkpt>
      <trkpt lat="48.72241" lon="2.54477">
        <ele>44.1</ele>
        <time>2019-04-07T09:46:34Z</time>
      </trkpt>
      <trkpt lat="48.72242" lon="2.54496">
        <ele>45.02</ele>
        <time>2019-04-07T09:46:55Z</time>
      </trkpt>
      <trkpt lat="48.72241" lon="2.54522">
        <ele>46.19</ele>
        <time>2019-04-07T09:47:15Z</time>
      </trkpt>
      <trkpt lat="48.7223" lon="2.54552">
        <ele>48.6</ele>
        <time>2019-04-07T09:47:35Z</time>
      </trkpt>
      <trkpt lat="48.72228" lon="2.54581">
        <ele>50.12</ele>
        <time>2019-04-07T09:47:54Z</time>
      </trkpt>
      <trkpt lat="48.72229" lon="2.54608">
        <ele>52.26</ele>
        <time>2019-04-07T09:48:12Z</time>
      </trkpt>
      <trkpt lat="48.72225" lon="2.54632">
        <ele>54.78</ele>
        <time>2019-04-07T09:48:31Z</time>
      </trkpt>
      <trkpt lat="48.72219" lon="2.5466">
        <ele>56.53</ele>
        <time>2019-04-07T09:48:52Z</time>
      </trkpt>
      <trkpt lat="48.72214" lon="2.5469">
        <ele>58.21</ele>
        <time>2019-04-07T09:49:11Z</time>
      </trkpt>
      <trkpt lat="48.7221" lon="2.54716">
        <ele>59.73</ele>
        <time>2019-04-07T09:49:30Z</time>
      </trkpt>
      <trkpt lat="48.72203" lon="2.54726">
        <ele>59.21</ele>
        <time>2019-04-07T09:49:45Z</time>
      </trkpt>
      <trkpt lat="48.72191" lon="2.54733">
        <ele>60.15</ele>
        <time>2019-04-07T09:50:05Z</time>
      </trkpt>
      <trkpt lat="48.72181" lon="2.54741">
        <ele>60.27</ele>
        <time>2019-04-07T09:50:18Z</time>
      </trkpt>
      <trkpt lat="48.72166" lon="2.54743">
        <ele>60.76</ele>
        <time>2019-04-07T09:50:36Z</time>
      </trkpt>
      <trkpt lat="48.72147" lon="2.54749">
        <ele>61.92</ele>
        <time>2019-04-07T09:50:56Z</time>
      </trkpt>
      <trkpt lat="48.72132" lon="2.54754">
        <ele>62.65</ele>
        <time>2019-04-07T09:51:08Z</time>
      </trkpt>
      <trkpt lat="48.72113" lon="2.5476">
        <ele>63.7</ele>
        <time>2019-04-07T09:51:27Z</time>
      </trkpt>
      <trkpt lat="48.72093" lon="2.54762">
        <ele>64.15</ele>
        <time>2019-04-07T09:51:45Z</time>
      </trkpt>
      <trkpt lat="48.72078" lon="2.54762">
        <ele>64.14</ele>
        <time>2019-04-07T09:52:00Z</time>
      </trkpt>
      <trkpt lat="48.72066" lon="2.54766">
        <ele>64.04</ele>
        <time>2019-04-07T09:52:19Z</time>
      </trkpt>
      <trkpt lat="48.72049" lon="2.54769">
        <ele>63.87</ele>
        <time>2019-04-07T09:52:39Z</time>
      </trkpt>
      <trkpt lat="48.72031" lon="2.54773">
        <ele>63.8</ele>
        <time>2019-04-07T09:52:56Z</time>
      </trkpt>
      <trkpt lat="48.72007" lon="2.54776">
        <ele>63.8</ele>
        <time>2019-04-07T09:53:17Z</time>
      </trkpt>
      <trkpt lat="48.71987" lon="2.54778">
        <ele>63.02</ele>
        <time>2019-04-07T09:53:33Z</time>
      </trkpt>
      <trkpt lat="48.71969" lon="2.54778">
        <ele>62.05</ele>
        <time>2019-04-07T09:53:47Z</time>
      </trkpt>
      <trkpt lat="48.7195" lon="2.54784">
        <ele>61.17</ele>
        <time>2019-04-07T09:54:05Z</time>
      </trkpt>
      <trkpt lat="48.71929" lon="2.54786">
        <ele>59.9</ele>
        <time>2019-04-07T09:54:21Z</time>
      </trkpt>
      <trkpt lat="48.71909" lon="2.54784">
        <ele>59.34</ele>
        <time>2019-04-07T09:54:39Z</time>
      </trkpt>
      <trkpt lat="48.71887" lon="2.54784">
        <ele>58.93</ele>
        <time>2019-04-07T09:54:57Z</time>
      </trkpt>
      <trkpt lat="48.71881" lon="2.54784">
        <ele>58.41</ele>
        <time>2019-04-07T09:55:11Z</time>
      </trkpt>
      <trkpt lat="48.71866" lon="2.54785">
        <ele>57.76</ele>
        <time>2019-04-07T09:55:27Z</time>
      </trkpt>
      <trkpt lat="48.71852" lon="2.54785">
        <ele>57.48</ele>
        <time>2019-04-07T09:55:48Z</time>
      </trkpt>
      <trkpt lat="48.71837" lon="2.54784">
        <ele>57.82</ele>
        <time>2019-04-07T09:56:08Z</time>
      </trkpt>
      <trkpt lat="48.71817" lon="2.54774">
        <ele>57.22</ele>
        <time>2019-04-07T09:56:27Z</time>
      </trkpt>
      <trkpt lat="48.71812" lon="2.54768">
        <ele>56.71</ele>
        <time>2019-04-07T09:56:31Z</time>
      </trkpt>
      <trkpt lat="48.71804" lon="2.5476">
        <ele>56.69</ele>
        <time>2019-04-07T09:56:38Z</time>
      </trkpt>
      <trkpt lat="48.71798" lon="2.54756">
        <ele>57.15</ele>
        <time>2019-04-07T09:56:44Z</time>
      </trkpt>
      <trkpt lat="48.71793" lon="2.54751">
        <ele>56.98</ele>
        <time>2019-04-07T09:56:49Z</time>
      </trkpt>
      <trkpt lat="48.71781" lon="2.54734">
        <ele>56.59</ele>
        <time>2019-04-07T09:57:06Z</time>
      </trkpt>
      <trkpt lat="48.71776" lon="2.54738">
        <ele>56.22</ele>
        <time>2019-04-07T09:57:25Z</time>
      </trkpt>
      <trkpt lat="48.71775" lon="2.54764">
        <ele>56.48</ele>
        <time>2019-04-07T09:57:46Z</time>
      </trkpt>
      <trkpt lat="48.71766" lon="2.5477">
        <ele>56.71</ele>
        <time>2019-04-07T09:58:05Z</time>
      </trkpt>
      <trkpt lat="48.71757" lon="2.5477">
        <ele>56.68</ele>
        <time>2019-04-07T09:58:13Z</time>
      </trkpt>
      <trkpt lat="48.71739" lon="2.54772">
        <ele>56.98</ele>
        <time>2019-04-07T09:58:28Z</time>
      </trkpt>
      <trkpt lat="48.7172" lon="2.54788">
        <ele>56.72</ele>
        <time>2019-04-07T09:58:49Z</time>
      </trkpt>
      <trkpt lat="48.71707" lon="2.54787">
        <ele>57.32</ele>
        <time>2019-04-07T09:59:01Z</time>
      </trkpt>
      <trkpt lat="48.71704" lon="2.54787">
        <ele>57.63</ele>
        <time>2019-04-07T09:59:03Z</time>
      </trkpt>
      <trkpt lat="48.717" lon="2.54788">
        <ele>57.36</ele>
        <time>2019-04-07T09:59:07Z</time>
      </trkpt>
      <trkpt lat="48.71696" lon="2.54786">
        <ele>57.48</ele>
        <time>2019-04-07T09:59:09Z</time>
      </trkpt>
      <trkpt lat="48.71682" lon="2.54786">
        <ele>57.75</ele>
        <time>2019-04-07T09:59:20Z</time>
      </trkpt>
      <trkpt lat="48.71678" lon="2.54786">
        <ele>58.18</ele>
        <time>2019-04-07T09:59:23Z</time>
      </trkpt>
      <trkpt lat="48.71662" lon="2.5479">
        <ele>58.62</ele>
        <time>2019-04-07T09:59:40Z</time>
      </trkpt>
      <trkpt lat="48.71641" lon="2.54793">
        <ele>59.23</ele>
        <time>2019-04-07T09:59:58Z</time>
      </trkpt>
      <trkpt lat="48.71624" lon="2.54792">
        <ele>59.01</ele>
        <time>2019-04-07T10:00:12Z</time>
      </trkpt>
      <trkpt lat="48.71606" lon="2.54802">
        <ele>59.57</ele>
        <time>2019-04-07T10:00:32Z</time>
      </trkpt>
      <trkpt lat="48.71583" lon="2.54805">
        <ele>60.2</ele>
        <time>2019-04-07T10:00:54Z</time>
      </trkpt>
      <trkpt lat="48.71562" lon="2.54804">
        <ele>60.76</ele>
        <time>2019-04-07T10:01:15Z</time>
      </trkpt>
      <trkpt lat="48.71539" lon="2.54806">
        <ele>61.2</ele>
        <time>2019-04-07T10:01:36Z</time>
      </trkpt>
      <trkpt lat="48.71513" lon="2.54811">
        <ele>61.77</ele>
        <time>2019-04-07T10:02:00Z</time>
      </trkpt>
      <trkpt lat="48.71489" lon="2.54817">
        <ele>61.63</ele>
        <time>2019-04-07T10:02:17Z</time>
      </trkpt>
      <trkpt lat="48.71465" lon="2.54819">
        <ele>61.83</ele>
        <time>2019-04-07T10:02:37Z</time>
      </trkpt>
      <trkpt lat="48.71443" lon="2.54822">
        <ele>62.17</ele>
        <time>2019-04-07T10:02:58Z</time>
      </trkpt>
      <trkpt lat="48.71427" lon="2.54832">
        <ele>62.32</ele>
        <time>2019-04-07T10:03:16Z</time>
      </trkpt>
      <trkpt lat="48.71397" lon="2.54844">
        <ele>63.04</ele>
        <time>2019-04-07T10:03:39Z</time>
      </trkpt>
      <trkpt lat="48.7138" lon="2.54854">
        <ele>62.3</ele>
        <time>2019-04-07T10:03:55Z</time>
      </trkpt>
      <trkpt lat="48.71361" lon="2.54862">
        <ele>62.99</ele>
        <time>2019-04-07T10:04:16Z</time>
      </trkpt>
      <trkpt lat="48.71338" lon="2.54878">
        <ele>62.98</ele>
        <time>2019-04-07T10:04:35Z</time>
      </trkpt>
      <trkpt lat="48.71314" lon="2.54893">
        <ele>62.73</ele>
        <time>2019-04-07T10:04:52Z</time>
      </trkpt>
      <trkpt lat="48.71313" lon="2.54895">
        <ele>62.75</ele>
        <time>2019-04-07T10:04:53Z</time>
      </trkpt>
      <trkpt lat="48.71299" lon="2.54905">
        <ele>62.7</ele>
        <time>2019-04-07T10:05:07Z</time>
      </trkpt>
      <trkpt lat="48.71286" lon="2.54909">
        <ele>63.24</ele>
        <time>2019-04-07T10:05:24Z</time>
      </trkpt>
      <trkpt lat="48.71283" lon="2.54916">
        <ele>63.62</ele>
        <time>2019-04-07T10:05:57Z</time>
      </trkpt>
      <trkpt lat="48.71281" lon="2.54916">
        <ele>63.92</ele>
        <time>2019-04-07T10:06:13Z</time>
      </trkpt>
      <trkpt lat="48.71278" lon="2.54917">
        <ele>63.34</ele>
        <time>2019-04-07T10:06:36Z</time>
      </trkpt>
      <trkpt lat="48.71277" lon="2.54917">
        <ele>63.16</ele>
        <time>2019-04-07T10:06:58Z</time>
      </trkpt>
      <trkpt lat="48.71281" lon="2.54926">
        <ele>63.53</ele>
        <time>2019-04-07T10:07:15Z</time>
      </trkpt>
      <trkpt lat="48.71286" lon="2.54936">
        <ele>62.87</ele>
        <time>2019-04-07T10:07:32Z</time>
      </trkpt>
      <trkpt lat="48.71278" lon="2.54943">
        <ele>63.39</ele>
        <time>2019-04-07T10:07:53Z</time>
      </trkpt>
      <trkpt lat="48.71265" lon="2.54955">
        <ele>63.53</ele>
        <time>2019-04-07T10:08:12Z</time>
      </trkpt>
      <trkpt lat="48.71251" lon="2.54966">
        <ele>64.23</ele>
        <time>2019-04-07T10:08:29Z</time>
      </trkpt>
      <trkpt lat="48.71237" lon="2.54978">
        <ele>64.26</ele>
        <time>2019-04-07T10:08:46Z</time>
      </trkpt>
      <trkpt lat="48.71217" lon="2.54998">
        <ele>64.74</ele>
        <time>2019-04-07T10:09:05Z</time>
      </trkpt>
      <trkpt lat="48.71205" lon="2.55014">
        <ele>64.44</ele>
        <time>2019-04-07T10:09:23Z</time>
      </trkpt>
      <trkpt lat="48.7119" lon="2.55029">
        <ele>64.41</ele>
        <time>2019-04-07T10:09:39Z</time>
      </trkpt>
      <trkpt lat="48.71172" lon="2.55049">
        <ele>64.53</ele>
        <time>2019-04-07T10:09:59Z</time>
      </trkpt>
      <trkpt lat="48.71158" lon="2.55077">
        <ele>64.73</ele>
        <time>2019-04-07T10:10:20Z</time>
      </trkpt>
      <trkpt lat="48.71147" lon="2.55099">
        <ele>64.39</ele>
        <time>2019-04-07T10:10:39Z</time>
      </trkpt>
      <trkpt lat="48.71131" lon="2.5512">
        <ele>64.63</ele>
        <time>2019-04-07T10:10:59Z</time>
      </trkpt>
      <trkpt lat="48.71116" lon="2.55145">
        <ele>65.12</ele>
        <time>2019-04-07T10:11:20Z</time>
      </trkpt>
      <trkpt lat="48.71101" lon="2.55174">
        <ele>64.91</ele>
        <time>2019-04-07T10:11:42Z</time>
      </trkpt>
      <trkpt lat="48.71097" lon="2.55182">
        <ele>64.63</ele>
        <time>2019-04-07T10:11:47Z</time>
      </trkpt>
      <trkpt lat="48.71083" lon="2.55207">
        <ele>64.6</ele>
        <time>2019-04-07T10:12:05Z</time>
      </trkpt>
      <trkpt lat="48.71081" lon="2.55214">
        <ele>64.61</ele>
        <time>2019-04-07T10:12:09Z</time>
      </trkpt>
      <trkpt lat="48.71076" lon="2.55224">
        <ele>64.59</ele>
        <time>2019-04-07T10:12:29Z</time>
      </trkpt>
      <trkpt lat="48.71072" lon="2.55232">
        <ele>64.5</ele>
        <time>2019-04-07T10:12:37Z</time>
      </trkpt>
      <trkpt lat="48.71069" lon="2.55238">
        <ele>64.29</ele>
        <time>2019-04-07T10:12:41Z</time>
      </trkpt>
      <trkpt lat="48.71051" lon="2.55266">
        <ele>64.45</ele>
        <time>2019-04-07T10:12:58Z</time>
      </trkpt>
      <trkpt lat="48.71051" lon="2.55267">
        <ele>64.44</ele>
        <time>2019-04-07T10:12:59Z</time>
      </trkpt>
      <trkpt lat="48.7104" lon="2.55288">
        <ele>64.37</ele>
        <time>2019-04-07T10:13:13Z</time>
      </trkpt>
      <trkpt lat="48.71032" lon="2.55312">
        <ele>64</ele>
        <time>2019-04-07T10:13:27Z</time>
      </trkpt>
      <trkpt lat="48.71018" lon="2.55339">
        <ele>64.61</ele>
        <time>2019-04-07T10:13:46Z</time>
      </trkpt>
      <trkpt lat="48.71011" lon="2.55363">
        <ele>64.62</ele>
        <time>2019-04-07T10:14:03Z</time>
      </trkpt>
      <trkpt lat="48.71003" lon="2.55393">
        <ele>64.7</ele>
        <time>2019-04-07T10:14:21Z</time>
      </trkpt>
      <trkpt lat="48.71001" lon="2.55404">
        <ele>64.37</ele>
        <time>2019-04-07T10:14:27Z</time>
      </trkpt>
      <trkpt lat="48.70998" lon="2.55417">
        <ele>64.82</ele>
        <time>2019-04-07T10:14:35Z</time>
      </trkpt>
      <trkpt lat="48.70997" lon="2.55422">
        <ele>64.47</ele>
        <time>2019-04-07T10:14:38Z</time>
      </trkpt>
      <trkpt lat="48.7099" lon="2.5545">
        <ele>64.91</ele>
        <time>2019-04-07T10:14:54Z</time>
      </trkpt>
      <trkpt lat="48.70984" lon="2.55479">
        <ele>65.15</ele>
        <time>2019-04-07T10:15:13Z</time>
      </trkpt>
      <trkpt lat="48.70975" lon="2.55517">
        <ele>64.54</ele>
        <time>2019-04-07T10:15:36Z</time>
      </trkpt>
      <trkpt lat="48.70975" lon="2.55521">
        <ele>64.68</ele>
        <time>2019-04-07T10:15:38Z</time>
      </trkpt>
      <trkpt lat="48.7097" lon="2.55545">
        <ele>64.54</ele>
        <time>2019-04-07T10:15:53Z</time>
      </trkpt>
      <trkpt lat="48.70969" lon="2.5555">
        <ele>64.19</ele>
        <time>2019-04-07T10:15:55Z</time>
      </trkpt>
      <trkpt lat="48.70965" lon="2.55576">
        <ele>64.1</ele>
        <time>2019-04-07T10:16:12Z</time>
      </trkpt>
      <trkpt lat="48.7096" lon="2.55612">
        <ele>64.01</ele>
        <time>2019-04-07T10:16:34Z</time>
      </trkpt>
      <trkpt lat="48.70958" lon="2.5564">
        <ele>63.79</ele>
        <time>2019-04-07T10:16:48Z</time>
      </trkpt>
      <trkpt lat="48.70955" lon="2.55661">
        <ele>63.83</ele>
        <time>2019-04-07T10:17:00Z</time>
      </trkpt>
      <trkpt lat="48.70952" lon="2.55677">
        <ele>63.7</ele>
        <time>2019-04-07T10:17:17Z</time>
      </trkpt>
      <trkpt lat="48.70948" lon="2.55687">
        <ele>63.52</ele>
        <time>2019-04-07T10:17:37Z</time>
      </trkpt>
      <trkpt lat="48.70947" lon="2.55696">
        <ele>63.64</ele>
        <time>2019-04-07T10:18:01Z</time>
      </trkpt>
      <trkpt lat="48.70947" lon="2.55697">
        <ele>63.34</ele>
        <time>2019-04-07T10:18:02Z</time>
      </trkpt>
      <trkpt lat="48.70948" lon="2.55712">
        <ele>63.26</ele>
        <time>2019-04-07T10:18:17Z</time>
      </trkpt>
      <trkpt lat="48.70947" lon="2.55734">
        <ele>64.46</ele>
        <time>2019-04-07T10:18:33Z</time>
      </trkpt>
      <trkpt lat="48.70947" lon="2.55734">
        <ele>63.77</ele>
        <time>2019-04-07T10:18:40Z</time>
      </trkpt>
      <trkpt lat="48.70948" lon="2.5573">
        <ele>63.64</ele>
        <time>2019-04-07T10:19:01Z</time>
      </trkpt>
      <trkpt lat="48.70949" lon="2.55729">
        <ele>63.87</ele>
        <time>2019-04-07T10:19:27Z</time>
      </trkpt>
      <trkpt lat="48.70949" lon="2.55733">
        <ele>64.55</ele>
        <time>2019-04-07T10:19:48Z</time>
      </trkpt>
      <trkpt lat="48.70945" lon="2.55736">
        <ele>64.28</ele>
        <time>2019-04-07T10:20:15Z</time>
      </trkpt>
      <trkpt lat="48.70946" lon="2.5574">
        <ele>65.26</ele>
        <time>2019-04-07T10:20:49Z</time>
      </trkpt>
      <trkpt lat="48.70947" lon="2.55743">
        <ele>64.91</ele>
        <time>2019-04-07T10:21:06Z</time>
      </trkpt>
      <trkpt lat="48.70946" lon="2.55743">
        <ele>65.54</ele>
        <time>2019-04-07T10:21:30Z</time>
      </trkpt>
      <trkpt lat="48.70946" lon="2.55744">
        <ele>65.96</ele>
        <time>2019-04-07T10:21:59Z</time>
      </trkpt>
      <trkpt lat="48.70947" lon="2.55745">
        <ele>65.66</ele>
        <time>2019-04-07T10:22:14Z</time>
      </trkpt>
      <trkpt lat="48.70967" lon="2.55757">
        <ele>66.39</ele>
        <time>2019-04-07T10:22:33Z</time>
      </trkpt>
      <trkpt lat="48.70983" lon="2.55766">
        <ele>66.08</ele>
        <time>2019-04-07T10:22:47Z</time>
      </trkpt>
      <trkpt lat="48.71002" lon="2.5578">
        <ele>66.49</ele>
        <time>2019-04-07T10:23:04Z</time>
      </trkpt>
      <trkpt lat="48.71019" lon="2.55782">
        <ele>65.65</ele>
        <time>2019-04-07T10:23:20Z</time>
      </trkpt>
      <trkpt lat="48.71032" lon="2.55784">
        <ele>66.15</ele>
        <time>2019-04-07T10:23:33Z</time>
      </trkpt>
      <trkpt lat="48.71051" lon="2.55813">
        <ele>66.51</ele>
        <time>2019-04-07T10:23:54Z</time>
      </trkpt>
      <trkpt lat="48.71068" lon="2.55828">
        <ele>65.88</ele>
        <time>2019-04-07T10:24:11Z</time>
      </trkpt>
      <trkpt lat="48.71084" lon="2.55837">
        <ele>66.1</ele>
        <time>2019-04-07T10:24:27Z</time>
      </trkpt>
      <trkpt lat="48.71107" lon="2.55855">
        <ele>66.52</ele>
        <time>2019-04-07T10:24:46Z</time>
      </trkpt>
      <trkpt lat="48.71125" lon="2.5587">
        <ele>66.55</ele>
        <time>2019-04-07T10:25:04Z</time>
      </trkpt>
      <trkpt lat="48.71129" lon="2.55873">
        <ele>65.83</ele>
        <time>2019-04-07T10:25:20Z</time>
      </trkpt>
      <trkpt lat="48.71134" lon="2.55877">
        <ele>66.89</ele>
        <time>2019-04-07T10:25:33Z</time>
      </trkpt>
      <trkpt lat="48.71134" lon="2.55876">
        <ele>66.75</ele>
        <time>2019-04-07T10:25:53Z</time>
      </trkpt>
      <trkpt lat="48.71133" lon="2.55876">
        <ele>67.23</ele>
        <time>2019-04-07T10:26:15Z</time>
      </trkpt>
      <trkpt lat="48.7114" lon="2.55881">
        <ele>67.23</ele>
        <time>2019-04-07T10:26:33Z</time>
      </trkpt>
      <trkpt lat="48.71153" lon="2.55892">
        <ele>67.31</ele>
        <time>2019-04-07T10:26:45Z</time>
      </trkpt>
      <trkpt lat="48.71161" lon="2.55899">
        <ele>67.9</ele>
        <time>2019-04-07T10:26:52Z</time>
      </trkpt>
      <trkpt lat="48.71178" lon="2.55912">
        <ele>68.16</ele>
        <time>2019-04-07T10:27:07Z</time>
      </trkpt>
      <trkpt lat="48.71194" lon="2.55923">
        <ele>68.11</ele>
        <time>2019-04-07T10:27:21Z</time>
      </trkpt>
      <trkpt lat="48.71209" lon="2.55936">
        <ele>68.71</ele>
        <time>2019-04-07T10:27:36Z</time>
      </trkpt>
      <trkpt lat="48.71215" lon="2.5594">
        <ele>69</ele>
        <time>2019-04-07T10:27:41Z</time>
      </trkpt>
      <trkpt lat="48.7123" lon="2.55955">
        <ele>68.9</ele>
        <time>2019-04-07T10:27:55Z</time>
      </trkpt>
      <trkpt lat="48.71259" lon="2.55978">
        <ele>70.06</ele>
        <time>2019-04-07T10:28:21Z</time>
      </trkpt>
      <trkpt lat="48.7127" lon="2.55987">
        <ele>70</ele>
        <time>2019-04-07T10:28:33Z</time>
      </trkpt>
      <trkpt lat="48.71288" lon="2.56005">
        <ele>70.22</ele>
        <time>2019-04-07T10:28:51Z</time>
      </trkpt>
      <trkpt lat="48.71313" lon="2.56032">
        <ele>70.93</ele>
        <time>2019-04-07T10:29:17Z</time>
      </trkpt>
      <trkpt lat="48.71337" lon="2.56058">
        <ele>71.91</ele>
        <time>2019-04-07T10:29:41Z</time>
      </trkpt>
      <trkpt lat="48.71357" lon="2.56078">
        <ele>72.83</ele>
        <time>2019-04-07T10:30:02Z</time>
      </trkpt>
      <trkpt lat="48.71369" lon="2.56088">
        <ele>73.76</ele>
        <time>2019-04-07T10:30:14Z</time>
      </trkpt>
      <trkpt lat="48.71382" lon="2.56098">
        <ele>74.53</ele>
        <time>2019-04-07T10:30:26Z</time>
      </trkpt>
      <trkpt lat="48.71401" lon="2.56117">
        <ele>75.85</ele>
        <time>2019-04-07T10:30:45Z</time>
      </trkpt>
      <trkpt lat="48.71418" lon="2.56134">
        <ele>77.02</ele>
        <time>2019-04-07T10:31:02Z</time>
      </trkpt>
      <trkpt lat="48.71434" lon="2.56154">
        <ele>77.17</ele>
        <time>2019-04-07T10:31:18Z</time>
      </trkpt>
      <trkpt lat="48.71439" lon="2.56159">
        <ele>77.19</ele>
        <time>2019-04-07T10:31:23Z</time>
      </trkpt>
      <trkpt lat="48.71443" lon="2.56164">
        <ele>76.66</ele>
        <time>2019-04-07T10:31:28Z</time>
      </trkpt>
      <trkpt lat="48.71447" lon="2.56169">
        <ele>76.73</ele>
        <time>2019-04-07T10:31:32Z</time>
      </trkpt>
      <trkpt lat="48.71466" lon="2.56191">
        <ele>76.74</ele>
        <time>2019-04-07T10:31:51Z</time>
      </trkpt>
      <trkpt lat="48.71482" lon="2.562">
        <ele>76.77</ele>
        <time>2019-04-07T10:32:09Z</time>
      </trkpt>
      <trkpt lat="48.71502" lon="2.56208">
        <ele>75.85</ele>
        <time>2019-04-07T10:32:26Z</time>
      </trkpt>
      <trkpt lat="48.71525" lon="2.56217">
        <ele>74.75</ele>
        <time>2019-04-07T10:32:45Z</time>
      </trkpt>
      <trkpt lat="48.71546" lon="2.5623">
        <ele>74.12</ele>
        <time>2019-04-07T10:33:03Z</time>
      </trkpt>
      <trkpt lat="48.71567" lon="2.56235">
        <ele>73.67</ele>
        <time>2019-04-07T10:33:20Z</time>
      </trkpt>
      <trkpt lat="48.71584" lon="2.56237">
        <ele>72.87</ele>
        <time>2019-04-07T10:33:37Z</time>
      </trkpt>
      <trkpt lat="48.71585" lon="2.56238">
        <ele>73.19</ele>
        <time>2019-04-07T10:33:38Z</time>
      </trkpt>
      <trkpt lat="48.71586" lon="2.56239">
        <ele>72.97</ele>
        <time>2019-04-07T10:33:40Z</time>
      </trkpt>
      <trkpt lat="48.71595" lon="2.56248">
        <ele>73.35</ele>
        <time>2019-04-07T10:33:58Z</time>
      </trkpt>
      <trkpt lat="48.716" lon="2.56252">
        <ele>73.39</ele>
        <time>2019-04-07T10:34:06Z</time>
      </trkpt>
      <trkpt lat="48.71603" lon="2.56254">
        <ele>73.02</ele>
        <time>2019-04-07T10:34:10Z</time>
      </trkpt>
      <trkpt lat="48.71605" lon="2.56255">
        <ele>73.3</ele>
        <time>2019-04-07T10:34:12Z</time>
      </trkpt>
      <trkpt lat="48.71613" lon="2.56261">
        <ele>73.03</ele>
        <time>2019-04-07T10:34:19Z</time>
      </trkpt>
      <trkpt lat="48.71632" lon="2.56276">
        <ele>73.34</ele>
        <time>2019-04-07T10:34:37Z</time>
      </trkpt>
      <trkpt lat="48.71649" lon="2.56288">
        <ele>73.08</ele>
        <time>2019-04-07T10:34:53Z</time>
      </trkpt>
      <trkpt lat="48.71666" lon="2.56299">
        <ele>73.3</ele>
        <time>2019-04-07T10:35:09Z</time>
      </trkpt>
      <trkpt lat="48.71682" lon="2.56307">
        <ele>73.16</ele>
        <time>2019-04-07T10:35:23Z</time>
      </trkpt>
      <trkpt lat="48.71691" lon="2.56315">
        <ele>73.38</ele>
        <time>2019-04-07T10:35:31Z</time>
      </trkpt>
      <trkpt lat="48.71707" lon="2.56325">
        <ele>73.49</ele>
        <time>2019-04-07T10:35:46Z</time>
      </trkpt>
      <trkpt lat="48.71711" lon="2.5633">
        <ele>73.27</ele>
        <time>2019-04-07T10:35:50Z</time>
      </trkpt>
      <trkpt lat="48.7172" lon="2.56336">
        <ele>73.66</ele>
        <time>2019-04-07T10:36:06Z</time>
      </trkpt>
      <trkpt lat="48.7173" lon="2.56342">
        <ele>73.57</ele>
        <time>2019-04-07T10:36:19Z</time>
      </trkpt>
      <trkpt lat="48.7174" lon="2.56347">
        <ele>73.83</ele>
        <time>2019-04-07T10:36:34Z</time>
      </trkpt>
      <trkpt lat="48.71752" lon="2.56355">
        <ele>73.61</ele>
        <time>2019-04-07T10:36:46Z</time>
      </trkpt>
      <trkpt lat="48.71771" lon="2.56369">
        <ele>74.04</ele>
        <time>2019-04-07T10:37:02Z</time>
      </trkpt>
      <trkpt lat="48.71785" lon="2.56376">
        <ele>74.12</ele>
        <time>2019-04-07T10:37:15Z</time>
      </trkpt>
      <trkpt lat="48.718" lon="2.56384">
        <ele>73.86</ele>
        <time>2019-04-07T10:37:29Z</time>
      </trkpt>
      <trkpt lat="48.7182" lon="2.56397">
        <ele>73.58</ele>
        <time>2019-04-07T10:37:46Z</time>
      </trkpt>
      <trkpt lat="48.71836" lon="2.56412">
        <ele>73.88</ele>
        <time>2019-04-07T10:38:01Z</time>
      </trkpt>
      <trkpt lat="48.71854" lon="2.56426">
        <ele>73.44</ele>
        <time>2019-04-07T10:38:18Z</time>
      </trkpt>
      <trkpt lat="48.71871" lon="2.56437">
        <ele>74.08</ele>
        <time>2019-04-07T10:38:34Z</time>
      </trkpt>
      <trkpt lat="48.71877" lon="2.56442">
        <ele>74.03</ele>
        <time>2019-04-07T10:38:40Z</time>
      </trkpt>
      <trkpt lat="48.7189" lon="2.56457">
        <ele>74.05</ele>
        <time>2019-04-07T10:38:54Z</time>
      </trkpt>
      <trkpt lat="48.71907" lon="2.56483">
        <ele>74.01</ele>
        <time>2019-04-07T10:39:13Z</time>
      </trkpt>
      <trkpt lat="48.71916" lon="2.56496">
        <ele>73.47</ele>
        <time>2019-04-07T10:39:25Z</time>
      </trkpt>
      <trkpt lat="48.71931" lon="2.56504">
        <ele>73.18</ele>
        <time>2019-04-07T10:39:43Z</time>
      </trkpt>
      <trkpt lat="48.71934" lon="2.56513">
        <ele>72.69</ele>
        <time>2019-04-07T10:39:59Z</time>
      </trkpt>
      <trkpt lat="48.71938" lon="2.56518">
        <ele>72.59</ele>
        <time>2019-04-07T10:40:17Z</time>
      </trkpt>
      <trkpt lat="48.7194" lon="2.56521">
        <ele>72.72</ele>
        <time>2019-04-07T10:40:19Z</time>
      </trkpt>
      <trkpt lat="48.71945" lon="2.56529">
        <ele>72.27</ele>
        <time>2019-04-07T10:40:25Z</time>
      </trkpt>
      <trkpt lat="48.71958" lon="2.56548">
        <ele>71.6</ele>
        <time>2019-04-07T10:40:42Z</time>
      </trkpt>
      <trkpt lat="48.71961" lon="2.56554">
        <ele>71.95</ele>
        <time>2019-04-07T10:40:50Z</time>
      </trkpt>
      <trkpt lat="48.71962" lon="2.56557">
        <ele>71.77</ele>
        <time>2019-04-07T10:40:52Z</time>
      </trkpt>
      <trkpt lat="48.71971" lon="2.56577">
        <ele>71.14</ele>
        <time>2019-04-07T10:41:05Z</time>
      </trkpt>
      <trkpt lat="48.71982" lon="2.56601">
        <ele>70.81</ele>
        <time>2019-04-07T10:41:25Z</time>
      </trkpt>
      <trkpt lat="48.71986" lon="2.56614">
        <ele>70.78</ele>
        <time>2019-04-07T10:41:41Z</time>
      </trkpt>
      <trkpt lat="48.71984" lon="2.56616">
        <ele>70.61</ele>
        <time>2019-04-07T10:42:02Z</time>
      </trkpt>
      <trkpt lat="48.71983" lon="2.56617">
        <ele>70.72</ele>
        <time>2019-04-07T10:42:41Z</time>
      </trkpt>
      <trkpt lat="48.71981" lon="2.56621">
        <ele>71.05</ele>
        <time>2019-04-07T10:42:46Z</time>
      </trkpt>
      <trkpt lat="48.71973" lon="2.56644">
        <ele>70.68</ele>
        <time>2019-04-07T10:43:01Z</time>
      </trkpt>
      <trkpt lat="48.71974" lon="2.56649">
        <ele>71.22</ele>
        <time>2019-04-07T10:43:19Z</time>
      </trkpt>
      <trkpt lat="48.71975" lon="2.56651">
        <ele>71.43</ele>
        <time>2019-04-07T10:43:31Z</time>
      </trkpt>
      <trkpt lat="48.71979" lon="2.56655">
        <ele>71.38</ele>
        <time>2019-04-07T10:43:36Z</time>
      </trkpt>
      <trkpt lat="48.7198" lon="2.56661">
        <ele>71.57</ele>
        <time>2019-04-07T10:43:40Z</time>
      </trkpt>
      <trkpt lat="48.71986" lon="2.56665">
        <ele>71.61</ele>
        <time>2019-04-07T10:43:47Z</time>
      </trkpt>
      <trkpt lat="48.71996" lon="2.56656">
        <ele>70.61</ele>
        <time>2019-04-07T10:43:59Z</time>
      </trkpt>
      <trkpt lat="48.72004" lon="2.56664">
        <ele>68.88</ele>
        <time>2019-04-07T10:44:10Z</time>
      </trkpt>
      <trkpt lat="48.72019" lon="2.56684">
        <ele>68.29</ele>
        <time>2019-04-07T10:44:30Z</time>
      </trkpt>
      <trkpt lat="48.72038" lon="2.56706">
        <ele>65.96</ele>
        <time>2019-04-07T10:44:50Z</time>
      </trkpt>
      <trkpt lat="48.72052" lon="2.56721">
        <ele>63.84</ele>
        <time>2019-04-07T10:45:07Z</time>
      </trkpt>
      <trkpt lat="48.72067" lon="2.5673">
        <ele>62.54</ele>
        <time>2019-04-07T10:45:20Z</time>
      </trkpt>
      <trkpt lat="48.72075" lon="2.56742">
        <ele>62.03</ele>
        <time>2019-04-07T10:45:28Z</time>
      </trkpt>
      <trkpt lat="48.72077" lon="2.56746">
        <ele>61.75</ele>
        <time>2019-04-07T10:45:30Z</time>
      </trkpt>
      <trkpt lat="48.72086" lon="2.56757">
        <ele>60.43</ele>
        <time>2019-04-07T10:45:40Z</time>
      </trkpt>
      <trkpt lat="48.72099" lon="2.56777">
        <ele>59.19</ele>
        <time>2019-04-07T10:45:56Z</time>
      </trkpt>
      <trkpt lat="48.72115" lon="2.56792">
        <ele>57.11</ele>
        <time>2019-04-07T10:46:12Z</time>
      </trkpt>
      <trkpt lat="48.72138" lon="2.56812">
        <ele>56.33</ele>
        <time>2019-04-07T10:46:30Z</time>
      </trkpt>
      <trkpt lat="48.7215" lon="2.56814">
        <ele>53.78</ele>
        <time>2019-04-07T10:46:44Z</time>
      </trkpt>
      <trkpt lat="48.72153" lon="2.56816">
        <ele>53.52</ele>
        <time>2019-04-07T10:46:48Z</time>
      </trkpt>
      <trkpt lat="48.72163" lon="2.56827">
        <ele>52.17</ele>
        <time>2019-04-07T10:47:00Z</time>
      </trkpt>
      <trkpt lat="48.72181" lon="2.56832">
        <ele>51.32</ele>
        <time>2019-04-07T10:47:09Z</time>
      </trkpt>
      <trkpt lat="48.72194" lon="2.56832">
        <ele>51.12</ele>
        <time>2019-04-07T10:47:22Z</time>
      </trkpt>
      <trkpt lat="48.72195" lon="2.56831">
        <ele>51.17</ele>
        <time>2019-04-07T10:47:45Z</time>
      </trkpt>
      <trkpt lat="48.72204" lon="2.56835">
        <ele>50.89</ele>
        <time>2019-04-07T10:47:58Z</time>
      </trkpt>
      <trkpt lat="48.72217" lon="2.5684">
        <ele>49.25</ele>
        <time>2019-04-07T10:48:12Z</time>
      </trkpt>
      <trkpt lat="48.72232" lon="2.56844">
        <ele>47.88</ele>
        <time>2019-04-07T10:48:30Z</time>
      </trkpt>
      <trkpt lat="48.72235" lon="2.56846">
        <ele>47.87</ele>
        <time>2019-04-07T10:48:33Z</time>
      </trkpt>
      <trkpt lat="48.72247" lon="2.56849">
        <ele>47.02</ele>
        <time>2019-04-07T10:48:44Z</time>
      </trkpt>
      <trkpt lat="48.72261" lon="2.56856">
        <ele>46.65</ele>
        <time>2019-04-07T10:48:58Z</time>
      </trkpt>
      <trkpt lat="48.72275" lon="2.5687">
        <ele>45.41</ele>
        <time>2019-04-07T10:49:12Z</time>
      </trkpt>
      <trkpt lat="48.72291" lon="2.56882">
        <ele>44.43</ele>
        <time>2019-04-07T10:49:30Z</time>
      </trkpt>
      <trkpt lat="48.72293" lon="2.56881">
        <ele>44.88</ele>
        <time>2019-04-07T10:49:33Z</time>
      </trkpt>
      <trkpt lat="48.72294" lon="2.56881">
        <ele>45.06</ele>
        <time>2019-04-07T10:49:35Z</time>
      </trkpt>
      <trkpt lat="48.72308" lon="2.5688">
        <ele>44.16</ele>
        <time>2019-04-07T10:49:47Z</time>
      </trkpt>
      <trkpt lat="48.72321" lon="2.5689">
        <ele>43.87</ele>
        <time>2019-04-07T10:49:56Z</time>
      </trkpt>
      <trkpt lat="48.72338" lon="2.56895">
        <ele>43.38</ele>
        <time>2019-04-07T10:50:11Z</time>
      </trkpt>
      <trkpt lat="48.72363" lon="2.56904">
        <ele>43.2</ele>
        <time>2019-04-07T10:50:31Z</time>
      </trkpt>
      <trkpt lat="48.72381" lon="2.56917">
        <ele>43.16</ele>
        <time>2019-04-07T10:50:48Z</time>
      </trkpt>
      <trkpt lat="48.72399" lon="2.56921">
        <ele>43.54</ele>
        <time>2019-04-07T10:51:05Z</time>
      </trkpt>
      <trkpt lat="48.72419" lon="2.56931">
        <ele>44.16</ele>
        <time>2019-04-07T10:51:21Z</time>
      </trkpt>
      <trkpt lat="48.72437" lon="2.56939">
        <ele>44.1</ele>
        <time>2019-04-07T10:51:40Z</time>
      </trkpt>
      <trkpt lat="48.72446" lon="2.56945">
        <ele>44.29</ele>
        <time>2019-04-07T10:51:50Z</time>
      </trkpt>
      <trkpt lat="48.72456" lon="2.56953">
        <ele>43.78</ele>
        <time>2019-04-07T10:52:05Z</time>
      </trkpt>
      <trkpt lat="48.72472" lon="2.56966">
        <ele>44.72</ele>
        <time>2019-04-07T10:52:19Z</time>
      </trkpt>
      <trkpt lat="48.72479" lon="2.56973">
        <ele>44.83</ele>
        <time>2019-04-07T10:52:25Z</time>
      </trkpt>
      <trkpt lat="48.72482" lon="2.56976">
        <ele>45.12</ele>
        <time>2019-04-07T10:52:28Z</time>
      </trkpt>
      <trkpt lat="48.72497" lon="2.56992">
        <ele>45.62</ele>
        <time>2019-04-07T10:52:43Z</time>
      </trkpt>
      <trkpt lat="48.725" lon="2.56993">
        <ele>45.52</ele>
        <time>2019-04-07T10:52:47Z</time>
      </trkpt>
      <trkpt lat="48.72516" lon="2.57006">
        <ele>46.73</ele>
        <time>2019-04-07T10:53:02Z</time>
      </trkpt>
      <trkpt lat="48.72518" lon="2.57013">
        <ele>46.77</ele>
        <time>2019-04-07T10:53:21Z</time>
      </trkpt>
      <trkpt lat="48.72516" lon="2.57017">
        <ele>46.92</ele>
        <time>2019-04-07T10:53:24Z</time>
      </trkpt>
      <trkpt lat="48.72511" lon="2.57044">
        <ele>46.79</ele>
        <time>2019-04-07T10:53:40Z</time>
      </trkpt>
      <trkpt lat="48.72508" lon="2.5705">
        <ele>46.91</ele>
        <time>2019-04-07T10:53:46Z</time>
      </trkpt>
      <trkpt lat="48.72506" lon="2.57076">
        <ele>47.22</ele>
        <time>2019-04-07T10:54:03Z</time>
      </trkpt>
      <trkpt lat="48.72504" lon="2.57105">
        <ele>47.43</ele>
        <time>2019-04-07T10:54:19Z</time>
      </trkpt>
      <trkpt lat="48.72504" lon="2.57125">
        <ele>48.14</ele>
        <time>2019-04-07T10:54:33Z</time>
      </trkpt>
      <trkpt lat="48.72509" lon="2.57146">
        <ele>47.92</ele>
        <time>2019-04-07T10:54:49Z</time>
      </trkpt>
      <trkpt lat="48.72509" lon="2.57153">
        <ele>48.11</ele>
        <time>2019-04-07T10:54:56Z</time>
      </trkpt>
      <trkpt lat="48.72508" lon="2.57157">
        <ele>47.58</ele>
        <time>2019-04-07T10:54:58Z</time>
      </trkpt>
      <trkpt lat="48.72506" lon="2.57164">
        <ele>47.39</ele>
        <time>2019-04-07T10:55:18Z</time>
      </trkpt>
      <trkpt lat="48.72504" lon="2.57163">
        <ele>46.25</ele>
        <time>2019-04-07T10:55:43Z</time>
      </trkpt>
      <trkpt lat="48.72503" lon="2.57163">
        <ele>46.67</ele>
        <time>2019-04-07T10:55:45Z</time>
      </trkpt>
      <trkpt lat="48.72497" lon="2.57161">
        <ele>45.21</ele>
        <time>2019-04-07T10:55:50Z</time>
      </trkpt>
      <trkpt lat="48.72482" lon="2.57156">
        <ele>43.58</ele>
        <time>2019-04-07T10:56:06Z</time>
      </trkpt>
      <trkpt lat="48.72476" lon="2.57157">
        <ele>43.6</ele>
        <time>2019-04-07T10:56:13Z</time>
      </trkpt>
      <trkpt lat="48.72473" lon="2.57158">
        <ele>43.36</ele>
        <time>2019-04-07T10:56:37Z</time>
      </trkpt>
      <trkpt lat="48.7247" lon="2.57158">
        <ele>43.71</ele>
        <time>2019-04-07T10:57:00Z</time>
      </trkpt>
      <trkpt lat="48.72472" lon="2.57155">
        <ele>43.55</ele>
        <time>2019-04-07T10:57:16Z</time>
      </trkpt>
      <trkpt lat="48.72484" lon="2.5716">
        <ele>44.66</ele>
        <time>2019-04-07T10:57:33Z</time>
      </trkpt>
      <trkpt lat="48.72489" lon="2.5717">
        <ele>45.9</ele>
        <time>2019-04-07T10:57:46Z</time>
      </trkpt>
      <trkpt lat="48.72489" lon="2.5718">
        <ele>45.79</ele>
        <time>2019-04-07T10:57:53Z</time>
      </trkpt>
      <trkpt lat="48.72497" lon="2.57208">
        <ele>45.92</ele>
        <time>2019-04-07T10:58:12Z</time>
      </trkpt>
      <trkpt lat="48.72508" lon="2.57227">
        <ele>45.64</ele>
        <time>2019-04-07T10:58:27Z</time>
      </trkpt>
      <trkpt lat="48.72519" lon="2.57224">
        <ele>46.26</ele>
        <time>2019-04-07T10:58:43Z</time>
      </trkpt>
      <trkpt lat="48.72529" lon="2.57223">
        <ele>47.58</ele>
        <time>2019-04-07T10:58:57Z</time>
      </trkpt>
      <trkpt lat="48.72545" lon="2.5726">
        <ele>49.7</ele>
        <time>2019-04-07T10:59:28Z</time>
      </trkpt>
      <trkpt lat="48.72548" lon="2.57264">
        <ele>52.2</ele>
        <time>2019-04-07T10:59:38Z</time>
      </trkpt>
      <trkpt lat="48.72545" lon="2.57271">
        <ele>51.14</ele>
        <time>2019-04-07T10:59:58Z</time>
      </trkpt>
      <trkpt lat="48.72545" lon="2.5727">
        <ele>51.77</ele>
        <time>2019-04-07T11:00:14Z</time>
      </trkpt>
      <trkpt lat="48.72542" lon="2.57275">
        <ele>51.15</ele>
        <time>2019-04-07T11:00:34Z</time>
      </trkpt>
      <trkpt lat="48.72538" lon="2.5727">
        <ele>49.54</ele>
        <time>2019-04-07T11:00:54Z</time>
      </trkpt>
      <trkpt lat="48.72537" lon="2.57268">
        <ele>49.43</ele>
        <time>2019-04-07T11:00:55Z</time>
      </trkpt>
      <trkpt lat="48.72537" lon="2.57247">
        <ele>48.19</ele>
        <time>2019-04-07T11:01:08Z</time>
      </trkpt>
      <trkpt lat="48.72538" lon="2.57237">
        <ele>48.23</ele>
        <time>2019-04-07T11:01:14Z</time>
      </trkpt>
      <trkpt lat="48.72536" lon="2.57226">
        <ele>48.42</ele>
        <time>2019-04-07T11:01:23Z</time>
      </trkpt>
      <trkpt lat="48.72537" lon="2.5722">
        <ele>49.16</ele>
        <time>2019-04-07T11:01:27Z</time>
      </trkpt>
      <trkpt lat="48.72539" lon="2.57216">
        <ele>49.61</ele>
        <time>2019-04-07T11:01:30Z</time>
      </trkpt>
      <trkpt lat="48.72542" lon="2.57198">
        <ele>50.24</ele>
        <time>2019-04-07T11:01:42Z</time>
      </trkpt>
      <trkpt lat="48.72545" lon="2.57191">
        <ele>49.71</ele>
        <time>2019-04-07T11:01:54Z</time>
      </trkpt>
      <trkpt lat="48.72544" lon="2.57191">
        <ele>49.94</ele>
        <time>2019-04-07T11:02:13Z</time>
      </trkpt>
      <trkpt lat="48.72545" lon="2.5719">
        <ele>49.9</ele>
        <time>2019-04-07T11:02:41Z</time>
      </trkpt>
      <trkpt lat="48.72544" lon="2.57189">
        <ele>50.27</ele>
        <time>2019-04-07T11:03:10Z</time>
      </trkpt>
      <trkpt lat="48.72541" lon="2.57185">
        <ele>64.85</ele>
        <time>2019-04-07T11:21:50Z</time>
      </trkpt>
      <trkpt lat="48.72542" lon="2.57237">
        <ele>75.78</ele>
        <time>2019-04-07T11:41:38Z</time>
      </trkpt>
      <trkpt lat="48.72542" lon="2.57238">
        <ele>75.26</ele>
        <time>2019-04-07T11:42:06Z</time>
      </trkpt>
      <trkpt lat="48.72546" lon="2.57246">
        <ele>75.13</ele>
        <time>2019-04-07T11:44:16Z</time>
      </trkpt>
      <trkpt lat="48.7255" lon="2.57234">
        <ele>74.61</ele>
        <time>2019-04-07T11:44:32Z</time>
      </trkpt>
      <trkpt lat="48.72555" lon="2.57227">
        <ele>75.7</ele>
        <time>2019-04-07T11:44:54Z</time>
      </trkpt>
      <trkpt lat="48.72567" lon="2.57228">
        <ele>76.54</ele>
        <time>2019-04-07T11:45:10Z</time>
      </trkpt>
      <trkpt lat="48.72571" lon="2.57237">
        <ele>76.82</ele>
        <time>2019-04-07T11:45:16Z</time>
      </trkpt>
      <trkpt lat="48.72576" lon="2.57258">
        <ele>78.31</ele>
        <time>2019-04-07T11:45:35Z</time>
      </trkpt>
      <trkpt lat="48.7258" lon="2.57271">
        <ele>79.19</ele>
        <time>2019-04-07T11:45:50Z</time>
      </trkpt>
      <trkpt lat="48.72582" lon="2.57275">
        <ele>78.96</ele>
        <time>2019-04-07T11:45:58Z</time>
      </trkpt>
      <trkpt lat="48.72593" lon="2.57284">
        <ele>79.55</ele>
        <time>2019-04-07T11:46:13Z</time>
      </trkpt>
      <trkpt lat="48.72611" lon="2.57298">
        <ele>80.02</ele>
        <time>2019-04-07T11:46:36Z</time>
      </trkpt>
      <trkpt lat="48.72614" lon="2.57301">
        <ele>80.15</ele>
        <time>2019-04-07T11:46:38Z</time>
      </trkpt>
      <trkpt lat="48.7262" lon="2.57305">
        <ele>80.8</ele>
        <time>2019-04-07T11:46:42Z</time>
      </trkpt>
      <trkpt lat="48.72625" lon="2.57319">
        <ele>80.34</ele>
        <time>2019-04-07T11:46:57Z</time>
      </trkpt>
      <trkpt lat="48.72624" lon="2.57328">
        <ele>79.8</ele>
        <time>2019-04-07T11:47:04Z</time>
      </trkpt>
      <trkpt lat="48.72622" lon="2.57336">
        <ele>79.67</ele>
        <time>2019-04-07T11:47:11Z</time>
      </trkpt>
      <trkpt lat="48.72623" lon="2.57346">
        <ele>79.23</ele>
        <time>2019-04-07T11:47:17Z</time>
      </trkpt>
      <trkpt lat="48.72626" lon="2.57368">
        <ele>78.03</ele>
        <time>2019-04-07T11:47:36Z</time>
      </trkpt>
      <trkpt lat="48.72624" lon="2.57371">
        <ele>78.23</ele>
        <time>2019-04-07T11:47:47Z</time>
      </trkpt>
      <trkpt lat="48.72615" lon="2.57379">
        <ele>78.03</ele>
        <time>2019-04-07T11:48:15Z</time>
      </trkpt>
      <trkpt lat="48.72623" lon="2.57395">
        <ele>77.66</ele>
        <time>2019-04-07T11:48:37Z</time>
      </trkpt>
      <trkpt lat="48.72636" lon="2.57413">
        <ele>78.51</ele>
        <time>2019-04-07T11:48:57Z</time>
      </trkpt>
      <trkpt lat="48.72649" lon="2.57421">
        <ele>78.68</ele>
        <time>2019-04-07T11:49:23Z</time>
      </trkpt>
      <trkpt lat="48.72672" lon="2.57428">
        <ele>80.57</ele>
        <time>2019-04-07T11:49:43Z</time>
      </trkpt>
      <trkpt lat="48.72698" lon="2.57436">
        <ele>81.32</ele>
        <time>2019-04-07T11:50:06Z</time>
      </trkpt>
      <trkpt lat="48.72707" lon="2.57437">
        <ele>81.43</ele>
        <time>2019-04-07T11:50:13Z</time>
      </trkpt>
      <trkpt lat="48.72724" lon="2.57442">
        <ele>82.22</ele>
        <time>2019-04-07T11:50:28Z</time>
      </trkpt>
      <trkpt lat="48.72741" lon="2.5745">
        <ele>83.23</ele>
        <time>2019-04-07T11:50:44Z</time>
      </trkpt>
      <trkpt lat="48.7276" lon="2.57453">
        <ele>83.78</ele>
        <time>2019-04-07T11:51:02Z</time>
      </trkpt>
      <trkpt lat="48.72771" lon="2.57454">
        <ele>84.16</ele>
        <time>2019-04-07T11:51:14Z</time>
      </trkpt>
      <trkpt lat="48.72786" lon="2.57456">
        <ele>84.68</ele>
        <time>2019-04-07T11:51:33Z</time>
      </trkpt>
      <trkpt lat="48.72806" lon="2.57457">
        <ele>85.38</ele>
        <time>2019-04-07T11:51:55Z</time>
      </trkpt>
      <trkpt lat="48.72825" lon="2.57461">
        <ele>85.52</ele>
        <time>2019-04-07T11:52:15Z</time>
      </trkpt>
      <trkpt lat="48.72842" lon="2.57471">
        <ele>85.53</ele>
        <time>2019-04-07T11:52:32Z</time>
      </trkpt>
      <trkpt lat="48.72854" lon="2.57479">
        <ele>86.18</ele>
        <time>2019-04-07T11:52:52Z</time>
      </trkpt>
      <trkpt lat="48.72865" lon="2.57473">
        <ele>86.34</ele>
        <time>2019-04-07T11:53:09Z</time>
      </trkpt>
      <trkpt lat="48.72871" lon="2.57477">
        <ele>86.98</ele>
        <time>2019-04-07T11:53:15Z</time>
      </trkpt>
      <trkpt lat="48.72884" lon="2.57485">
        <ele>86.25</ele>
        <time>2019-04-07T11:53:29Z</time>
      </trkpt>
      <trkpt lat="48.72897" lon="2.57495">
        <ele>86.63</ele>
        <time>2019-04-07T11:53:44Z</time>
      </trkpt>
      <trkpt lat="48.72908" lon="2.57495">
        <ele>85.81</ele>
        <time>2019-04-07T11:53:58Z</time>
      </trkpt>
      <trkpt lat="48.7292" lon="2.57497">
        <ele>86.1</ele>
        <time>2019-04-07T11:54:13Z</time>
      </trkpt>
      <trkpt lat="48.72941" lon="2.57499">
        <ele>85.85</ele>
        <time>2019-04-07T11:54:33Z</time>
      </trkpt>
      <trkpt lat="48.72946" lon="2.57502">
        <ele>85.55</ele>
        <time>2019-04-07T11:54:38Z</time>
      </trkpt>
      <trkpt lat="48.72963" lon="2.57511">
        <ele>86.38</ele>
        <time>2019-04-07T11:54:55Z</time>
      </trkpt>
      <trkpt lat="48.72979" lon="2.57517">
        <ele>86.04</ele>
        <time>2019-04-07T11:55:10Z</time>
      </trkpt>
      <trkpt lat="48.72994" lon="2.5752">
        <ele>86.46</ele>
        <time>2019-04-07T11:55:26Z</time>
      </trkpt>
      <trkpt lat="48.73005" lon="2.57514">
        <ele>86.39</ele>
        <time>2019-04-07T11:55:41Z</time>
      </trkpt>
      <trkpt lat="48.73009" lon="2.57502">
        <ele>87.21</ele>
        <time>2019-04-07T11:55:56Z</time>
      </trkpt>
      <trkpt lat="48.73012" lon="2.57502">
        <ele>86.32</ele>
        <time>2019-04-07T11:56:04Z</time>
      </trkpt>
      <trkpt lat="48.73024" lon="2.57513">
        <ele>87.05</ele>
        <time>2019-04-07T11:56:19Z</time>
      </trkpt>
      <trkpt lat="48.73037" lon="2.57522">
        <ele>86.79</ele>
        <time>2019-04-07T11:56:36Z</time>
      </trkpt>
      <trkpt lat="48.73038" lon="2.57522">
        <ele>86.75</ele>
        <time>2019-04-07T11:56:37Z</time>
      </trkpt>
      <trkpt lat="48.73053" lon="2.57524">
        <ele>87.13</ele>
        <time>2019-04-07T11:56:51Z</time>
      </trkpt>
      <trkpt lat="48.73068" lon="2.57527">
        <ele>87.04</ele>
        <time>2019-04-07T11:57:08Z</time>
      </trkpt>
      <trkpt lat="48.73074" lon="2.57528">
        <ele>87.14</ele>
        <time>2019-04-07T11:57:16Z</time>
      </trkpt>
      <trkpt lat="48.73078" lon="2.57528">
        <ele>86.9</ele>
        <time>2019-04-07T11:57:20Z</time>
      </trkpt>
      <trkpt lat="48.73099" lon="2.5753">
        <ele>87.16</ele>
        <time>2019-04-07T11:57:39Z</time>
      </trkpt>
      <trkpt lat="48.73117" lon="2.57532">
        <ele>87.37</ele>
        <time>2019-04-07T11:57:55Z</time>
      </trkpt>
      <trkpt lat="48.73136" lon="2.57535">
        <ele>87.78</ele>
        <time>2019-04-07T11:58:13Z</time>
      </trkpt>
      <trkpt lat="48.7314" lon="2.57536">
        <ele>87.45</ele>
        <time>2019-04-07T11:58:16Z</time>
      </trkpt>
      <trkpt lat="48.7316" lon="2.57538">
        <ele>88.18</ele>
        <time>2019-04-07T11:58:35Z</time>
      </trkpt>
      <trkpt lat="48.73182" lon="2.57539">
        <ele>87.7</ele>
        <time>2019-04-07T11:58:55Z</time>
      </trkpt>
      <trkpt lat="48.73205" lon="2.5754">
        <ele>88.21</ele>
        <time>2019-04-07T11:59:15Z</time>
      </trkpt>
      <trkpt lat="48.73227" lon="2.57538">
        <ele>88.6</ele>
        <time>2019-04-07T11:59:34Z</time>
      </trkpt>
      <trkpt lat="48.73251" lon="2.57535">
        <ele>88.28</ele>
        <time>2019-04-07T11:59:56Z</time>
      </trkpt>
      <trkpt lat="48.73276" lon="2.57531">
        <ele>88.4</ele>
        <time>2019-04-07T12:00:18Z</time>
      </trkpt>
      <trkpt lat="48.73297" lon="2.57529">
        <ele>87.98</ele>
        <time>2019-04-07T12:00:39Z</time>
      </trkpt>
      <trkpt lat="48.73302" lon="2.57533">
        <ele>88.68</ele>
        <time>2019-04-07T12:00:57Z</time>
      </trkpt>
      <trkpt lat="48.73302" lon="2.57533">
        <ele>88.2</ele>
        <time>2019-04-07T12:01:39Z</time>
      </trkpt>
      <trkpt lat="48.73302" lon="2.57532">
        <ele>87.73</ele>
        <time>2019-04-07T12:02:09Z</time>
      </trkpt>
      <trkpt lat="48.73303" lon="2.57533">
        <ele>88.37</ele>
        <time>2019-04-07T12:02:39Z</time>
      </trkpt>
      <trkpt lat="48.73303" lon="2.57532">
        <ele>87.68</ele>
        <time>2019-04-07T12:03:15Z</time>
      </trkpt>
      <trkpt lat="48.73303" lon="2.57531">
        <ele>87.6</ele>
        <time>2019-04-07T12:03:53Z</time>
      </trkpt>
      <trkpt lat="48.73303" lon="2.5753">
        <ele>87.48</ele>
        <time>2019-04-07T12:04:31Z</time>
      </trkpt>
      <trkpt lat="48.73303" lon="2.57529">
        <ele>87.68</ele>
        <time>2019-04-07T12:04:59Z</time>
      </trkpt>
      <trkpt lat="48.73309" lon="2.57524">
        <ele>87.42</ele>
        <time>2019-04-07T12:05:14Z</time>
      </trkpt>
      <trkpt lat="48.73316" lon="2.57522">
        <ele>87.6</ele>
        <time>2019-04-07T12:05:22Z</time>
      </trkpt>
      <trkpt lat="48.73336" lon="2.57517">
        <ele>87.26</ele>
        <time>2019-04-07T12:05:40Z</time>
      </trkpt>
      <trkpt lat="48.73355" lon="2.5751">
        <ele>87.51</ele>
        <time>2019-04-07T12:05:58Z</time>
      </trkpt>
      <trkpt lat="48.73374" lon="2.57504">
        <ele>87.49</ele>
        <time>2019-04-07T12:06:15Z</time>
      </trkpt>
      <trkpt lat="48.73394" lon="2.57497">
        <ele>87.8</ele>
        <time>2019-04-07T12:06:34Z</time>
      </trkpt>
      <trkpt lat="48.73411" lon="2.57492">
        <ele>87.87</ele>
        <time>2019-04-07T12:06:51Z</time>
      </trkpt>
      <trkpt lat="48.73417" lon="2.57489">
        <ele>87.45</ele>
        <time>2019-04-07T12:06:58Z</time>
      </trkpt>
      <trkpt lat="48.73423" lon="2.57486">
        <ele>88.1</ele>
        <time>2019-04-07T12:07:03Z</time>
      </trkpt>
      <trkpt lat="48.7344" lon="2.57478">
        <ele>88.17</ele>
        <time>2019-04-07T12:07:20Z</time>
      </trkpt>
      <trkpt lat="48.73455" lon="2.5747">
        <ele>88.08</ele>
        <time>2019-04-07T12:07:36Z</time>
      </trkpt>
      <trkpt lat="48.7347" lon="2.57465">
        <ele>87.94</ele>
        <time>2019-04-07T12:07:50Z</time>
      </trkpt>
      <trkpt lat="48.73481" lon="2.57462">
        <ele>88.11</ele>
        <time>2019-04-07T12:08:04Z</time>
      </trkpt>
      <trkpt lat="48.73505" lon="2.5746">
        <ele>88.05</ele>
        <time>2019-04-07T12:08:22Z</time>
      </trkpt>
      <trkpt lat="48.73524" lon="2.5746">
        <ele>88.31</ele>
        <time>2019-04-07T12:08:38Z</time>
      </trkpt>
      <trkpt lat="48.7354" lon="2.57462">
        <ele>87.82</ele>
        <time>2019-04-07T12:08:57Z</time>
      </trkpt>
      <trkpt lat="48.73557" lon="2.57462">
        <ele>87.85</ele>
        <time>2019-04-07T12:09:17Z</time>
      </trkpt>
      <trkpt lat="48.7356" lon="2.57456">
        <ele>87.91</ele>
        <time>2019-04-07T12:09:41Z</time>
      </trkpt>
      <trkpt lat="48.73563" lon="2.57448">
        <ele>88.19</ele>
        <time>2019-04-07T12:10:06Z</time>
      </trkpt>
      <trkpt lat="48.73563" lon="2.57453">
        <ele>87.43</ele>
        <time>2019-04-07T12:10:31Z</time>
      </trkpt>
      <trkpt lat="48.73561" lon="2.57454">
        <ele>87.72</ele>
        <time>2019-04-07T12:10:56Z</time>
      </trkpt>
      <trkpt lat="48.73562" lon="2.57463">
        <ele>87.62</ele>
        <time>2019-04-07T12:11:22Z</time>
      </trkpt>
      <trkpt lat="48.73566" lon="2.57461">
        <ele>87.65</ele>
        <time>2019-04-07T12:11:50Z</time>
      </trkpt>
      <trkpt lat="48.73567" lon="2.57466">
        <ele>87.72</ele>
        <time>2019-04-07T12:12:15Z</time>
      </trkpt>
      <trkpt lat="48.73564" lon="2.57465">
        <ele>87.87</ele>
        <time>2019-04-07T12:12:43Z</time>
      </trkpt>
      <trkpt lat="48.73563" lon="2.57471">
        <ele>87.97</ele>
        <time>2019-04-07T12:13:08Z</time>
      </trkpt>
      <trkpt lat="48.73565" lon="2.57466">
        <ele>88.23</ele>
        <time>2019-04-07T12:13:34Z</time>
      </trkpt>
      <trkpt lat="48.73566" lon="2.57467">
        <ele>87.64</ele>
        <time>2019-04-07T12:13:55Z</time>
      </trkpt>
      <trkpt lat="48.73585" lon="2.57464">
        <ele>88.15</ele>
        <time>2019-04-07T12:14:18Z</time>
      </trkpt>
      <trkpt lat="48.73606" lon="2.57455">
        <ele>88.31</ele>
        <time>2019-04-07T12:14:38Z</time>
      </trkpt>
      <trkpt lat="48.7362" lon="2.57445">
        <ele>88.2</ele>
        <time>2019-04-07T12:14:53Z</time>
      </trkpt>
      <trkpt lat="48.73641" lon="2.57435">
        <ele>88.15</ele>
        <time>2019-04-07T12:15:11Z</time>
      </trkpt>
      <trkpt lat="48.73651" lon="2.5743">
        <ele>88.17</ele>
        <time>2019-04-07T12:15:24Z</time>
      </trkpt>
      <trkpt lat="48.73661" lon="2.57425">
        <ele>87.91</ele>
        <time>2019-04-07T12:15:35Z</time>
      </trkpt>
      <trkpt lat="48.73684" lon="2.57416">
        <ele>88.31</ele>
        <time>2019-04-07T12:15:52Z</time>
      </trkpt>
      <trkpt lat="48.73703" lon="2.57408">
        <ele>87.54</ele>
        <time>2019-04-07T12:16:07Z</time>
      </trkpt>
      <trkpt lat="48.73711" lon="2.57404">
        <ele>87.7</ele>
        <time>2019-04-07T12:16:14Z</time>
      </trkpt>
      <trkpt lat="48.73728" lon="2.57389">
        <ele>88.07</ele>
        <time>2019-04-07T12:16:33Z</time>
      </trkpt>
      <trkpt lat="48.7374" lon="2.5737">
        <ele>87.28</ele>
        <time>2019-04-07T12:16:49Z</time>
      </trkpt>
      <trkpt lat="48.73751" lon="2.57347">
        <ele>87.85</ele>
        <time>2019-04-07T12:17:07Z</time>
      </trkpt>
      <trkpt lat="48.73761" lon="2.57322">
        <ele>87.03</ele>
        <time>2019-04-07T12:17:26Z</time>
      </trkpt>
      <trkpt lat="48.73772" lon="2.5731">
        <ele>87.12</ele>
        <time>2019-04-07T12:17:47Z</time>
      </trkpt>
      <trkpt lat="48.73785" lon="2.57283">
        <ele>86.13</ele>
        <time>2019-04-07T12:18:12Z</time>
      </trkpt>
      <trkpt lat="48.73787" lon="2.5728">
        <ele>86.49</ele>
        <time>2019-04-07T12:18:14Z</time>
      </trkpt>
      <trkpt lat="48.73793" lon="2.57272">
        <ele>86.46</ele>
        <time>2019-04-07T12:18:20Z</time>
      </trkpt>
      <trkpt lat="48.73805" lon="2.57244">
        <ele>86.21</ele>
        <time>2019-04-07T12:18:39Z</time>
      </trkpt>
      <trkpt lat="48.73815" lon="2.57225">
        <ele>85.82</ele>
        <time>2019-04-07T12:18:54Z</time>
      </trkpt>
      <trkpt lat="48.73828" lon="2.57207">
        <ele>85.68</ele>
        <time>2019-04-07T12:19:09Z</time>
      </trkpt>
      <trkpt lat="48.73831" lon="2.57203">
        <ele>85.54</ele>
        <time>2019-04-07T12:19:12Z</time>
      </trkpt>
      <trkpt lat="48.73845" lon="2.57184">
        <ele>85.36</ele>
        <time>2019-04-07T12:19:29Z</time>
      </trkpt>
      <trkpt lat="48.7386" lon="2.57155">
        <ele>86.07</ele>
        <time>2019-04-07T12:19:51Z</time>
      </trkpt>
      <trkpt lat="48.73868" lon="2.57135">
        <ele>85.61</ele>
        <time>2019-04-07T12:20:05Z</time>
      </trkpt>
      <trkpt lat="48.73871" lon="2.57132">
        <ele>85.03</ele>
        <time>2019-04-07T12:20:07Z</time>
      </trkpt>
      <trkpt lat="48.73886" lon="2.57112">
        <ele>85.78</ele>
        <time>2019-04-07T12:20:23Z</time>
      </trkpt>
      <trkpt lat="48.73896" lon="2.57093">
        <ele>84.92</ele>
        <time>2019-04-07T12:20:39Z</time>
      </trkpt>
      <trkpt lat="48.73907" lon="2.57071">
        <ele>84.54</ele>
        <time>2019-04-07T12:20:57Z</time>
      </trkpt>
      <trkpt lat="48.73916" lon="2.57043">
        <ele>84.75</ele>
        <time>2019-04-07T12:21:15Z</time>
      </trkpt>
      <trkpt lat="48.73924" lon="2.57023">
        <ele>84.62</ele>
        <time>2019-04-07T12:21:30Z</time>
      </trkpt>
      <trkpt lat="48.73936" lon="2.57007">
        <ele>84.25</ele>
        <time>2019-04-07T12:21:45Z</time>
      </trkpt>
      <trkpt lat="48.73952" lon="2.56987">
        <ele>84.19</ele>
        <time>2019-04-07T12:22:05Z</time>
      </trkpt>
      <trkpt lat="48.73968" lon="2.5696">
        <ele>84.01</ele>
        <time>2019-04-07T12:22:24Z</time>
      </trkpt>
      <trkpt lat="48.73969" lon="2.5696">
        <ele>84.17</ele>
        <time>2019-04-07T12:22:32Z</time>
      </trkpt>
      <trkpt lat="48.73974" lon="2.56958">
        <ele>84.09</ele>
        <time>2019-04-07T12:22:39Z</time>
      </trkpt>
      <trkpt lat="48.73996" lon="2.56977">
        <ele>83.14</ele>
        <time>2019-04-07T12:22:57Z</time>
      </trkpt>
      <trkpt lat="48.74015" lon="2.56998">
        <ele>83.32</ele>
        <time>2019-04-07T12:23:17Z</time>
      </trkpt>
      <trkpt lat="48.74025" lon="2.57014">
        <ele>83.6</ele>
        <time>2019-04-07T12:23:36Z</time>
      </trkpt>
      <trkpt lat="48.74031" lon="2.57024">
        <ele>83.46</ele>
        <time>2019-04-07T12:23:43Z</time>
      </trkpt>
      <trkpt lat="48.74037" lon="2.57034">
        <ele>82.94</ele>
        <time>2019-04-07T12:23:50Z</time>
      </trkpt>
      <trkpt lat="48.74052" lon="2.57051">
        <ele>83.18</ele>
        <time>2019-04-07T12:24:07Z</time>
      </trkpt>
      <trkpt lat="48.7407" lon="2.57067">
        <ele>82.81</ele>
        <time>2019-04-07T12:24:25Z</time>
      </trkpt>
      <trkpt lat="48.74082" lon="2.57086">
        <ele>82.91</ele>
        <time>2019-04-07T12:24:42Z</time>
      </trkpt>
      <trkpt lat="48.74086" lon="2.57091">
        <ele>82.04</ele>
        <time>2019-04-07T12:24:46Z</time>
      </trkpt>
      <trkpt lat="48.74096" lon="2.57106">
        <ele>82.3</ele>
        <time>2019-04-07T12:25:00Z</time>
      </trkpt>
      <trkpt lat="48.74107" lon="2.57118">
        <ele>81.75</ele>
        <time>2019-04-07T12:25:17Z</time>
      </trkpt>
      <trkpt lat="48.7411" lon="2.57123">
        <ele>81.71</ele>
        <time>2019-04-07T12:25:21Z</time>
      </trkpt>
      <trkpt lat="48.74125" lon="2.57144">
        <ele>81.99</ele>
        <time>2019-04-07T12:25:38Z</time>
      </trkpt>
      <trkpt lat="48.7414" lon="2.57162">
        <ele>82.12</ele>
        <time>2019-04-07T12:25:55Z</time>
      </trkpt>
      <trkpt lat="48.74153" lon="2.57177">
        <ele>82.54</ele>
        <time>2019-04-07T12:26:11Z</time>
      </trkpt>
      <trkpt lat="48.74166" lon="2.57195">
        <ele>82.51</ele>
        <time>2019-04-07T12:26:28Z</time>
      </trkpt>
      <trkpt lat="48.74175" lon="2.57207">
        <ele>82.96</ele>
        <time>2019-04-07T12:26:40Z</time>
      </trkpt>
      <trkpt lat="48.7418" lon="2.57215">
        <ele>82.88</ele>
        <time>2019-04-07T12:26:46Z</time>
      </trkpt>
      <trkpt lat="48.74194" lon="2.5723">
        <ele>82.27</ele>
        <time>2019-04-07T12:27:02Z</time>
      </trkpt>
      <trkpt lat="48.74204" lon="2.57238">
        <ele>82.45</ele>
        <time>2019-04-07T12:27:22Z</time>
      </trkpt>
      <trkpt lat="48.74208" lon="2.5724">
        <ele>82.89</ele>
        <time>2019-04-07T12:27:38Z</time>
      </trkpt>
      <trkpt lat="48.74207" lon="2.57234">
        <ele>82.47</ele>
        <time>2019-04-07T12:28:02Z</time>
      </trkpt>
      <trkpt lat="48.74214" lon="2.57226">
        <ele>82.31</ele>
        <time>2019-04-07T12:28:19Z</time>
      </trkpt>
      <trkpt lat="48.74224" lon="2.57202">
        <ele>81.86</ele>
        <time>2019-04-07T12:28:36Z</time>
      </trkpt>
      <trkpt lat="48.74227" lon="2.57196">
        <ele>81.84</ele>
        <time>2019-04-07T12:28:39Z</time>
      </trkpt>
      <trkpt lat="48.74234" lon="2.57179">
        <ele>82.52</ele>
        <time>2019-04-07T12:28:53Z</time>
      </trkpt>
      <trkpt lat="48.74246" lon="2.57158">
        <ele>82.22</ele>
        <time>2019-04-07T12:29:08Z</time>
      </trkpt>
      <trkpt lat="48.74252" lon="2.5714">
        <ele>82.5</ele>
        <time>2019-04-07T12:29:23Z</time>
      </trkpt>
      <trkpt lat="48.74261" lon="2.57123">
        <ele>81.91</ele>
        <time>2019-04-07T12:29:35Z</time>
      </trkpt>
      <trkpt lat="48.74268" lon="2.57104">
        <ele>81.84</ele>
        <time>2019-04-07T12:29:52Z</time>
      </trkpt>
      <trkpt lat="48.74274" lon="2.57075">
        <ele>80.9</ele>
        <time>2019-04-07T12:30:11Z</time>
      </trkpt>
      <trkpt lat="48.74281" lon="2.57056">
        <ele>80.78</ele>
        <time>2019-04-07T12:30:30Z</time>
      </trkpt>
      <trkpt lat="48.7429" lon="2.5703">
        <ele>80.45</ele>
        <time>2019-04-07T12:30:51Z</time>
      </trkpt>
      <trkpt lat="48.74297" lon="2.5701">
        <ele>80.07</ele>
        <time>2019-04-07T12:31:06Z</time>
      </trkpt>
      <trkpt lat="48.74313" lon="2.56987">
        <ele>79.78</ele>
        <time>2019-04-07T12:31:27Z</time>
      </trkpt>
      <trkpt lat="48.74337" lon="2.56969">
        <ele>79.13</ele>
        <time>2019-04-07T12:31:45Z</time>
      </trkpt>
      <trkpt lat="48.74356" lon="2.56937">
        <ele>78.07</ele>
        <time>2019-04-07T12:32:05Z</time>
      </trkpt>
      <trkpt lat="48.74365" lon="2.56928">
        <ele>78.25</ele>
        <time>2019-04-07T12:32:22Z</time>
      </trkpt>
      <trkpt lat="48.7437" lon="2.56923">
        <ele>77.33</ele>
        <time>2019-04-07T12:32:46Z</time>
      </trkpt>
      <trkpt lat="48.74377" lon="2.56926">
        <ele>76.77</ele>
        <time>2019-04-07T12:33:15Z</time>
      </trkpt>
      <trkpt lat="48.74387" lon="2.56942">
        <ele>76.26</ele>
        <time>2019-04-07T12:33:35Z</time>
      </trkpt>
      <trkpt lat="48.74397" lon="2.56968">
        <ele>75.78</ele>
        <time>2019-04-07T12:33:55Z</time>
      </trkpt>
      <trkpt lat="48.74401" lon="2.56978">
        <ele>75.52</ele>
        <time>2019-04-07T12:34:01Z</time>
      </trkpt>
      <trkpt lat="48.74408" lon="2.57004">
        <ele>75.8</ele>
        <time>2019-04-07T12:34:16Z</time>
      </trkpt>
      <trkpt lat="48.74404" lon="2.5703">
        <ele>75.85</ele>
        <time>2019-04-07T12:34:31Z</time>
      </trkpt>
      <trkpt lat="48.74414" lon="2.5706">
        <ele>76.2</ele>
        <time>2019-04-07T12:34:47Z</time>
      </trkpt>
      <trkpt lat="48.74421" lon="2.57077">
        <ele>76.29</ele>
        <time>2019-04-07T12:35:02Z</time>
      </trkpt>
      <trkpt lat="48.74419" lon="2.57081">
        <ele>77.24</ele>
        <time>2019-04-07T12:35:15Z</time>
      </trkpt>
      <trkpt lat="48.74422" lon="2.57089">
        <ele>76.94</ele>
        <time>2019-04-07T12:35:28Z</time>
      </trkpt>
      <trkpt lat="48.74426" lon="2.57095">
        <ele>77.41</ele>
        <time>2019-04-07T12:35:39Z</time>
      </trkpt>
      <trkpt lat="48.74434" lon="2.57115">
        <ele>77.74</ele>
        <time>2019-04-07T12:35:57Z</time>
      </trkpt>
      <trkpt lat="48.74436" lon="2.57128">
        <ele>77.43</ele>
        <time>2019-04-07T12:36:07Z</time>
      </trkpt>
      <trkpt lat="48.74449" lon="2.57157">
        <ele>77.77</ele>
        <time>2019-04-07T12:36:28Z</time>
      </trkpt>
      <trkpt lat="48.74456" lon="2.57171">
        <ele>77.78</ele>
        <time>2019-04-07T12:36:41Z</time>
      </trkpt>
      <trkpt lat="48.74459" lon="2.57181">
        <ele>77.87</ele>
        <time>2019-04-07T12:37:00Z</time>
      </trkpt>
      <trkpt lat="48.74468" lon="2.57196">
        <ele>78</ele>
        <time>2019-04-07T12:37:18Z</time>
      </trkpt>
      <trkpt lat="48.74476" lon="2.57222">
        <ele>77.92</ele>
        <time>2019-04-07T12:37:39Z</time>
      </trkpt>
      <trkpt lat="48.74485" lon="2.57244">
        <ele>77.16</ele>
        <time>2019-04-07T12:37:57Z</time>
      </trkpt>
      <trkpt lat="48.74498" lon="2.57275">
        <ele>77.64</ele>
        <time>2019-04-07T12:38:16Z</time>
      </trkpt>
      <trkpt lat="48.74511" lon="2.57298">
        <ele>77.65</ele>
        <time>2019-04-07T12:38:33Z</time>
      </trkpt>
      <trkpt lat="48.74518" lon="2.57286">
        <ele>77.29</ele>
        <time>2019-04-07T12:38:46Z</time>
      </trkpt>
      <trkpt lat="48.74527" lon="2.57271">
        <ele>77.33</ele>
        <time>2019-04-07T12:39:03Z</time>
      </trkpt>
      <trkpt lat="48.74537" lon="2.57243">
        <ele>77.28</ele>
        <time>2019-04-07T12:39:24Z</time>
      </trkpt>
      <trkpt lat="48.74544" lon="2.5722">
        <ele>77.17</ele>
        <time>2019-04-07T12:39:41Z</time>
      </trkpt>
      <trkpt lat="48.7455" lon="2.57196">
        <ele>77.13</ele>
        <time>2019-04-07T12:40:01Z</time>
      </trkpt>
      <trkpt lat="48.74557" lon="2.57166">
        <ele>76.52</ele>
        <time>2019-04-07T12:40:21Z</time>
      </trkpt>
      <trkpt lat="48.74561" lon="2.57142">
        <ele>76.35</ele>
        <time>2019-04-07T12:40:37Z</time>
      </trkpt>
      <trkpt lat="48.74564" lon="2.57125">
        <ele>75.92</ele>
        <time>2019-04-07T12:40:50Z</time>
      </trkpt>
      <trkpt lat="48.74575" lon="2.57106">
        <ele>76.06</ele>
        <time>2019-04-07T12:41:07Z</time>
      </trkpt>
      <trkpt lat="48.74583" lon="2.57076">
        <ele>76</ele>
        <time>2019-04-07T12:41:25Z</time>
      </trkpt>
      <trkpt lat="48.74586" lon="2.57051">
        <ele>75.04</ele>
        <time>2019-04-07T12:41:42Z</time>
      </trkpt>
      <trkpt lat="48.74591" lon="2.57028">
        <ele>74.09</ele>
        <time>2019-04-07T12:42:02Z</time>
      </trkpt>
      <trkpt lat="48.74594" lon="2.57003">
        <ele>74.41</ele>
        <time>2019-04-07T12:42:21Z</time>
      </trkpt>
      <trkpt lat="48.74597" lon="2.56995">
        <ele>74.42</ele>
        <time>2019-04-07T12:42:25Z</time>
      </trkpt>
      <trkpt lat="48.74606" lon="2.56964">
        <ele>75.03</ele>
        <time>2019-04-07T12:42:45Z</time>
      </trkpt>
      <trkpt lat="48.74611" lon="2.56949">
        <ele>74.84</ele>
        <time>2019-04-07T12:43:04Z</time>
      </trkpt>
      <trkpt lat="48.74612" lon="2.56946">
        <ele>74.65</ele>
        <time>2019-04-07T12:43:06Z</time>
      </trkpt>
      <trkpt lat="48.74617" lon="2.56924">
        <ele>74.48</ele>
        <time>2019-04-07T12:43:21Z</time>
      </trkpt>
      <trkpt lat="48.74622" lon="2.56902">
        <ele>74.62</ele>
        <time>2019-04-07T12:43:39Z</time>
      </trkpt>
      <trkpt lat="48.74628" lon="2.56875">
        <ele>73.71</ele>
        <time>2019-04-07T12:43:59Z</time>
      </trkpt>
      <trkpt lat="48.74634" lon="2.56851">
        <ele>73.9</ele>
        <time>2019-04-07T12:44:14Z</time>
      </trkpt>
      <trkpt lat="48.74641" lon="2.5682">
        <ele>73.94</ele>
        <time>2019-04-07T12:44:34Z</time>
      </trkpt>
      <trkpt lat="48.74642" lon="2.56798">
        <ele>73.46</ele>
        <time>2019-04-07T12:44:48Z</time>
      </trkpt>
      <trkpt lat="48.74648" lon="2.56771">
        <ele>73.55</ele>
        <time>2019-04-07T12:45:07Z</time>
      </trkpt>
      <trkpt lat="48.74656" lon="2.56747">
        <ele>73.01</ele>
        <time>2019-04-07T12:45:20Z</time>
      </trkpt>
      <trkpt lat="48.74663" lon="2.56726">
        <ele>72.46</ele>
        <time>2019-04-07T12:45:37Z</time>
      </trkpt>
      <trkpt lat="48.74668" lon="2.56697">
        <ele>72.82</ele>
        <time>2019-04-07T12:45:57Z</time>
      </trkpt>
      <trkpt lat="48.74675" lon="2.56665">
        <ele>72.58</ele>
        <time>2019-04-07T12:46:15Z</time>
      </trkpt>
      <trkpt lat="48.7468" lon="2.56636">
        <ele>72.69</ele>
        <time>2019-04-07T12:46:33Z</time>
      </trkpt>
      <trkpt lat="48.74688" lon="2.5661">
        <ele>72.09</ele>
        <time>2019-04-07T12:46:52Z</time>
      </trkpt>
      <trkpt lat="48.74695" lon="2.56583">
        <ele>72.32</ele>
        <time>2019-04-07T12:47:06Z</time>
      </trkpt>
      <trkpt lat="48.74697" lon="2.56576">
        <ele>71.56</ele>
        <time>2019-04-07T12:47:25Z</time>
      </trkpt>
      <trkpt lat="48.747" lon="2.56559">
        <ele>70.91</ele>
        <time>2019-04-07T12:47:43Z</time>
      </trkpt>
      <trkpt lat="48.74704" lon="2.56538">
        <ele>71.13</ele>
        <time>2019-04-07T12:47:57Z</time>
      </trkpt>
      <trkpt lat="48.74711" lon="2.56515">
        <ele>71.11</ele>
        <time>2019-04-07T12:48:15Z</time>
      </trkpt>
      <trkpt lat="48.7472" lon="2.56491">
        <ele>71.46</ele>
        <time>2019-04-07T12:48:33Z</time>
      </trkpt>
      <trkpt lat="48.74726" lon="2.56464">
        <ele>70.76</ele>
        <time>2019-04-07T12:48:48Z</time>
      </trkpt>
      <trkpt lat="48.74731" lon="2.56431">
        <ele>70.92</ele>
        <time>2019-04-07T12:49:07Z</time>
      </trkpt>
      <trkpt lat="48.74732" lon="2.56428">
        <ele>70.9</ele>
        <time>2019-04-07T12:49:08Z</time>
      </trkpt>
      <trkpt lat="48.74738" lon="2.56405">
        <ele>70.55</ele>
        <time>2019-04-07T12:49:25Z</time>
      </trkpt>
      <trkpt lat="48.7474" lon="2.56399">
        <ele>69.72</ele>
        <time>2019-04-07T12:49:30Z</time>
      </trkpt>
      <trkpt lat="48.74747" lon="2.56381">
        <ele>70.23</ele>
        <time>2019-04-07T12:49:44Z</time>
      </trkpt>
      <trkpt lat="48.74752" lon="2.56362">
        <ele>69.87</ele>
        <time>2019-04-07T12:49:53Z</time>
      </trkpt>
      <trkpt lat="48.74753" lon="2.56341">
        <ele>69.57</ele>
        <time>2019-04-07T12:50:09Z</time>
      </trkpt>
      <trkpt lat="48.74756" lon="2.5633">
        <ele>69.6</ele>
        <time>2019-04-07T12:50:16Z</time>
      </trkpt>
      <trkpt lat="48.74765" lon="2.56309">
        <ele>69.33</ele>
        <time>2019-04-07T12:50:32Z</time>
      </trkpt>
      <trkpt lat="48.74773" lon="2.56291">
        <ele>69.41</ele>
        <time>2019-04-07T12:50:50Z</time>
      </trkpt>
      <trkpt lat="48.7478" lon="2.56274">
        <ele>69.45</ele>
        <time>2019-04-07T12:51:09Z</time>
      </trkpt>
      <trkpt lat="48.74777" lon="2.56265">
        <ele>69.27</ele>
        <time>2019-04-07T12:51:32Z</time>
      </trkpt>
      <trkpt lat="48.74773" lon="2.56262">
        <ele>69.6</ele>
        <time>2019-04-07T12:51:53Z</time>
      </trkpt>
      <trkpt lat="48.7477" lon="2.56253">
        <ele>69.15</ele>
        <time>2019-04-07T12:52:08Z</time>
      </trkpt>
      <trkpt lat="48.74769" lon="2.56249">
        <ele>69.01</ele>
        <time>2019-04-07T12:52:35Z</time>
      </trkpt>
      <trkpt lat="48.7477" lon="2.56242">
        <ele>69.59</ele>
        <time>2019-04-07T12:52:44Z</time>
      </trkpt>
      <trkpt lat="48.74769" lon="2.56246">
        <ele>68.63</ele>
        <time>2019-04-07T12:52:58Z</time>
      </trkpt>
      <trkpt lat="48.74769" lon="2.56252">
        <ele>68.75</ele>
        <time>2019-04-07T12:53:22Z</time>
      </trkpt>
      <trkpt lat="48.7477" lon="2.56246">
        <ele>69.04</ele>
        <time>2019-04-07T12:53:41Z</time>
      </trkpt>
      <trkpt lat="48.74769" lon="2.56233">
        <ele>68.91</ele>
        <time>2019-04-07T12:54:05Z</time>
      </trkpt>
      <trkpt lat="48.74767" lon="2.56229">
        <ele>69.3</ele>
        <time>2019-04-07T12:54:11Z</time>
      </trkpt>
      <trkpt lat="48.74759" lon="2.56216">
        <ele>68.57</ele>
        <time>2019-04-07T12:54:30Z</time>
      </trkpt>
      <trkpt lat="48.74748" lon="2.56206">
        <ele>68.82</ele>
        <time>2019-04-07T12:54:45Z</time>
      </trkpt>
      <trkpt lat="48.74737" lon="2.56206">
        <ele>69.13</ele>
        <time>2019-04-07T12:55:01Z</time>
      </trkpt>
      <trkpt lat="48.74716" lon="2.56201">
        <ele>69.05</ele>
        <time>2019-04-07T12:55:21Z</time>
      </trkpt>
      <trkpt lat="48.747" lon="2.56188">
        <ele>68.06</ele>
        <time>2019-04-07T12:55:40Z</time>
      </trkpt>
      <trkpt lat="48.74696" lon="2.56182">
        <ele>69.18</ele>
        <time>2019-04-07T12:55:42Z</time>
      </trkpt>
      <trkpt lat="48.74683" lon="2.56165">
        <ele>67.85</ele>
        <time>2019-04-07T12:55:57Z</time>
      </trkpt>
      <trkpt lat="48.74668" lon="2.56156">
        <ele>67.93</ele>
        <time>2019-04-07T12:56:13Z</time>
      </trkpt>
      <trkpt lat="48.74655" lon="2.56145">
        <ele>67.78</ele>
        <time>2019-04-07T12:56:30Z</time>
      </trkpt>
      <trkpt lat="48.74637" lon="2.56133">
        <ele>67.88</ele>
        <time>2019-04-07T12:56:47Z</time>
      </trkpt>
      <trkpt lat="48.74625" lon="2.56121">
        <ele>67.1</ele>
        <time>2019-04-07T12:57:00Z</time>
      </trkpt>
      <trkpt lat="48.74613" lon="2.56104">
        <ele>67.41</ele>
        <time>2019-04-07T12:57:15Z</time>
      </trkpt>
      <trkpt lat="48.74607" lon="2.56101">
        <ele>66.8</ele>
        <time>2019-04-07T12:57:21Z</time>
      </trkpt>
      <trkpt lat="48.74595" lon="2.56076">
        <ele>66.87</ele>
        <time>2019-04-07T12:57:38Z</time>
      </trkpt>
      <trkpt lat="48.74592" lon="2.56068">
        <ele>66.96</ele>
        <time>2019-04-07T12:57:41Z</time>
      </trkpt>
      <trkpt lat="48.74585" lon="2.5603">
        <ele>66.51</ele>
        <time>2019-04-07T12:57:57Z</time>
      </trkpt>
      <trkpt lat="48.74583" lon="2.56009">
        <ele>65.92</ele>
        <time>2019-04-07T12:58:12Z</time>
      </trkpt>
      <trkpt lat="48.74581" lon="2.55987">
        <ele>66.44</ele>
        <time>2019-04-07T12:58:30Z</time>
      </trkpt>
      <trkpt lat="48.74585" lon="2.55953">
        <ele>65.91</ele>
        <time>2019-04-07T12:58:50Z</time>
      </trkpt>
      <trkpt lat="48.74581" lon="2.55927">
        <ele>65.76</ele>
        <time>2019-04-07T12:59:06Z</time>
      </trkpt>
      <trkpt lat="48.74575" lon="2.55891">
        <ele>65.74</ele>
        <time>2019-04-07T12:59:23Z</time>
      </trkpt>
      <trkpt lat="48.74576" lon="2.55889">
        <ele>65.68</ele>
        <time>2019-04-07T12:59:25Z</time>
      </trkpt>
      <trkpt lat="48.7458" lon="2.55876">
        <ele>65.42</ele>
        <time>2019-04-07T12:59:41Z</time>
      </trkpt>
      <trkpt lat="48.74592" lon="2.55851">
        <ele>64.75</ele>
        <time>2019-04-07T12:59:58Z</time>
      </trkpt>
      <trkpt lat="48.74607" lon="2.55828">
        <ele>64.53</ele>
        <time>2019-04-07T13:00:16Z</time>
      </trkpt>
      <trkpt lat="48.74609" lon="2.55824">
        <ele>64.98</ele>
        <time>2019-04-07T13:00:21Z</time>
      </trkpt>
      <trkpt lat="48.74619" lon="2.558">
        <ele>64.44</ele>
        <time>2019-04-07T13:00:37Z</time>
      </trkpt>
      <trkpt lat="48.74631" lon="2.55782">
        <ele>64.22</ele>
        <time>2019-04-07T13:00:51Z</time>
      </trkpt>
      <trkpt lat="48.74646" lon="2.55756">
        <ele>63.9</ele>
        <time>2019-04-07T13:01:11Z</time>
      </trkpt>
      <trkpt lat="48.7466" lon="2.55733">
        <ele>63.48</ele>
        <time>2019-04-07T13:01:28Z</time>
      </trkpt>
      <trkpt lat="48.74666" lon="2.55721">
        <ele>63.28</ele>
        <time>2019-04-07T13:01:40Z</time>
      </trkpt>
      <trkpt lat="48.74671" lon="2.55718">
        <ele>64.04</ele>
        <time>2019-04-07T13:02:01Z</time>
      </trkpt>
      <trkpt lat="48.7467" lon="2.55715">
        <ele>63.72</ele>
        <time>2019-04-07T13:02:37Z</time>
      </trkpt>
      <trkpt lat="48.74669" lon="2.55716">
        <ele>63.16</ele>
        <time>2019-04-07T13:03:21Z</time>
      </trkpt>
      <trkpt lat="48.74671" lon="2.55716">
        <ele>63.96</ele>
        <time>2019-04-07T13:04:01Z</time>
      </trkpt>
      <trkpt lat="48.7467" lon="2.55713">
        <ele>63.99</ele>
        <time>2019-04-07T13:04:20Z</time>
      </trkpt>
      <trkpt lat="48.74672" lon="2.55707">
        <ele>64.21</ele>
        <time>2019-04-07T13:04:44Z</time>
      </trkpt>
      <trkpt lat="48.74674" lon="2.55695">
        <ele>64.77</ele>
        <time>2019-04-07T13:05:00Z</time>
      </trkpt>
      <trkpt lat="48.74685" lon="2.55674">
        <ele>63.32</ele>
        <time>2019-04-07T13:05:17Z</time>
      </trkpt>
      <trkpt lat="48.74692" lon="2.55658">
        <ele>63.85</ele>
        <time>2019-04-07T13:05:33Z</time>
      </trkpt>
      <trkpt lat="48.74704" lon="2.55638">
        <ele>62.99</ele>
        <time>2019-04-07T13:05:51Z</time>
      </trkpt>
      <trkpt lat="48.74717" lon="2.55621">
        <ele>63.58</ele>
        <time>2019-04-07T13:06:06Z</time>
      </trkpt>
      <trkpt lat="48.74725" lon="2.55599">
        <ele>62.95</ele>
        <time>2019-04-07T13:06:22Z</time>
      </trkpt>
      <trkpt lat="48.74733" lon="2.55586">
        <ele>62.62</ele>
        <time>2019-04-07T13:06:39Z</time>
      </trkpt>
      <trkpt lat="48.74743" lon="2.55568">
        <ele>62.17</ele>
        <time>2019-04-07T13:06:55Z</time>
      </trkpt>
      <trkpt lat="48.74748" lon="2.55561">
        <ele>62.04</ele>
        <time>2019-04-07T13:06:59Z</time>
      </trkpt>
      <trkpt lat="48.74752" lon="2.5555">
        <ele>62.16</ele>
        <time>2019-04-07T13:07:05Z</time>
      </trkpt>
      <trkpt lat="48.74756" lon="2.55545">
        <ele>61.51</ele>
        <time>2019-04-07T13:07:08Z</time>
      </trkpt>
      <trkpt lat="48.74768" lon="2.55525">
        <ele>62.14</ele>
        <time>2019-04-07T13:07:25Z</time>
      </trkpt>
      <trkpt lat="48.74774" lon="2.55512">
        <ele>61.52</ele>
        <time>2019-04-07T13:07:41Z</time>
      </trkpt>
      <trkpt lat="48.74787" lon="2.55487">
        <ele>61.66</ele>
        <time>2019-04-07T13:07:58Z</time>
      </trkpt>
      <trkpt lat="48.7479" lon="2.55481">
        <ele>61.75</ele>
        <time>2019-04-07T13:08:06Z</time>
      </trkpt>
      <trkpt lat="48.74805" lon="2.55462">
        <ele>61.73</ele>
        <time>2019-04-07T13:08:21Z</time>
      </trkpt>
      <trkpt lat="48.74808" lon="2.55456">
        <ele>61.83</ele>
        <time>2019-04-07T13:08:25Z</time>
      </trkpt>
      <trkpt lat="48.74819" lon="2.55433">
        <ele>62.31</ele>
        <time>2019-04-07T13:08:41Z</time>
      </trkpt>
      <trkpt lat="48.7482" lon="2.55429">
        <ele>61.69</ele>
        <time>2019-04-07T13:08:43Z</time>
      </trkpt>
      <trkpt lat="48.74834" lon="2.55412">
        <ele>61.6</ele>
        <time>2019-04-07T13:08:56Z</time>
      </trkpt>
      <trkpt lat="48.74848" lon="2.55392">
        <ele>62.66</ele>
        <time>2019-04-07T13:09:10Z</time>
      </trkpt>
      <trkpt lat="48.74856" lon="2.5538">
        <ele>62.49</ele>
        <time>2019-04-07T13:09:22Z</time>
      </trkpt>
      <trkpt lat="48.7487" lon="2.55358">
        <ele>62.66</ele>
        <time>2019-04-07T13:09:40Z</time>
      </trkpt>
      <trkpt lat="48.74882" lon="2.55336">
        <ele>63.17</ele>
        <time>2019-04-07T13:09:55Z</time>
      </trkpt>
      <trkpt lat="48.74895" lon="2.55314">
        <ele>63.3</ele>
        <time>2019-04-07T13:10:13Z</time>
      </trkpt>
      <trkpt lat="48.74905" lon="2.55291">
        <ele>64.29</ele>
        <time>2019-04-07T13:10:32Z</time>
      </trkpt>
      <trkpt lat="48.74912" lon="2.55269">
        <ele>63.55</ele>
        <time>2019-04-07T13:10:47Z</time>
      </trkpt>
      <trkpt lat="48.74918" lon="2.55251">
        <ele>64.16</ele>
        <time>2019-04-07T13:11:02Z</time>
      </trkpt>
      <trkpt lat="48.74924" lon="2.55219">
        <ele>63.21</ele>
        <time>2019-04-07T13:11:20Z</time>
      </trkpt>
      <trkpt lat="48.74924" lon="2.55218">
        <ele>63.25</ele>
        <time>2019-04-07T13:11:21Z</time>
      </trkpt>
      <trkpt lat="48.74929" lon="2.55197">
        <ele>63.07</ele>
        <time>2019-04-07T13:11:34Z</time>
      </trkpt>
      <trkpt lat="48.74936" lon="2.55166">
        <ele>63.37</ele>
        <time>2019-04-07T13:11:49Z</time>
      </trkpt>
      <trkpt lat="48.7495" lon="2.55133">
        <ele>63.93</ele>
        <time>2019-04-07T13:12:08Z</time>
      </trkpt>
      <trkpt lat="48.74958" lon="2.55107">
        <ele>63.47</ele>
        <time>2019-04-07T13:12:24Z</time>
      </trkpt>
      <trkpt lat="48.74969" lon="2.55079">
        <ele>64.23</ele>
        <time>2019-04-07T13:12:44Z</time>
      </trkpt>
      <trkpt lat="48.74975" lon="2.55054">
        <ele>64.42</ele>
        <time>2019-04-07T13:13:00Z</time>
      </trkpt>
      <trkpt lat="48.7498" lon="2.55024">
        <ele>63.61</ele>
        <time>2019-04-07T13:13:21Z</time>
      </trkpt>
      <trkpt lat="48.74992" lon="2.54988">
        <ele>64.23</ele>
        <time>2019-04-07T13:13:42Z</time>
      </trkpt>
      <trkpt lat="48.74997" lon="2.54957">
        <ele>63.85</ele>
        <time>2019-04-07T13:14:00Z</time>
      </trkpt>
      <trkpt lat="48.75006" lon="2.54921">
        <ele>63.48</ele>
        <time>2019-04-07T13:14:22Z</time>
      </trkpt>
      <trkpt lat="48.75016" lon="2.54894">
        <ele>62.78</ele>
        <time>2019-04-07T13:14:39Z</time>
      </trkpt>
      <trkpt lat="48.75029" lon="2.54862">
        <ele>63.43</ele>
        <time>2019-04-07T13:14:55Z</time>
      </trkpt>
      <trkpt lat="48.75034" lon="2.54851">
        <ele>61.88</ele>
        <time>2019-04-07T13:15:02Z</time>
      </trkpt>
      <trkpt lat="48.7504" lon="2.54828">
        <ele>62.5</ele>
        <time>2019-04-07T13:15:17Z</time>
      </trkpt>
      <trkpt lat="48.75052" lon="2.54793">
        <ele>62.26</ele>
        <time>2019-04-07T13:15:35Z</time>
      </trkpt>
      <trkpt lat="48.75057" lon="2.54771">
        <ele>62.32</ele>
        <time>2019-04-07T13:15:50Z</time>
      </trkpt>
      <trkpt lat="48.75066" lon="2.54741">
        <ele>62.48</ele>
        <time>2019-04-07T13:16:07Z</time>
      </trkpt>
      <trkpt lat="48.75067" lon="2.54737">
        <ele>62.46</ele>
        <time>2019-04-07T13:16:09Z</time>
      </trkpt>
      <trkpt lat="48.75072" lon="2.54709">
        <ele>62.59</ele>
        <time>2019-04-07T13:16:24Z</time>
      </trkpt>
      <trkpt lat="48.75081" lon="2.54687">
        <ele>62.3</ele>
        <time>2019-04-07T13:16:38Z</time>
      </trkpt>
      <trkpt lat="48.75087" lon="2.54659">
        <ele>62.09</ele>
        <time>2019-04-07T13:16:56Z</time>
      </trkpt>
      <trkpt lat="48.75092" lon="2.54645">
        <ele>62.09</ele>
        <time>2019-04-07T13:17:06Z</time>
      </trkpt>
      <trkpt lat="48.75094" lon="2.54641">
        <ele>62.25</ele>
        <time>2019-04-07T13:17:08Z</time>
      </trkpt>
      <trkpt lat="48.75098" lon="2.54622">
        <ele>62.71</ele>
        <time>2019-04-07T13:17:20Z</time>
      </trkpt>
      <trkpt lat="48.75099" lon="2.5461">
        <ele>63.2</ele>
        <time>2019-04-07T13:17:29Z</time>
      </trkpt>
      <trkpt lat="48.75098" lon="2.54602">
        <ele>62.14</ele>
        <time>2019-04-07T13:17:48Z</time>
      </trkpt>
      <trkpt lat="48.75101" lon="2.54597">
        <ele>63.25</ele>
        <time>2019-04-07T13:18:08Z</time>
      </trkpt>
      <trkpt lat="48.75098" lon="2.54598">
        <ele>63.27</ele>
        <time>2019-04-07T13:18:33Z</time>
      </trkpt>
      <trkpt lat="48.75098" lon="2.54596">
        <ele>63.46</ele>
        <time>2019-04-07T13:18:56Z</time>
      </trkpt>
      <trkpt lat="48.75097" lon="2.54596">
        <ele>63.89</ele>
        <time>2019-04-07T13:19:21Z</time>
      </trkpt>
      <trkpt lat="48.75096" lon="2.54594">
        <ele>64.45</ele>
        <time>2019-04-07T13:19:45Z</time>
      </trkpt>
      <trkpt lat="48.75088" lon="2.54589">
        <ele>64.54</ele>
        <time>2019-04-07T13:19:58Z</time>
      </trkpt>
      <trkpt lat="48.75077" lon="2.5458">
        <ele>64.33</ele>
        <time>2019-04-07T13:20:15Z</time>
      </trkpt>
      <trkpt lat="48.75055" lon="2.54563">
        <ele>64.53</ele>
        <time>2019-04-07T13:20:32Z</time>
      </trkpt>
      <trkpt lat="48.75042" lon="2.54553">
        <ele>64.84</ele>
        <time>2019-04-07T13:20:46Z</time>
      </trkpt>
      <trkpt lat="48.75027" lon="2.54549">
        <ele>64.43</ele>
        <time>2019-04-07T13:21:03Z</time>
      </trkpt>
      <trkpt lat="48.75014" lon="2.54537">
        <ele>64.14</ele>
        <time>2019-04-07T13:21:19Z</time>
      </trkpt>
      <trkpt lat="48.74996" lon="2.54525">
        <ele>64.82</ele>
        <time>2019-04-07T13:21:32Z</time>
      </trkpt>
      <trkpt lat="48.74983" lon="2.54513">
        <ele>64.88</ele>
        <time>2019-04-07T13:21:44Z</time>
      </trkpt>
      <trkpt lat="48.74966" lon="2.54493">
        <ele>65.02</ele>
        <time>2019-04-07T13:21:59Z</time>
      </trkpt>
      <trkpt lat="48.74962" lon="2.54493">
        <ele>65.03</ele>
        <time>2019-04-07T13:22:02Z</time>
      </trkpt>
      <trkpt lat="48.74951" lon="2.54493">
        <ele>64.88</ele>
        <time>2019-04-07T13:22:13Z</time>
      </trkpt>
      <trkpt lat="48.7494" lon="2.54481">
        <ele>64.93</ele>
        <time>2019-04-07T13:22:36Z</time>
      </trkpt>
      <trkpt lat="48.74924" lon="2.54462">
        <ele>65.06</ele>
        <time>2019-04-07T13:22:56Z</time>
      </trkpt>
      <trkpt lat="48.74907" lon="2.54449">
        <ele>64.34</ele>
        <time>2019-04-07T13:23:15Z</time>
      </trkpt>
      <trkpt lat="48.74902" lon="2.5445">
        <ele>64.59</ele>
        <time>2019-04-07T13:23:40Z</time>
      </trkpt>
      <trkpt lat="48.74897" lon="2.54446">
        <ele>64.67</ele>
        <time>2019-04-07T13:23:51Z</time>
      </trkpt>
      <trkpt lat="48.74893" lon="2.54431">
        <ele>65.26</ele>
        <time>2019-04-07T13:24:08Z</time>
      </trkpt>
      <trkpt lat="48.74892" lon="2.54413">
        <ele>65.4</ele>
        <time>2019-04-07T13:24:26Z</time>
      </trkpt>
      <trkpt lat="48.74893" lon="2.54413">
        <ele>65.64</ele>
        <time>2019-04-07T13:24:47Z</time>
      </trkpt>
      <trkpt lat="48.749" lon="2.544">
        <ele>65.75</ele>
        <time>2019-04-07T13:25:05Z</time>
      </trkpt>
      <trkpt lat="48.74907" lon="2.54373">
        <ele>64.92</ele>
        <time>2019-04-07T13:25:25Z</time>
      </trkpt>
      <trkpt lat="48.7491" lon="2.54354">
        <ele>65.5</ele>
        <time>2019-04-07T13:25:33Z</time>
      </trkpt>
      <trkpt lat="48.74911" lon="2.5435">
        <ele>66.18</ele>
        <time>2019-04-07T13:25:35Z</time>
      </trkpt>
      <trkpt lat="48.74915" lon="2.54333">
        <ele>65.47</ele>
        <time>2019-04-07T13:25:50Z</time>
      </trkpt>
      <trkpt lat="48.74916" lon="2.54328">
        <ele>65.56</ele>
        <time>2019-04-07T13:25:54Z</time>
      </trkpt>
      <trkpt lat="48.7493" lon="2.54308">
        <ele>65.92</ele>
        <time>2019-04-07T13:26:14Z</time>
      </trkpt>
      <trkpt lat="48.74941" lon="2.54299">
        <ele>65.32</ele>
        <time>2019-04-07T13:26:34Z</time>
      </trkpt>
      <trkpt lat="48.74943" lon="2.54294">
        <ele>66.44</ele>
        <time>2019-04-07T13:26:58Z</time>
      </trkpt>
      <trkpt lat="48.74939" lon="2.54285">
        <ele>65.93</ele>
        <time>2019-04-07T13:27:19Z</time>
      </trkpt>
      <trkpt lat="48.74935" lon="2.54269">
        <ele>66.15</ele>
        <time>2019-04-07T13:27:38Z</time>
      </trkpt>
      <trkpt lat="48.74933" lon="2.54244">
        <ele>66.53</ele>
        <time>2019-04-07T13:27:58Z</time>
      </trkpt>
      <trkpt lat="48.74938" lon="2.54221">
        <ele>66.07</ele>
        <time>2019-04-07T13:28:12Z</time>
      </trkpt>
      <trkpt lat="48.74943" lon="2.54197">
        <ele>66.33</ele>
        <time>2019-04-07T13:28:25Z</time>
      </trkpt>
      <trkpt lat="48.74944" lon="2.54194">
        <ele>65.99</ele>
        <time>2019-04-07T13:28:26Z</time>
      </trkpt>
      <trkpt lat="48.74948" lon="2.54177">
        <ele>66.14</ele>
        <time>2019-04-07T13:28:35Z</time>
      </trkpt>
      <trkpt lat="48.74952" lon="2.54156">
        <ele>66.55</ele>
        <time>2019-04-07T13:28:49Z</time>
      </trkpt>
      <trkpt lat="48.74958" lon="2.54128">
        <ele>66.06</ele>
        <time>2019-04-07T13:29:04Z</time>
      </trkpt>
      <trkpt lat="48.74962" lon="2.54105">
        <ele>66.33</ele>
        <time>2019-04-07T13:29:18Z</time>
      </trkpt>
      <trkpt lat="48.74966" lon="2.5408">
        <ele>65.96</ele>
        <time>2019-04-07T13:29:33Z</time>
      </trkpt>
      <trkpt lat="48.7497" lon="2.54058">
        <ele>66.33</ele>
        <time>2019-04-07T13:29:47Z</time>
      </trkpt>
      <trkpt lat="48.7497" lon="2.54056">
        <ele>66.38</ele>
        <time>2019-04-07T13:29:48Z</time>
      </trkpt>
      <trkpt lat="48.74972" lon="2.54035">
        <ele>66.85</ele>
        <time>2019-04-07T13:30:00Z</time>
      </trkpt>
      <trkpt lat="48.74971" lon="2.54028">
        <ele>67.37</ele>
        <time>2019-04-07T13:30:19Z</time>
      </trkpt>
      <trkpt lat="48.74969" lon="2.54023">
        <ele>67.08</ele>
        <time>2019-04-07T13:30:31Z</time>
      </trkpt>
      <trkpt lat="48.74966" lon="2.54022">
        <ele>67.42</ele>
        <time>2019-04-07T13:30:41Z</time>
      </trkpt>
      <trkpt lat="48.74962" lon="2.54017">
        <ele>67.1</ele>
        <time>2019-04-07T13:30:47Z</time>
      </trkpt>
      <trkpt lat="48.74956" lon="2.54014">
        <ele>67.51</ele>
        <time>2019-04-07T13:30:55Z</time>
      </trkpt>
      <trkpt lat="48.74941" lon="2.54002">
        <ele>67.08</ele>
        <time>2019-04-07T13:31:10Z</time>
      </trkpt>
      <trkpt lat="48.74923" lon="2.53989">
        <ele>67.41</ele>
        <time>2019-04-07T13:31:28Z</time>
      </trkpt>
      <trkpt lat="48.74913" lon="2.53979">
        <ele>68.32</ele>
        <time>2019-04-07T13:31:42Z</time>
      </trkpt>
      <trkpt lat="48.74911" lon="2.53932">
        <ele>68.52</ele>
        <time>2019-04-07T13:32:08Z</time>
      </trkpt>
      <trkpt lat="48.749" lon="2.53908">
        <ele>68.32</ele>
        <time>2019-04-07T13:32:25Z</time>
      </trkpt>
      <trkpt lat="48.7489" lon="2.53894">
        <ele>68.97</ele>
        <time>2019-04-07T13:32:39Z</time>
      </trkpt>
      <trkpt lat="48.74883" lon="2.53879">
        <ele>68.7</ele>
        <time>2019-04-07T13:32:51Z</time>
      </trkpt>
      <trkpt lat="48.74881" lon="2.53877">
        <ele>68.79</ele>
        <time>2019-04-07T13:32:53Z</time>
      </trkpt>
      <trkpt lat="48.74868" lon="2.53853">
        <ele>69.27</ele>
        <time>2019-04-07T13:38:22Z</time>
      </trkpt>
      <trkpt lat="48.74856" lon="2.53879">
        <ele>69.34</ele>
        <time>2019-04-07T13:38:36Z</time>
      </trkpt>
      <trkpt lat="48.74839" lon="2.53884">
        <ele>69.9</ele>
        <time>2019-04-07T13:38:52Z</time>
      </trkpt>
      <trkpt lat="48.74835" lon="2.53885">
        <ele>70.02</ele>
        <time>2019-04-07T13:39:09Z</time>
      </trkpt>
      <trkpt lat="48.74834" lon="2.53887">
        <ele>70.24</ele>
        <time>2019-04-07T13:39:31Z</time>
      </trkpt>
      <trkpt lat="48.74837" lon="2.53885">
        <ele>70.3</ele>
        <time>2019-04-07T13:39:54Z</time>
      </trkpt>
      <trkpt lat="48.74823" lon="2.53889">
        <ele>70.49</ele>
        <time>2019-04-07T13:40:13Z</time>
      </trkpt>
      <trkpt lat="48.74803" lon="2.53884">
        <ele>70.5</ele>
        <time>2019-04-07T13:40:33Z</time>
      </trkpt>
      <trkpt lat="48.7479" lon="2.53868">
        <ele>70.17</ele>
        <time>2019-04-07T13:40:48Z</time>
      </trkpt>
      <trkpt lat="48.74776" lon="2.53859">
        <ele>69.51</ele>
        <time>2019-04-07T13:41:02Z</time>
      </trkpt>
      <trkpt lat="48.7477" lon="2.53855">
        <ele>70.64</ele>
        <time>2019-04-07T13:41:07Z</time>
      </trkpt>
      <trkpt lat="48.74765" lon="2.53851">
        <ele>70.74</ele>
        <time>2019-04-07T13:41:28Z</time>
      </trkpt>
      <trkpt lat="48.74764" lon="2.53852">
        <ele>69.28</ele>
        <time>2019-04-07T13:41:49Z</time>
      </trkpt>
      <trkpt lat="48.74768" lon="2.53853">
        <ele>70.23</ele>
        <time>2019-04-07T13:42:18Z</time>
      </trkpt>
      <trkpt lat="48.74769" lon="2.53851">
        <ele>69.79</ele>
        <time>2019-04-07T13:42:40Z</time>
      </trkpt>
      <trkpt lat="48.74762" lon="2.53848">
        <ele>70.85</ele>
        <time>2019-04-07T13:43:05Z</time>
      </trkpt>
      <trkpt lat="48.7476" lon="2.53845">
        <ele>71.04</ele>
        <time>2019-04-07T13:43:36Z</time>
      </trkpt>
      <trkpt lat="48.74757" lon="2.53847">
        <ele>70.74</ele>
        <time>2019-04-07T13:44:02Z</time>
      </trkpt>
      <trkpt lat="48.74747" lon="2.53839">
        <ele>71.46</ele>
        <time>2019-04-07T13:44:23Z</time>
      </trkpt>
      <trkpt lat="48.74742" lon="2.53815">
        <ele>71.81</ele>
        <time>2019-04-07T13:44:40Z</time>
      </trkpt>
      <trkpt lat="48.74734" lon="2.53796">
        <ele>71.87</ele>
        <time>2019-04-07T13:44:56Z</time>
      </trkpt>
      <trkpt lat="48.74728" lon="2.53783">
        <ele>71.64</ele>
        <time>2019-04-07T13:45:12Z</time>
      </trkpt>
      <trkpt lat="48.74716" lon="2.53764">
        <ele>70.68</ele>
        <time>2019-04-07T13:45:28Z</time>
      </trkpt>
      <trkpt lat="48.74706" lon="2.5374">
        <ele>71.38</ele>
        <time>2019-04-07T13:45:45Z</time>
      </trkpt>
      <trkpt lat="48.74699" lon="2.53715">
        <ele>71.14</ele>
        <time>2019-04-07T13:46:05Z</time>
      </trkpt>
      <trkpt lat="48.74688" lon="2.53683">
        <ele>70.56</ele>
        <time>2019-04-07T13:46:27Z</time>
      </trkpt>
      <trkpt lat="48.74686" lon="2.53676">
        <ele>70.8</ele>
        <time>2019-04-07T13:46:31Z</time>
      </trkpt>
      <trkpt lat="48.74677" lon="2.53662">
        <ele>69.67</ele>
        <time>2019-04-07T13:46:49Z</time>
      </trkpt>
      <trkpt lat="48.74674" lon="2.53647">
        <ele>70.21</ele>
        <time>2019-04-07T13:47:05Z</time>
      </trkpt>
      <trkpt lat="48.74667" lon="2.53623">
        <ele>69.13</ele>
        <time>2019-04-07T13:47:27Z</time>
      </trkpt>
      <trkpt lat="48.74662" lon="2.5361">
        <ele>69.46</ele>
        <time>2019-04-07T13:47:39Z</time>
      </trkpt>
      <trkpt lat="48.74658" lon="2.53589">
        <ele>67.9</ele>
        <time>2019-04-07T13:48:02Z</time>
      </trkpt>
      <trkpt lat="48.74648" lon="2.53561">
        <ele>68.39</ele>
        <time>2019-04-07T13:48:17Z</time>
      </trkpt>
      <trkpt lat="48.74639" lon="2.53533">
        <ele>67.83</ele>
        <time>2019-04-07T13:48:32Z</time>
      </trkpt>
      <trkpt lat="48.74636" lon="2.53516">
        <ele>67.75</ele>
        <time>2019-04-07T13:48:47Z</time>
      </trkpt>
      <trkpt lat="48.74638" lon="2.53506">
        <ele>66.88</ele>
        <time>2019-04-07T13:49:04Z</time>
      </trkpt>
      <trkpt lat="48.74642" lon="2.53486">
        <ele>66.93</ele>
        <time>2019-04-07T13:49:19Z</time>
      </trkpt>
      <trkpt lat="48.74658" lon="2.53461">
        <ele>67.79</ele>
        <time>2019-04-07T13:49:35Z</time>
      </trkpt>
      <trkpt lat="48.7466" lon="2.53455">
        <ele>67.51</ele>
        <time>2019-04-07T13:49:41Z</time>
      </trkpt>
      <trkpt lat="48.74666" lon="2.53448">
        <ele>67.47</ele>
        <time>2019-04-07T13:49:48Z</time>
      </trkpt>
      <trkpt lat="48.74675" lon="2.53428">
        <ele>67.83</ele>
        <time>2019-04-07T13:50:02Z</time>
      </trkpt>
      <trkpt lat="48.7468" lon="2.5342">
        <ele>67.51</ele>
        <time>2019-04-07T13:50:08Z</time>
      </trkpt>
      <trkpt lat="48.74689" lon="2.53404">
        <ele>66.69</ele>
        <time>2019-04-07T13:50:19Z</time>
      </trkpt>
      <trkpt lat="48.74699" lon="2.53383">
        <ele>67.42</ele>
        <time>2019-04-07T13:50:34Z</time>
      </trkpt>
      <trkpt lat="48.74701" lon="2.53377">
        <ele>67.09</ele>
        <time>2019-04-07T13:50:40Z</time>
      </trkpt>
      <trkpt lat="48.7471" lon="2.53362">
        <ele>67.18</ele>
        <time>2019-04-07T13:51:00Z</time>
      </trkpt>
      <trkpt lat="48.74713" lon="2.53358">
        <ele>66.87</ele>
        <time>2019-04-07T13:51:03Z</time>
      </trkpt>
      <trkpt lat="48.74723" lon="2.53337">
        <ele>67.63</ele>
        <time>2019-04-07T13:51:17Z</time>
      </trkpt>
      <trkpt lat="48.74733" lon="2.53322">
        <ele>67.63</ele>
        <time>2019-04-07T13:51:27Z</time>
      </trkpt>
      <trkpt lat="48.74736" lon="2.53316">
        <ele>67.61</ele>
        <time>2019-04-07T13:51:31Z</time>
      </trkpt>
      <trkpt lat="48.74734" lon="2.53304">
        <ele>67.97</ele>
        <time>2019-04-07T13:51:46Z</time>
      </trkpt>
      <trkpt lat="48.74726" lon="2.53294">
        <ele>67</ele>
        <time>2019-04-07T13:52:01Z</time>
      </trkpt>
      <trkpt lat="48.74716" lon="2.53283">
        <ele>67.84</ele>
        <time>2019-04-07T13:52:13Z</time>
      </trkpt>
      <trkpt lat="48.74713" lon="2.5328">
        <ele>67.85</ele>
        <time>2019-04-07T13:52:16Z</time>
      </trkpt>
      <trkpt lat="48.74699" lon="2.53276">
        <ele>67.53</ele>
        <time>2019-04-07T13:52:32Z</time>
      </trkpt>
      <trkpt lat="48.7468" lon="2.53259">
        <ele>67.11</ele>
        <time>2019-04-07T13:52:53Z</time>
      </trkpt>
      <trkpt lat="48.74675" lon="2.53256">
        <ele>67.38</ele>
        <time>2019-04-07T13:53:00Z</time>
      </trkpt>
      <trkpt lat="48.74655" lon="2.53239">
        <ele>66.92</ele>
        <time>2019-04-07T13:53:20Z</time>
      </trkpt>
      <trkpt lat="48.74637" lon="2.53223">
        <ele>66.94</ele>
        <time>2019-04-07T13:53:40Z</time>
      </trkpt>
      <trkpt lat="48.7462" lon="2.53205">
        <ele>65.75</ele>
        <time>2019-04-07T13:54:00Z</time>
      </trkpt>
      <trkpt lat="48.74598" lon="2.53187">
        <ele>65.13</ele>
        <time>2019-04-07T13:54:22Z</time>
      </trkpt>
      <trkpt lat="48.74581" lon="2.53165">
        <ele>64.52</ele>
        <time>2019-04-07T13:54:42Z</time>
      </trkpt>
      <trkpt lat="48.74559" lon="2.53129">
        <ele>63.93</ele>
        <time>2019-04-07T13:55:02Z</time>
      </trkpt>
      <trkpt lat="48.74545" lon="2.53115">
        <ele>63.36</ele>
        <time>2019-04-07T13:55:23Z</time>
      </trkpt>
      <trkpt lat="48.74532" lon="2.531">
        <ele>63.71</ele>
        <time>2019-04-07T13:55:39Z</time>
      </trkpt>
      <trkpt lat="48.74516" lon="2.53061">
        <ele>63.12</ele>
        <time>2019-04-07T13:55:55Z</time>
      </trkpt>
      <trkpt lat="48.74508" lon="2.53032">
        <ele>62.97</ele>
        <time>2019-04-07T13:56:13Z</time>
      </trkpt>
      <trkpt lat="48.74501" lon="2.5301">
        <ele>62.17</ele>
        <time>2019-04-07T13:56:28Z</time>
      </trkpt>
      <trkpt lat="48.745" lon="2.52999">
        <ele>62.06</ele>
        <time>2019-04-07T13:56:36Z</time>
      </trkpt>
      <trkpt lat="48.74494" lon="2.52964">
        <ele>62.23</ele>
        <time>2019-04-07T13:56:55Z</time>
      </trkpt>
      <trkpt lat="48.74493" lon="2.52956">
        <ele>61.92</ele>
        <time>2019-04-07T13:57:00Z</time>
      </trkpt>
      <trkpt lat="48.74486" lon="2.52935">
        <ele>62</ele>
        <time>2019-04-07T13:57:15Z</time>
      </trkpt>
      <trkpt lat="48.7448" lon="2.52917">
        <ele>61.79</ele>
        <time>2019-04-07T13:57:27Z</time>
      </trkpt>
      <trkpt lat="48.74475" lon="2.52896">
        <ele>61.75</ele>
        <time>2019-04-07T13:57:41Z</time>
      </trkpt>
      <trkpt lat="48.74469" lon="2.52868">
        <ele>60.85</ele>
        <time>2019-04-07T13:57:57Z</time>
      </trkpt>
      <trkpt lat="48.74468" lon="2.52867">
        <ele>60.74</ele>
        <time>2019-04-07T13:57:58Z</time>
      </trkpt>
      <trkpt lat="48.74459" lon="2.52833">
        <ele>61.1</ele>
        <time>2019-04-07T13:58:17Z</time>
      </trkpt>
      <trkpt lat="48.74454" lon="2.52809">
        <ele>59.69</ele>
        <time>2019-04-07T13:58:37Z</time>
      </trkpt>
      <trkpt lat="48.74452" lon="2.52787">
        <ele>59.83</ele>
        <time>2019-04-07T13:58:50Z</time>
      </trkpt>
      <trkpt lat="48.74442" lon="2.52748">
        <ele>59.66</ele>
        <time>2019-04-07T13:59:09Z</time>
      </trkpt>
      <trkpt lat="48.74438" lon="2.52736">
        <ele>60.2</ele>
        <time>2019-04-07T13:59:16Z</time>
      </trkpt>
      <trkpt lat="48.74431" lon="2.52719">
        <ele>59.75</ele>
        <time>2019-04-07T13:59:30Z</time>
      </trkpt>
      <trkpt lat="48.74427" lon="2.527">
        <ele>59.09</ele>
        <time>2019-04-07T13:59:40Z</time>
      </trkpt>
      <trkpt lat="48.74419" lon="2.5268">
        <ele>58.61</ele>
        <time>2019-04-07T13:59:55Z</time>
      </trkpt>
      <trkpt lat="48.74416" lon="2.52652">
        <ele>58</ele>
        <time>2019-04-07T14:00:09Z</time>
      </trkpt>
      <trkpt lat="48.74408" lon="2.52623">
        <ele>57.99</ele>
        <time>2019-04-07T14:00:28Z</time>
      </trkpt>
      <trkpt lat="48.74403" lon="2.52605">
        <ele>56.93</ele>
        <time>2019-04-07T14:00:41Z</time>
      </trkpt>
      <trkpt lat="48.74404" lon="2.526">
        <ele>56.82</ele>
        <time>2019-04-07T14:00:44Z</time>
      </trkpt>
      <trkpt lat="48.744" lon="2.52565">
        <ele>56.64</ele>
        <time>2019-04-07T14:01:00Z</time>
      </trkpt>
      <trkpt lat="48.74412" lon="2.5255">
        <ele>55.96</ele>
        <time>2019-04-07T14:01:16Z</time>
      </trkpt>
      <trkpt lat="48.74418" lon="2.52542">
        <ele>55.97</ele>
        <time>2019-04-07T14:01:24Z</time>
      </trkpt>
      <trkpt lat="48.74434" lon="2.52517">
        <ele>56.61</ele>
        <time>2019-04-07T14:01:42Z</time>
      </trkpt>
      <trkpt lat="48.74441" lon="2.52503">
        <ele>56.18</ele>
        <time>2019-04-07T14:01:53Z</time>
      </trkpt>
      <trkpt lat="48.74449" lon="2.52488">
        <ele>56.44</ele>
        <time>2019-04-07T14:02:08Z</time>
      </trkpt>
      <trkpt lat="48.74459" lon="2.52469">
        <ele>55.86</ele>
        <time>2019-04-07T14:02:27Z</time>
      </trkpt>
      <trkpt lat="48.74462" lon="2.52463">
        <ele>56.19</ele>
        <time>2019-04-07T14:02:30Z</time>
      </trkpt>
      <trkpt lat="48.74478" lon="2.52443">
        <ele>56.43</ele>
        <time>2019-04-07T14:02:46Z</time>
      </trkpt>
      <trkpt lat="48.74478" lon="2.52441">
        <ele>56.55</ele>
        <time>2019-04-07T14:02:47Z</time>
      </trkpt>
      <trkpt lat="48.7449" lon="2.52418">
        <ele>56.12</ele>
        <time>2019-04-07T14:03:05Z</time>
      </trkpt>
      <trkpt lat="48.745" lon="2.52396">
        <ele>55.28</ele>
        <time>2019-04-07T14:03:20Z</time>
      </trkpt>
      <trkpt lat="48.74505" lon="2.52381">
        <ele>55.88</ele>
        <time>2019-04-07T14:03:27Z</time>
      </trkpt>
      <trkpt lat="48.74509" lon="2.52375">
        <ele>55.2</ele>
        <time>2019-04-07T14:03:32Z</time>
      </trkpt>
      <trkpt lat="48.7452" lon="2.52346">
        <ele>55.16</ele>
        <time>2019-04-07T14:03:50Z</time>
      </trkpt>
      <trkpt lat="48.74538" lon="2.52325">
        <ele>55.81</ele>
        <time>2019-04-07T14:04:07Z</time>
      </trkpt>
      <trkpt lat="48.74544" lon="2.5231">
        <ele>55.98</ele>
        <time>2019-04-07T14:04:19Z</time>
      </trkpt>
      <trkpt lat="48.74546" lon="2.52304">
        <ele>55.86</ele>
        <time>2019-04-07T14:04:23Z</time>
      </trkpt>
      <trkpt lat="48.74556" lon="2.52291">
        <ele>55.32</ele>
        <time>2019-04-07T14:04:36Z</time>
      </trkpt>
      <trkpt lat="48.74558" lon="2.52287">
        <ele>55.53</ele>
        <time>2019-04-07T14:04:39Z</time>
      </trkpt>
      <trkpt lat="48.74575" lon="2.5226">
        <ele>56.61</ele>
        <time>2019-04-07T14:05:00Z</time>
      </trkpt>
      <trkpt lat="48.74579" lon="2.52247">
        <ele>56.32</ele>
        <time>2019-04-07T14:05:14Z</time>
      </trkpt>
      <trkpt lat="48.74588" lon="2.52228">
        <ele>56.2</ele>
        <time>2019-04-07T14:05:27Z</time>
      </trkpt>
      <trkpt lat="48.74596" lon="2.52213">
        <ele>56.64</ele>
        <time>2019-04-07T14:05:38Z</time>
      </trkpt>
      <trkpt lat="48.74603" lon="2.52197">
        <ele>56.48</ele>
        <time>2019-04-07T14:05:47Z</time>
      </trkpt>
      <trkpt lat="48.74606" lon="2.52191">
        <ele>56.83</ele>
        <time>2019-04-07T14:05:51Z</time>
      </trkpt>
      <trkpt lat="48.74616" lon="2.52176">
        <ele>56.65</ele>
        <time>2019-04-07T14:06:04Z</time>
      </trkpt>
      <trkpt lat="48.7463" lon="2.52153">
        <ele>56.77</ele>
        <time>2019-04-07T14:06:21Z</time>
      </trkpt>
      <trkpt lat="48.74634" lon="2.52145">
        <ele>56.7</ele>
        <time>2019-04-07T14:06:27Z</time>
      </trkpt>
      <trkpt lat="48.74641" lon="2.52131">
        <ele>57.04</ele>
        <time>2019-04-07T14:06:42Z</time>
      </trkpt>
      <trkpt lat="48.74643" lon="2.52127">
        <ele>56.62</ele>
        <time>2019-04-07T14:06:47Z</time>
      </trkpt>
      <trkpt lat="48.7465" lon="2.52115">
        <ele>56.76</ele>
        <time>2019-04-07T14:06:58Z</time>
      </trkpt>
      <trkpt lat="48.74656" lon="2.52108">
        <ele>56.49</ele>
        <time>2019-04-07T14:07:05Z</time>
      </trkpt>
      <trkpt lat="48.74661" lon="2.52096">
        <ele>56.88</ele>
        <time>2019-04-07T14:07:18Z</time>
      </trkpt>
      <trkpt lat="48.7467" lon="2.52077">
        <ele>57.53</ele>
        <time>2019-04-07T14:07:36Z</time>
      </trkpt>
      <trkpt lat="48.74685" lon="2.52054">
        <ele>57.6</ele>
        <time>2019-04-07T14:07:52Z</time>
      </trkpt>
      <trkpt lat="48.7469" lon="2.52047">
        <ele>57.39</ele>
        <time>2019-04-07T14:07:57Z</time>
      </trkpt>
      <trkpt lat="48.74692" lon="2.52043">
        <ele>57.78</ele>
        <time>2019-04-07T14:08:00Z</time>
      </trkpt>
      <trkpt lat="48.74703" lon="2.52032">
        <ele>57.68</ele>
        <time>2019-04-07T14:08:12Z</time>
      </trkpt>
      <trkpt lat="48.74705" lon="2.52025">
        <ele>57.31</ele>
        <time>2019-04-07T14:08:18Z</time>
      </trkpt>
      <trkpt lat="48.74715" lon="2.52007">
        <ele>57.97</ele>
        <time>2019-04-07T14:08:31Z</time>
      </trkpt>
      <trkpt lat="48.74716" lon="2.52006">
        <ele>57.98</ele>
        <time>2019-04-07T14:08:32Z</time>
      </trkpt>
      <trkpt lat="48.74727" lon="2.51983">
        <ele>58.01</ele>
        <time>2019-04-07T14:08:50Z</time>
      </trkpt>
      <trkpt lat="48.74735" lon="2.51967">
        <ele>58.77</ele>
        <time>2019-04-07T14:09:03Z</time>
      </trkpt>
      <trkpt lat="48.7474" lon="2.51955">
        <ele>58.26</ele>
        <time>2019-04-07T14:09:19Z</time>
      </trkpt>
      <trkpt lat="48.74753" lon="2.51927">
        <ele>58.05</ele>
        <time>2019-04-07T14:09:36Z</time>
      </trkpt>
      <trkpt lat="48.74763" lon="2.51917">
        <ele>57.78</ele>
        <time>2019-04-07T14:09:57Z</time>
      </trkpt>
      <trkpt lat="48.7478" lon="2.51896">
        <ele>57.47</ele>
        <time>2019-04-07T14:10:17Z</time>
      </trkpt>
      <trkpt lat="48.74785" lon="2.51885">
        <ele>57.44</ele>
        <time>2019-04-07T14:10:34Z</time>
      </trkpt>
      <trkpt lat="48.74792" lon="2.51876">
        <ele>57.85</ele>
        <time>2019-04-07T14:10:46Z</time>
      </trkpt>
      <trkpt lat="48.74802" lon="2.51863">
        <ele>57.26</ele>
        <time>2019-04-07T14:11:05Z</time>
      </trkpt>
      <trkpt lat="48.7481" lon="2.51843">
        <ele>57.01</ele>
        <time>2019-04-07T14:11:29Z</time>
      </trkpt>
      <trkpt lat="48.74806" lon="2.51845">
        <ele>57.35</ele>
        <time>2019-04-07T14:11:46Z</time>
      </trkpt>
      <trkpt lat="48.74806" lon="2.51843">
        <ele>57.58</ele>
        <time>2019-04-07T14:12:12Z</time>
      </trkpt>
      <trkpt lat="48.74808" lon="2.51838">
        <ele>56.78</ele>
        <time>2019-04-07T14:12:26Z</time>
      </trkpt>
      <trkpt lat="48.74813" lon="2.51827">
        <ele>56.79</ele>
        <time>2019-04-07T14:12:46Z</time>
      </trkpt>
      <trkpt lat="48.74813" lon="2.51825">
        <ele>56.98</ele>
        <time>2019-04-07T14:13:11Z</time>
      </trkpt>
      <trkpt lat="48.74816" lon="2.51826">
        <ele>56.84</ele>
        <time>2019-04-07T14:13:35Z</time>
      </trkpt>
      <trkpt lat="48.74815" lon="2.51827">
        <ele>57.02</ele>
        <time>2019-04-07T14:14:01Z</time>
      </trkpt>
      <trkpt lat="48.74819" lon="2.51827">
        <ele>57.33</ele>
        <time>2019-04-07T14:14:26Z</time>
      </trkpt>
      <trkpt lat="48.74824" lon="2.51823">
        <ele>57.63</ele>
        <time>2019-04-07T14:14:53Z</time>
      </trkpt>
      <trkpt lat="48.74827" lon="2.51814">
        <ele>58.05</ele>
        <time>2019-04-07T14:15:11Z</time>
      </trkpt>
      <trkpt lat="48.74837" lon="2.51799">
        <ele>57.64</ele>
        <time>2019-04-07T14:15:33Z</time>
      </trkpt>
      <trkpt lat="48.74849" lon="2.51778">
        <ele>56.86</ele>
        <time>2019-04-07T14:15:53Z</time>
      </trkpt>
      <trkpt lat="48.74853" lon="2.5178">
        <ele>57.45</ele>
        <time>2019-04-07T14:16:10Z</time>
      </trkpt>
      <trkpt lat="48.74857" lon="2.51806">
        <ele>57.97</ele>
        <time>2019-04-07T14:16:29Z</time>
      </trkpt>
      <trkpt lat="48.7486" lon="2.51809">
        <ele>58.02</ele>
        <time>2019-04-07T14:16:38Z</time>
      </trkpt>
      <trkpt lat="48.74873" lon="2.51824">
        <ele>58.08</ele>
        <time>2019-04-07T14:16:54Z</time>
      </trkpt>
      <trkpt lat="48.74879" lon="2.51833">
        <ele>58.77</ele>
        <time>2019-04-07T14:17:03Z</time>
      </trkpt>
      <trkpt lat="48.74888" lon="2.51851">
        <ele>59</ele>
        <time>2019-04-07T14:17:22Z</time>
      </trkpt>
      <trkpt lat="48.74896" lon="2.51861">
        <ele>58.71</ele>
        <time>2019-04-07T14:17:29Z</time>
      </trkpt>
      <trkpt lat="48.74911" lon="2.51874">
        <ele>58.92</ele>
        <time>2019-04-07T14:17:44Z</time>
      </trkpt>
      <trkpt lat="48.74927" lon="2.51881">
        <ele>59.1</ele>
        <time>2019-04-07T14:17:58Z</time>
      </trkpt>
      <trkpt lat="48.74938" lon="2.51894">
        <ele>59.32</ele>
        <time>2019-04-07T14:18:13Z</time>
      </trkpt>
      <trkpt lat="48.74953" lon="2.51902">
        <ele>59.69</ele>
        <time>2019-04-07T14:18:30Z</time>
      </trkpt>
      <trkpt lat="48.74966" lon="2.5192">
        <ele>59.59</ele>
        <time>2019-04-07T14:18:48Z</time>
      </trkpt>
      <trkpt lat="48.74978" lon="2.51933">
        <ele>59.74</ele>
        <time>2019-04-07T14:19:07Z</time>
      </trkpt>
      <trkpt lat="48.74994" lon="2.51949">
        <ele>60.1</ele>
        <time>2019-04-07T14:19:24Z</time>
      </trkpt>
      <trkpt lat="48.74999" lon="2.51966">
        <ele>59.39</ele>
        <time>2019-04-07T14:19:41Z</time>
      </trkpt>
      <trkpt lat="48.75011" lon="2.51994">
        <ele>59</ele>
        <time>2019-04-07T14:20:03Z</time>
      </trkpt>
      <trkpt lat="48.75024" lon="2.52016">
        <ele>59.67</ele>
        <time>2019-04-07T14:20:18Z</time>
      </trkpt>
      <trkpt lat="48.75039" lon="2.52016">
        <ele>59.44</ele>
        <time>2019-04-07T14:20:37Z</time>
      </trkpt>
      <trkpt lat="48.7506" lon="2.52002">
        <ele>58.74</ele>
        <time>2019-04-07T14:20:54Z</time>
      </trkpt>
      <trkpt lat="48.75092" lon="2.52">
        <ele>58.6</ele>
        <time>2019-04-07T14:21:10Z</time>
      </trkpt>
      <trkpt lat="48.75099" lon="2.51997">
        <ele>58.63</ele>
        <time>2019-04-07T14:21:14Z</time>
      </trkpt>
      <trkpt lat="48.75102" lon="2.51996">
        <ele>58.43</ele>
        <time>2019-04-07T14:21:18Z</time>
      </trkpt>
      <trkpt lat="48.75096" lon="2.51994">
        <ele>58.69</ele>
        <time>2019-04-07T14:21:40Z</time>
      </trkpt>
      <trkpt lat="48.75099" lon="2.5199">
        <ele>58.53</ele>
        <time>2019-04-07T14:22:03Z</time>
      </trkpt>
      <trkpt lat="48.75101" lon="2.51989">
        <ele>58.31</ele>
        <time>2019-04-07T14:22:20Z</time>
      </trkpt>
      <trkpt lat="48.75105" lon="2.51991">
        <ele>59.19</ele>
        <time>2019-04-07T14:22:25Z</time>
      </trkpt>
      <trkpt lat="48.75108" lon="2.51997">
        <ele>59.03</ele>
        <time>2019-04-07T14:22:36Z</time>
      </trkpt>
      <trkpt lat="48.75123" lon="2.52009">
        <ele>58.45</ele>
        <time>2019-04-07T14:22:54Z</time>
      </trkpt>
      <trkpt lat="48.75127" lon="2.5201">
        <ele>58.73</ele>
        <time>2019-04-07T14:22:58Z</time>
      </trkpt>
      <trkpt lat="48.75135" lon="2.52008">
        <ele>58.99</ele>
        <time>2019-04-07T14:23:05Z</time>
      </trkpt>
      <trkpt lat="48.75151" lon="2.51994">
        <ele>58.86</ele>
        <time>2019-04-07T14:23:24Z</time>
      </trkpt>
      <trkpt lat="48.75155" lon="2.51993">
        <ele>58.79</ele>
        <time>2019-04-07T14:23:34Z</time>
      </trkpt>
      <trkpt lat="48.75169" lon="2.52011">
        <ele>58.64</ele>
        <time>2019-04-07T14:23:51Z</time>
      </trkpt>
      <trkpt lat="48.75172" lon="2.52015">
        <ele>58.73</ele>
        <time>2019-04-07T14:23:56Z</time>
      </trkpt>
      <trkpt lat="48.75181" lon="2.52028">
        <ele>58.74</ele>
        <time>2019-04-07T14:24:09Z</time>
      </trkpt>
      <trkpt lat="48.75184" lon="2.52034">
        <ele>58.83</ele>
        <time>2019-04-07T14:24:14Z</time>
      </trkpt>
      <trkpt lat="48.75197" lon="2.52055">
        <ele>58.74</ele>
        <time>2019-04-07T14:24:34Z</time>
      </trkpt>
      <trkpt lat="48.75204" lon="2.52071">
        <ele>59.28</ele>
        <time>2019-04-07T14:24:45Z</time>
      </trkpt>
      <trkpt lat="48.75215" lon="2.52086">
        <ele>59.21</ele>
        <time>2019-04-07T14:25:00Z</time>
      </trkpt>
      <trkpt lat="48.75226" lon="2.52105">
        <ele>58.92</ele>
        <time>2019-04-07T14:25:17Z</time>
      </trkpt>
      <trkpt lat="48.75229" lon="2.52112">
        <ele>59.33</ele>
        <time>2019-04-07T14:25:24Z</time>
      </trkpt>
      <trkpt lat="48.75242" lon="2.5213">
        <ele>58.89</ele>
        <time>2019-04-07T14:25:40Z</time>
      </trkpt>
      <trkpt lat="48.75244" lon="2.52132">
        <ele>59.05</ele>
        <time>2019-04-07T14:25:41Z</time>
      </trkpt>
      <trkpt lat="48.75248" lon="2.52137">
        <ele>59.02</ele>
        <time>2019-04-07T14:25:44Z</time>
      </trkpt>
      <trkpt lat="48.75254" lon="2.52142">
        <ele>59.11</ele>
        <time>2019-04-07T14:25:58Z</time>
      </trkpt>
      <trkpt lat="48.75252" lon="2.52141">
        <ele>58.61</ele>
        <time>2019-04-07T14:26:22Z</time>
      </trkpt>
      <trkpt lat="48.75256" lon="2.52146">
        <ele>58.96</ele>
        <time>2019-04-07T14:26:37Z</time>
      </trkpt>
      <trkpt lat="48.75257" lon="2.52149">
        <ele>58.2</ele>
        <time>2019-04-07T14:26:39Z</time>
      </trkpt>
      <trkpt lat="48.75261" lon="2.52154">
        <ele>58.91</ele>
        <time>2019-04-07T14:26:43Z</time>
      </trkpt>
      <trkpt lat="48.7528" lon="2.52167">
        <ele>58.78</ele>
        <time>2019-04-07T14:26:58Z</time>
      </trkpt>
      <trkpt lat="48.75291" lon="2.52165">
        <ele>58.88</ele>
        <time>2019-04-07T14:27:06Z</time>
      </trkpt>
      <trkpt lat="48.75304" lon="2.52149">
        <ele>58.26</ele>
        <time>2019-04-07T14:27:23Z</time>
      </trkpt>
      <trkpt lat="48.75312" lon="2.52149">
        <ele>59.22</ele>
        <time>2019-04-07T14:27:38Z</time>
      </trkpt>
      <trkpt lat="48.75315" lon="2.52161">
        <ele>59.14</ele>
        <time>2019-04-07T14:27:47Z</time>
      </trkpt>
      <trkpt lat="48.75324" lon="2.52155">
        <ele>59.23</ele>
        <time>2019-04-07T14:27:56Z</time>
      </trkpt>
      <trkpt lat="48.75336" lon="2.52149">
        <ele>59.02</ele>
        <time>2019-04-07T14:28:13Z</time>
      </trkpt>
      <trkpt lat="48.75343" lon="2.52137">
        <ele>58.96</ele>
        <time>2019-04-07T14:28:26Z</time>
      </trkpt>
      <trkpt lat="48.75345" lon="2.52134">
        <ele>58.55</ele>
        <time>2019-04-07T14:28:29Z</time>
      </trkpt>
      <trkpt lat="48.75349" lon="2.52113">
        <ele>58.08</ele>
        <time>2019-04-07T14:28:43Z</time>
      </trkpt>
      <trkpt lat="48.75352" lon="2.52081">
        <ele>58.75</ele>
        <time>2019-04-07T14:29:02Z</time>
      </trkpt>
      <trkpt lat="48.7536" lon="2.52064">
        <ele>57.94</ele>
        <time>2019-04-07T14:29:21Z</time>
      </trkpt>
      <trkpt lat="48.75365" lon="2.52045">
        <ele>58.25</ele>
        <time>2019-04-07T14:29:36Z</time>
      </trkpt>
      <trkpt lat="48.7537" lon="2.52026">
        <ele>57.72</ele>
        <time>2019-04-07T14:29:50Z</time>
      </trkpt>
      <trkpt lat="48.75375" lon="2.52001">
        <ele>57.31</ele>
        <time>2019-04-07T14:30:06Z</time>
      </trkpt>
      <trkpt lat="48.75381" lon="2.5197">
        <ele>57.85</ele>
        <time>2019-04-07T14:30:26Z</time>
      </trkpt>
      <trkpt lat="48.75382" lon="2.51966">
        <ele>57.58</ele>
        <time>2019-04-07T14:30:29Z</time>
      </trkpt>
      <trkpt lat="48.75388" lon="2.51947">
        <ele>57.39</ele>
        <time>2019-04-07T14:30:42Z</time>
      </trkpt>
      <trkpt lat="48.75389" lon="2.51925">
        <ele>57.2</ele>
        <time>2019-04-07T14:30:58Z</time>
      </trkpt>
      <trkpt lat="48.75387" lon="2.51918">
        <ele>57.73</ele>
        <time>2019-04-07T14:31:21Z</time>
      </trkpt>
      <trkpt lat="48.75392" lon="2.51906">
        <ele>57.76</ele>
        <time>2019-04-07T14:31:37Z</time>
      </trkpt>
      <trkpt lat="48.75398" lon="2.51909">
        <ele>57.12</ele>
        <time>2019-04-07T14:31:52Z</time>
      </trkpt>
      <trkpt lat="48.75402" lon="2.51912">
        <ele>57.82</ele>
        <time>2019-04-07T14:31:56Z</time>
      </trkpt>
      <trkpt lat="48.75414" lon="2.51888">
        <ele>56.17</ele>
        <time>2019-04-07T14:32:14Z</time>
      </trkpt>
      <trkpt lat="48.75423" lon="2.51862">
        <ele>56.12</ele>
        <time>2019-04-07T14:32:30Z</time>
      </trkpt>
      <trkpt lat="48.75429" lon="2.51843">
        <ele>55.32</ele>
        <time>2019-04-07T14:32:44Z</time>
      </trkpt>
      <trkpt lat="48.75433" lon="2.5183">
        <ele>55.37</ele>
        <time>2019-04-07T14:32:52Z</time>
      </trkpt>
      <trkpt lat="48.75441" lon="2.51812">
        <ele>54.83</ele>
        <time>2019-04-07T14:33:03Z</time>
      </trkpt>
      <trkpt lat="48.75446" lon="2.51802">
        <ele>54.9</ele>
        <time>2019-04-07T14:33:10Z</time>
      </trkpt>
      <trkpt lat="48.75455" lon="2.51784">
        <ele>54.11</ele>
        <time>2019-04-07T14:33:22Z</time>
      </trkpt>
      <trkpt lat="48.75464" lon="2.51758">
        <ele>54.42</ele>
        <time>2019-04-07T14:33:38Z</time>
      </trkpt>
      <trkpt lat="48.75467" lon="2.51746">
        <ele>54.58</ele>
        <time>2019-04-07T14:33:53Z</time>
      </trkpt>
      <trkpt lat="48.7547" lon="2.51728">
        <ele>53.23</ele>
        <time>2019-04-07T14:34:05Z</time>
      </trkpt>
      <trkpt lat="48.75473" lon="2.5172">
        <ele>53.02</ele>
        <time>2019-04-07T14:34:10Z</time>
      </trkpt>
      <trkpt lat="48.75483" lon="2.51692">
        <ele>52.39</ele>
        <time>2019-04-07T14:34:29Z</time>
      </trkpt>
      <trkpt lat="48.75486" lon="2.51688">
        <ele>52.09</ele>
        <time>2019-04-07T14:34:33Z</time>
      </trkpt>
      <trkpt lat="48.75494" lon="2.51666">
        <ele>51.14</ele>
        <time>2019-04-07T14:34:47Z</time>
      </trkpt>
      <trkpt lat="48.75499" lon="2.51645">
        <ele>50.9</ele>
        <time>2019-04-07T14:35:01Z</time>
      </trkpt>
      <trkpt lat="48.75514" lon="2.51635">
        <ele>49.77</ele>
        <time>2019-04-07T14:35:21Z</time>
      </trkpt>
      <trkpt lat="48.75513" lon="2.51634">
        <ele>49.89</ele>
        <time>2019-04-07T14:35:23Z</time>
      </trkpt>
      <trkpt lat="48.75517" lon="2.51634">
        <ele>50.22</ele>
        <time>2019-04-07T14:35:47Z</time>
      </trkpt>
      <trkpt lat="48.7552" lon="2.51634">
        <ele>50.52</ele>
        <time>2019-04-07T14:36:14Z</time>
      </trkpt>
      <trkpt lat="48.7552" lon="2.51634">
        <ele>50.92</ele>
        <time>2019-04-07T14:36:37Z</time>
      </trkpt>
      <trkpt lat="48.75524" lon="2.5163">
        <ele>50.7</ele>
        <time>2019-04-07T14:37:04Z</time>
      </trkpt>
      <trkpt lat="48.75522" lon="2.5163">
        <ele>51.39</ele>
        <time>2019-04-07T14:37:28Z</time>
      </trkpt>
      <trkpt lat="48.75524" lon="2.51633">
        <ele>51.41</ele>
        <time>2019-04-07T14:37:53Z</time>
      </trkpt>
      <trkpt lat="48.75527" lon="2.5163">
        <ele>51.51</ele>
        <time>2019-04-07T14:38:17Z</time>
      </trkpt>
      <trkpt lat="48.75523" lon="2.5163">
        <ele>51.37</ele>
        <time>2019-04-07T14:38:46Z</time>
      </trkpt>
      <trkpt lat="48.75523" lon="2.51633">
        <ele>51.93</ele>
        <time>2019-04-07T14:39:09Z</time>
      </trkpt>
      <trkpt lat="48.75511" lon="2.51623">
        <ele>51.97</ele>
        <time>2019-04-07T14:39:29Z</time>
      </trkpt>
      <trkpt lat="48.75506" lon="2.51612">
        <ele>52.48</ele>
        <time>2019-04-07T14:39:47Z</time>
      </trkpt>
      <trkpt lat="48.755" lon="2.51607">
        <ele>52.8</ele>
        <time>2019-04-07T14:40:12Z</time>
      </trkpt>
      <trkpt lat="48.7549" lon="2.51599">
        <ele>52.65</ele>
        <time>2019-04-07T14:40:23Z</time>
      </trkpt>
      <trkpt lat="48.75474" lon="2.51586">
        <ele>52.83</ele>
        <time>2019-04-07T14:40:42Z</time>
      </trkpt>
      <trkpt lat="48.75471" lon="2.51579">
        <ele>52.81</ele>
        <time>2019-04-07T14:40:50Z</time>
      </trkpt>
      <trkpt lat="48.7546" lon="2.5156">
        <ele>53.07</ele>
        <time>2019-04-07T14:41:14Z</time>
      </trkpt>
      <trkpt lat="48.75446" lon="2.51547">
        <ele>53.22</ele>
        <time>2019-04-07T14:41:33Z</time>
      </trkpt>
      <trkpt lat="48.75439" lon="2.51538">
        <ele>52.84</ele>
        <time>2019-04-07T14:41:55Z</time>
      </trkpt>
      <trkpt lat="48.75424" lon="2.5152">
        <ele>52.94</ele>
        <time>2019-04-07T14:42:13Z</time>
      </trkpt>
      <trkpt lat="48.75411" lon="2.51503">
        <ele>53.31</ele>
        <time>2019-04-07T14:42:33Z</time>
      </trkpt>
      <trkpt lat="48.754" lon="2.51484">
        <ele>54.44</ele>
        <time>2019-04-07T14:42:54Z</time>
      </trkpt>
      <trkpt lat="48.75392" lon="2.51474">
        <ele>54.88</ele>
        <time>2019-04-07T14:43:00Z</time>
      </trkpt>
      <trkpt lat="48.7538" lon="2.51459">
        <ele>54.99</ele>
        <time>2019-04-07T14:43:15Z</time>
      </trkpt>
      <trkpt lat="48.75366" lon="2.51438">
        <ele>55.19</ele>
        <time>2019-04-07T14:43:35Z</time>
      </trkpt>
      <trkpt lat="48.75349" lon="2.51416">
        <ele>55.96</ele>
        <time>2019-04-07T14:43:55Z</time>
      </trkpt>
      <trkpt lat="48.75329" lon="2.5139">
        <ele>56.66</ele>
        <time>2019-04-07T14:44:16Z</time>
      </trkpt>
      <trkpt lat="48.75312" lon="2.51377">
        <ele>56.4</ele>
        <time>2019-04-07T14:44:32Z</time>
      </trkpt>
      <trkpt lat="48.75301" lon="2.51367">
        <ele>56.94</ele>
        <time>2019-04-07T14:44:44Z</time>
      </trkpt>
      <trkpt lat="48.75298" lon="2.51363">
        <ele>57.06</ele>
        <time>2019-04-07T14:44:48Z</time>
      </trkpt>
      <trkpt lat="48.75289" lon="2.51354">
        <ele>57.21</ele>
        <time>2019-04-07T14:44:58Z</time>
      </trkpt>
      <trkpt lat="48.75288" lon="2.51346">
        <ele>57.5</ele>
        <time>2019-04-07T14:45:03Z</time>
      </trkpt>
      <trkpt lat="48.75284" lon="2.51337">
        <ele>57.23</ele>
        <time>2019-04-07T14:45:30Z</time>
      </trkpt>
      <trkpt lat="48.75281" lon="2.51331">
        <ele>57.69</ele>
        <time>2019-04-07T14:46:00Z</time>
      </trkpt>
      <trkpt lat="48.75278" lon="2.51331">
        <ele>57.62</ele>
        <time>2019-04-07T14:46:30Z</time>
      </trkpt>
      <trkpt lat="48.75276" lon="2.51324">
        <ele>57</ele>
        <time>2019-04-07T14:46:55Z</time>
      </trkpt>
      <trkpt lat="48.75275" lon="2.51299">
        <ele>57.16</ele>
        <time>2019-04-07T14:47:09Z</time>
      </trkpt>
      <trkpt lat="48.75275" lon="2.51287">
        <ele>57.62</ele>
        <time>2019-04-07T14:47:29Z</time>
      </trkpt>
      <trkpt lat="48.75273" lon="2.51283">
        <ele>57.59</ele>
        <time>2019-04-07T14:47:33Z</time>
      </trkpt>
      <trkpt lat="48.75271" lon="2.51276">
        <ele>57.65</ele>
        <time>2019-04-07T14:47:37Z</time>
      </trkpt>
      <trkpt lat="48.7526" lon="2.51242">
        <ele>57.44</ele>
        <time>2019-04-07T14:48:00Z</time>
      </trkpt>
      <trkpt lat="48.75259" lon="2.51242">
        <ele>57.7</ele>
        <time>2019-04-07T14:48:02Z</time>
      </trkpt>
      <trkpt lat="48.75254" lon="2.51244">
        <ele>57.59</ele>
        <time>2019-04-07T14:48:07Z</time>
      </trkpt>
      <trkpt lat="48.75249" lon="2.51237">
        <ele>57.87</ele>
        <time>2019-04-07T14:48:14Z</time>
      </trkpt>
      <trkpt lat="48.75229" lon="2.51207">
        <ele>58.21</ele>
        <time>2019-04-07T14:48:39Z</time>
      </trkpt>
      <trkpt lat="48.75209" lon="2.51183">
        <ele>57.91</ele>
        <time>2019-04-07T14:49:01Z</time>
      </trkpt>
      <trkpt lat="48.75208" lon="2.51182">
        <ele>58.34</ele>
        <time>2019-04-07T14:49:02Z</time>
      </trkpt>
      <trkpt lat="48.75201" lon="2.51171">
        <ele>57.96</ele>
        <time>2019-04-07T14:49:20Z</time>
      </trkpt>
      <trkpt lat="48.75197" lon="2.51166">
        <ele>58.44</ele>
        <time>2019-04-07T14:49:38Z</time>
      </trkpt>
      <trkpt lat="48.75196" lon="2.51155">
        <ele>58.31</ele>
        <time>2019-04-07T14:49:54Z</time>
      </trkpt>
      <trkpt lat="48.75204" lon="2.51159">
        <ele>58.73</ele>
        <time>2019-04-07T14:50:11Z</time>
      </trkpt>
      <trkpt lat="48.75207" lon="2.51157">
        <ele>59.29</ele>
        <time>2019-04-07T14:50:37Z</time>
      </trkpt>
      <trkpt lat="48.75208" lon="2.51156">
        <ele>59.19</ele>
        <time>2019-04-07T14:50:58Z</time>
      </trkpt>
      <trkpt lat="48.75191" lon="2.51158">
        <ele>59.31</ele>
        <time>2019-04-07T14:51:17Z</time>
      </trkpt>
      <trkpt lat="48.75182" lon="2.5115">
        <ele>59.37</ele>
        <time>2019-04-07T14:51:35Z</time>
      </trkpt>
      <trkpt lat="48.75176" lon="2.51136">
        <ele>58.79</ele>
        <time>2019-04-07T14:51:44Z</time>
      </trkpt>
      <trkpt lat="48.75165" lon="2.51116">
        <ele>57.76</ele>
        <time>2019-04-07T14:52:00Z</time>
      </trkpt>
      <trkpt lat="48.75152" lon="2.511">
        <ele>57.59</ele>
        <time>2019-04-07T14:52:17Z</time>
      </trkpt>
      <trkpt lat="48.75149" lon="2.51096">
        <ele>57.28</ele>
        <time>2019-04-07T14:52:21Z</time>
      </trkpt>
      <trkpt lat="48.75145" lon="2.51093">
        <ele>57.79</ele>
        <time>2019-04-07T14:52:25Z</time>
      </trkpt>
      <trkpt lat="48.7514" lon="2.51078">
        <ele>57.1</ele>
        <time>2019-04-07T14:52:42Z</time>
      </trkpt>
      <trkpt lat="48.7514" lon="2.51054">
        <ele>56.8</ele>
        <time>2019-04-07T14:53:00Z</time>
      </trkpt>
      <trkpt lat="48.75138" lon="2.51046">
        <ele>57.56</ele>
        <time>2019-04-07T14:53:24Z</time>
      </trkpt>
      <trkpt lat="48.75128" lon="2.51036">
        <ele>55.41</ele>
        <time>2019-04-07T14:53:45Z</time>
      </trkpt>
      <trkpt lat="48.75127" lon="2.51031">
        <ele>55.3</ele>
        <time>2019-04-07T14:53:52Z</time>
      </trkpt>
      <trkpt lat="48.75129" lon="2.51025">
        <ele>55.33</ele>
        <time>2019-04-07T14:53:56Z</time>
      </trkpt>
      <trkpt lat="48.75137" lon="2.5101">
        <ele>53.53</ele>
        <time>2019-04-07T14:54:06Z</time>
      </trkpt>
      <trkpt lat="48.7514" lon="2.51001">
        <ele>52.71</ele>
        <time>2019-04-07T14:54:13Z</time>
      </trkpt>
      <trkpt lat="48.7515" lon="2.50993">
        <ele>52.4</ele>
        <time>2019-04-07T14:54:27Z</time>
      </trkpt>
      <trkpt lat="48.75161" lon="2.50981">
        <ele>51.58</ele>
        <time>2019-04-07T14:54:41Z</time>
      </trkpt>
      <trkpt lat="48.75175" lon="2.50954">
        <ele>50.26</ele>
        <time>2019-04-07T14:54:57Z</time>
      </trkpt>
      <trkpt lat="48.75186" lon="2.50934">
        <ele>48.64</ele>
        <time>2019-04-07T14:55:11Z</time>
      </trkpt>
      <trkpt lat="48.75198" lon="2.50926">
        <ele>47.66</ele>
        <time>2019-04-07T14:55:27Z</time>
      </trkpt>
      <trkpt lat="48.75197" lon="2.50921">
        <ele>47.72</ele>
        <time>2019-04-07T14:55:44Z</time>
      </trkpt>
      <trkpt lat="48.752" lon="2.50905">
        <ele>47.14</ele>
        <time>2019-04-07T14:55:57Z</time>
      </trkpt>
      <trkpt lat="48.75211" lon="2.50893">
        <ele>44.79</ele>
        <time>2019-04-07T14:56:15Z</time>
      </trkpt>
      <trkpt lat="48.75224" lon="2.5088">
        <ele>44.01</ele>
        <time>2019-04-07T14:56:32Z</time>
      </trkpt>
      <trkpt lat="48.7523" lon="2.50852">
        <ele>41.97</ele>
        <time>2019-04-07T14:56:51Z</time>
      </trkpt>
      <trkpt lat="48.7524" lon="2.50835">
        <ele>39.97</ele>
        <time>2019-04-07T14:57:12Z</time>
      </trkpt>
      <trkpt lat="48.75272" lon="2.50817">
        <ele>38.53</ele>
        <time>2019-04-07T14:57:33Z</time>
      </trkpt>
      <trkpt lat="48.75286" lon="2.5079">
        <ele>36.87</ele>
        <time>2019-04-07T14:57:53Z</time>
      </trkpt>
      <trkpt lat="48.75297" lon="2.50767">
        <ele>33.74</ele>
        <time>2019-04-07T14:58:13Z</time>
      </trkpt>
      <trkpt lat="48.75317" lon="2.50749">
        <ele>33.12</ele>
        <time>2019-04-07T14:58:34Z</time>
      </trkpt>
      <trkpt lat="48.75333" lon="2.50712">
        <ele>30.72</ele>
        <time>2019-04-07T14:58:55Z</time>
      </trkpt>
      <trkpt lat="48.75351" lon="2.50706">
        <ele>30.44</ele>
        <time>2019-04-07T14:59:14Z</time>
      </trkpt>
      <trkpt lat="48.75345" lon="2.50687">
        <ele>27.9</ele>
        <time>2019-04-07T14:59:33Z</time>
      </trkpt>
      <trkpt lat="48.75331" lon="2.50682">
        <ele>28.84</ele>
        <time>2019-04-07T14:59:46Z</time>
      </trkpt>
      <trkpt lat="48.75306" lon="2.50673">
        <ele>29.8</ele>
        <time>2019-04-07T15:00:04Z</time>
      </trkpt>
      <trkpt lat="48.7529" lon="2.50675">
        <ele>30.76</ele>
        <time>2019-04-07T15:00:21Z</time>
      </trkpt>
      <trkpt lat="48.75284" lon="2.50674">
        <ele>31.02</ele>
        <time>2019-04-07T15:00:48Z</time>
      </trkpt>
      <trkpt lat="48.75284" lon="2.50673">
        <ele>30.98</ele>
        <time>2019-04-07T15:01:10Z</time>
      </trkpt>
      <trkpt lat="48.75282" lon="2.50671">
        <ele>30.95</ele>
        <time>2019-04-07T15:01:27Z</time>
      </trkpt>
      <trkpt lat="48.75284" lon="2.50654">
        <ele>31.33</ele>
        <time>2019-04-07T15:01:39Z</time>
      </trkpt>
      <trkpt lat="48.75289" lon="2.5065">
        <ele>31.46</ele>
        <time>2019-04-07T15:01:56Z</time>
      </trkpt>
      <trkpt lat="48.75284" lon="2.50649">
        <ele>31.54</ele>
        <time>2019-04-07T15:02:02Z</time>
      </trkpt>
      <trkpt lat="48.75283" lon="2.50634">
        <ele>30.57</ele>
        <time>2019-04-07T15:02:17Z</time>
      </trkpt>
      <trkpt lat="48.75282" lon="2.50634">
        <ele>30.47</ele>
        <time>2019-04-07T15:02:19Z</time>
      </trkpt>
      <trkpt lat="48.75291" lon="2.50611">
        <ele>30.28</ele>
        <time>2019-04-07T15:02:35Z</time>
      </trkpt>
    </trkseg>
  </trk>
</gpx>